Date StartTime U_cm/s V_cm/s W_cm/s Ustd_cm/s Vstd_cm/s Wstd_cm/s Uvar_(cm/s)^2 Vvar_(cm/s)^2 Wvar_(cm/s)^2 KE_(m/s)^2 TurbulentKE_(m/s)^2 HorizWindSpeed_cm/s FrictionSpeec_cm/s DragCoef SpeedOfSound_m/s SonicTemperature_C Pressure_mb 
10/16/2014  00:00:00      -75.799      -59.765        0.895       38.718       50.616       23.726     1499.045     2561.947      562.911        0.697        0.231       96.526       19.969        0.043      338.519       11.225      861.852
10/16/2014  00:01:00     -113.276      -69.489        4.590       65.406       42.056       27.741     4277.989     1768.746      769.545        1.225        0.341      132.892       29.467        0.049      338.521       11.228      861.863
10/16/2014  00:02:00     -108.446      -25.951        4.547       60.585       38.012       28.299     3670.537     1444.947      800.833        0.918        0.296      111.508       33.846        0.092      338.511       11.212      861.894
10/16/2014  00:03:00      -75.253      -34.440        2.499       31.249       40.613       18.467      976.509     1649.412      341.034        0.491        0.148       82.759       13.257        0.026      338.547       11.273      861.936
10/16/2014  00:04:00      -73.554      -38.066      -11.684       22.553       32.911       24.188      508.630     1083.122      585.055        0.459        0.109       82.820       16.234        0.038      338.569       11.310      861.974
10/16/2014  00:05:00      -90.240      -45.602       -7.548       45.528       25.068       19.100     2072.839      628.390      364.808        0.667        0.153      101.108       20.276        0.040      338.562       11.298      861.999
10/16/2014  00:06:00      -62.492      -23.486       -5.313       36.141       15.361       13.719     1306.170      235.945      188.225        0.311        0.087       66.759       14.742        0.049      338.605       11.370      861.988
10/16/2014  00:07:00      -37.017       -9.162        0.860       24.223       23.333        9.261      586.759      544.441       85.758        0.134        0.061       38.134        9.899        0.067      338.594       11.351      861.957
10/16/2014  00:08:00      -68.509      -60.729        4.518       51.092       31.226       18.009     2610.383      975.074      324.339        0.616        0.195       91.551       14.161        0.024      338.631       11.413      861.914
10/16/2014  00:09:00      -67.375      -76.471        6.074       49.776       39.224       25.819     2477.698     1538.510      666.640        0.755        0.234      101.918       31.841        0.098      338.566       11.305      861.888
10/16/2014  00:10:00      -83.837      -40.485       -0.287       37.530       25.648       15.274     1408.474      657.816      233.299        0.548        0.115       93.101       13.072        0.020      338.614       11.385      861.865
10/16/2014  00:11:00      -59.510       -4.361       -8.429       28.731       22.288       15.571      825.494      496.775      242.462        0.260        0.078       59.670       12.107        0.041      338.556       11.288      861.849
10/16/2014  00:12:00      -74.274      -26.732      -11.968       21.375       16.942       14.287      456.908      287.020      204.113        0.366        0.047       78.939        8.482        0.012      338.543       11.266      861.814
10/16/2014  00:13:00     -109.595      -33.993       -9.757       17.193       15.041       12.376      295.601      226.220      153.160        0.697        0.034      114.746        8.432        0.005      338.569       11.311      861.775
10/16/2014  00:14:00      -48.561      -43.853       -5.439       24.731       27.385       15.414      611.637      749.935      237.579        0.295        0.080       65.431       13.650        0.044      338.580       11.328      861.745
10/16/2014  00:15:00      -43.838      -40.976        3.473       25.941       17.069       16.723      672.910      291.353      279.655        0.243        0.062       60.006       15.406        0.066      338.588       11.342      861.729
10/16/2014  00:16:00      -65.522      -50.540       -9.265       21.852       17.238       12.915      477.524      297.138      166.808        0.394        0.047       82.749       13.419        0.026      338.591       11.347      861.707
10/16/2014  00:17:00      -10.198      -36.915       -9.917       36.355       18.534       13.591     1321.673      343.492      184.710        0.171        0.092       38.298       14.697        0.147      338.593       11.351      861.693
10/16/2014  00:18:00        9.684      -18.518       -3.469        7.939       15.716       11.902       63.030      246.994      141.666        0.045        0.023       20.897       10.087        0.233      338.584       11.335      861.675
10/16/2014  00:19:00        9.905      -15.329       -4.711       19.546       15.698       10.543      382.045      246.441      111.154        0.055        0.037       18.251       10.999        0.363      338.556       11.288      861.658
10/16/2014  00:20:00      -38.104       -2.266       -3.622        9.104       13.777        8.469       82.887      189.797       71.722        0.091        0.017       38.171        3.928        0.011      338.583       11.332      861.635
10/16/2014  00:21:00      -43.829       31.494      -14.078       18.792        8.850        9.950      353.122       78.330       99.001        0.182        0.027       53.971       10.584        0.038      338.570       11.315      861.622
10/16/2014  00:22:00      -31.763        9.889        4.186       10.698       12.123        9.381      114.448      146.963       88.011        0.074        0.017       33.267        3.362        0.010      338.531       11.246      861.607
10/16/2014  00:23:00       -6.872       20.125        2.874       25.515       25.305       12.483      651.035      640.357      155.833        0.095        0.072       21.266       10.012        0.222      338.518       11.223      861.614
10/16/2014  00:24:00      -47.215       -1.513        1.749       26.607       16.274       21.980      707.908      264.846      483.138        0.184        0.073       47.239       14.182        0.090      338.571       11.313      861.622
10/16/2014  00:25:00      -76.729      -20.447       -1.727       23.065       25.521       18.743      531.987      651.321      351.299        0.392        0.077       79.407       11.910        0.022      338.598       11.357      861.624
10/16/2014  00:26:00      -76.953      -16.350       -6.110       29.837       22.879       12.732      890.219      523.463      162.110        0.390        0.079       78.671       11.356        0.021      338.619       11.394      861.628
10/16/2014  00:27:00      -88.690       -1.036      -11.247       23.878       20.875       13.666      570.166      435.766      186.763        0.459        0.060       88.696       16.359        0.034      338.594       11.351      861.639
10/16/2014  00:28:00      -66.511        0.613       -9.011       22.525       23.268       11.302      507.395      541.421      127.743        0.284        0.059       66.513       10.633        0.026      338.579       11.328      861.665
10/16/2014  00:29:00      -36.883       -9.072       -6.699       22.037       23.427       12.160      485.620      548.824      147.857        0.133        0.059       37.983       11.739        0.096      338.581       11.331      861.696
10/16/2014  00:30:00      -60.613      -29.575        0.906       28.277       23.290       12.117      799.605      542.424      146.833        0.302        0.074       67.443       11.854        0.031      338.580       11.329      861.717
10/16/2014  00:31:00      -83.571      -41.068       -5.802       18.774       18.445       12.460      352.478      340.225      155.247        0.478        0.042       93.117        9.023        0.009      338.575       11.319      861.747
10/16/2014  00:32:00      -57.175      -27.018      -11.242       19.301       13.783        9.542      372.537      189.960       91.054        0.239        0.033       63.238        6.138        0.009      338.569       11.310      861.766
10/16/2014  00:33:00      -63.749      -35.014      -13.815       11.389       10.840       10.979      129.715      117.511      120.543        0.292        0.018       72.732        5.231        0.005      338.549       11.272      861.768
10/16/2014  00:34:00      -16.910      -19.355       -0.797       15.508       18.940       12.408      240.513      358.727      153.946        0.071        0.038       25.702       10.599        0.170      338.508       11.207      861.750
10/16/2014  00:35:00      -21.283        6.473       -0.597        9.293       13.773        6.381       86.365      189.684       40.720        0.041        0.016       22.245        4.720        0.045      338.476       11.155      861.724
10/16/2014  00:36:00      -27.768       13.353       -6.000       14.618        8.984        7.141      213.690       80.705       50.993        0.067        0.017       30.812        8.467        0.076      338.506       11.203      861.711
10/16/2014  00:37:00      -46.884       10.907       -6.355        8.704        5.713        6.229       75.765       32.636       38.802        0.125        0.007       48.136        2.524        0.003      338.512       11.208      861.699
10/16/2014  00:38:00      -48.123        6.363       -6.621       11.883        5.754        5.350      141.208       33.114       28.617        0.130        0.010       48.542        0.726        0.000      338.537       11.249      861.682
10/16/2014  00:39:00      -31.412        7.300        4.214       12.589       11.172       10.327      158.479      124.807      106.653        0.072        0.019       32.249        4.499        0.019      338.538       11.257      861.678
10/16/2014  00:40:00       -9.220       10.156        4.039       15.107       13.698       10.992      228.222      187.633      120.822        0.037        0.027       13.717       10.978        0.641      338.433       11.080      861.684
10/16/2014  00:41:00       -3.430       33.684       -3.627       11.244       14.208        7.377      126.430      201.866       54.422        0.077        0.019       33.858        6.214        0.034      338.373       10.982      861.680
10/16/2014  00:42:00      -23.944       17.475       -2.320       25.712       21.144        7.293      661.133      447.055       53.185        0.102        0.058       29.643        9.318        0.099      338.426       11.069      861.667
10/16/2014  00:43:00      -51.795      -15.064       -6.437        8.331       13.203        4.827       69.398      174.324       23.302        0.161        0.013       53.941        4.247        0.006      338.471       11.147      861.658
10/16/2014  00:44:00      -63.388      -27.405       -3.869       20.062       15.186        8.921      402.481      230.618       79.585        0.275        0.036       69.058        4.788        0.005      338.460       11.126      861.652
10/16/2014  00:45:00      -72.315      -16.465       -2.885       22.312       20.960       11.637      497.834      439.304      135.411        0.329        0.054       74.166        8.463        0.013      338.456       11.120      861.649
10/16/2014  00:46:00      -76.230      -38.707       -1.439       29.945       32.634       26.676      896.725     1064.992      711.599        0.499        0.134       85.495       13.846        0.026      338.420       11.058      861.645
10/16/2014  00:47:00      -92.287      -18.905       -8.183       18.810       26.477       12.569      353.812      701.019      157.984        0.508        0.061       94.203        9.534        0.010      338.414       11.050      861.641
10/16/2014  00:48:00      -60.561       17.831      -11.198       15.574       13.723       14.039      242.541      188.325      197.096        0.237        0.031       63.131       11.775        0.035      338.385       11.002      861.650
10/16/2014  00:49:00      -58.584        0.978      -12.926       11.951       14.957        6.683      142.835      223.718       44.661        0.201        0.021       58.592        5.105        0.008      338.454       11.116      861.669
10/16/2014  00:50:00      -67.489      -22.700       -5.476       21.812       13.147       10.469      475.749      172.842      109.599        0.293        0.038       71.205        6.258        0.008      338.460       11.126      861.687
10/16/2014  00:51:00      -26.792      -13.587       -2.000       16.956       16.371       11.530      287.520      268.020      132.944        0.080        0.034       30.040       11.945        0.158      338.443       11.097      861.698
10/16/2014  00:52:00      -64.722       -0.277       -2.702       16.203       12.189        7.306      262.543      148.562       53.381        0.233        0.023       64.722        5.310        0.007      338.450       11.111      861.698
10/16/2014  00:53:00      -67.001       18.240       -6.666       21.146       15.973       10.926      447.164      255.151      119.375        0.284        0.041       69.439        6.731        0.009      338.392       11.013      861.697
10/16/2014  00:54:00      -59.864       -9.709       -1.425       35.862       21.833       20.277     1286.094      476.679      411.155        0.293        0.109       60.646       19.644        0.105      338.399       11.023      861.692
10/16/2014  00:55:00      -88.786       -0.499      -13.849       27.607       28.894       13.583      762.139      834.884      184.487        0.493        0.089       88.787       14.727        0.028      338.405       11.035      861.693
10/16/2014  00:56:00     -100.596      -11.630      -11.477       19.412       34.383       13.260      376.817     1182.180      175.836        0.606        0.087      101.266       14.182        0.020      338.341       10.925      861.700
10/16/2014  00:57:00      -82.920      -44.605       -4.503       18.837       15.679        9.332      354.828      245.826       87.089        0.479        0.034       94.155        7.251        0.006      338.348       10.938      861.729
10/16/2014  00:58:00      -54.671      -31.685        2.436       24.185       19.960       12.385      584.914      398.389      153.382        0.257        0.057       63.189        6.822        0.012      338.353       10.945      861.774
10/16/2014  00:59:00      -61.653       23.463       -7.991       15.114       39.679       14.228      228.430     1574.395      202.440        0.321        0.100       65.966       15.761        0.057      338.321       10.891      861.812
10/16/2014  01:00:00      -71.633       27.686       -9.927       18.912       21.598       13.409      357.673      466.467      179.806        0.350        0.050       76.797       11.937        0.024      338.276       10.818      861.842
10/16/2014  01:01:00      -41.550       -9.398       -5.526       13.455       16.664        7.505      181.034      277.674       56.320        0.118        0.026       42.600        4.154        0.010      338.240       10.754      861.866
10/16/2014  01:02:00      -66.993        4.724       -9.921       11.844       15.418       11.568      140.277      237.726      133.814        0.256        0.026       67.160        7.046        0.011      338.263       10.796      861.885
10/16/2014  01:03:00      -45.881        8.137       -9.706       17.052       12.332        8.793      290.786      152.070       77.325        0.139        0.026       46.597        8.900        0.036      338.203       10.696      861.888
10/16/2014  01:04:00      -42.237        9.298       -4.480       11.004       10.678        7.904      121.089      114.010       62.473        0.109        0.015       43.248        5.150        0.014      338.211       10.706      861.874
10/16/2014  01:05:00      -31.028       -4.785       -7.988       10.874       10.931        9.117      118.254      119.485       83.118        0.069        0.016       31.395        7.501        0.057      338.243       10.760      861.848
10/16/2014  01:06:00      -20.031       29.226       -8.709       17.010       23.812       10.692      289.333      567.009      114.315        0.115        0.049       35.432        8.703        0.060      338.303       10.863      861.825
10/16/2014  01:07:00      -17.350       76.237       -7.714       17.873       26.476       14.999      319.439      700.972      224.969        0.371        0.062       78.186       13.772        0.031      338.313       10.880      861.803
10/16/2014  01:08:00      -43.817       47.430       -3.704       20.749       26.468       12.763      430.533      700.532      162.898        0.274        0.065       64.572        6.916        0.011      338.280       10.824      861.802
10/16/2014  01:09:00      -44.665       19.901       -0.413       17.165       12.761       14.410      294.633      162.846      207.661        0.153        0.033       48.898        9.198        0.035      338.147       10.602      861.813
10/16/2014  01:10:00      -43.933       15.586       -6.824       14.902       18.556        8.548      222.063      344.321       73.072        0.143        0.032       46.616        6.510        0.020      338.217       10.718      861.837
10/16/2014  01:11:00      -46.240       37.177       -8.992       15.884       15.870        9.245      252.305      251.867       85.464        0.210        0.029       59.332        8.399        0.020      338.250       10.773      861.855
10/16/2014  01:12:00      -52.059       59.650      -13.972       20.796       30.701       11.958      432.489      942.559      143.001        0.399        0.076       79.172        9.064        0.013      338.222       10.726      861.830
10/16/2014  01:13:00      -14.861       67.346       -0.849       35.908       32.973       19.936     1289.354     1087.250      397.454        0.377        0.139       68.966       14.131        0.042      338.192       10.676      861.773
10/16/2014  01:14:00       -8.896       21.446        4.550       24.632       19.849       15.633      606.733      393.974      244.396        0.090        0.062       23.218        9.702        0.175      338.048       10.436      861.733
10/16/2014  01:15:00       14.367       31.385       -0.875       11.933       22.653       11.971      142.397      513.156      143.311        0.100        0.040       34.517       11.366        0.108      337.976       10.314      861.731
10/16/2014  01:16:00       26.417       18.221       -2.213        8.778        8.295        9.576       77.058       68.813       91.694        0.064        0.012       32.092        6.428        0.040      337.803       10.024      861.754
10/16/2014  01:17:00        9.344      -18.639        0.461        5.613       10.907        4.851       31.502      118.960       23.530        0.030        0.009       20.850        4.067        0.038      337.909       10.203      861.793
10/16/2014  01:18:00       -0.693      -22.813       -5.187       11.577       13.307       13.036      134.026      177.077      169.949        0.051        0.024       22.823        8.971        0.154      337.956       10.280      861.810
10/16/2014  01:19:00      -17.722       -4.185       -1.403       23.334       11.780       12.225      544.465      138.778      149.442        0.058        0.042       18.210       13.870        0.580      338.049       10.436      861.784
10/16/2014  01:20:00       85.981       30.458        7.559       28.673       20.635       13.385      822.167      425.783      179.166        0.490        0.071       91.216        7.457        0.007      337.867       10.132      861.751
10/16/2014  01:21:00       90.170       34.724        4.465       27.298       24.168       19.846      745.194      584.097      393.859        0.554        0.086       96.625       10.964        0.013      337.854       10.109      861.734
10/16/2014  01:22:00       63.196       34.126        7.751       34.361       25.230       15.398     1180.680      636.561      237.105        0.364        0.103       71.822       13.238        0.034      337.826       10.062      861.743
10/16/2014  01:23:00       60.606       21.090        5.471       25.769       14.218       12.655      664.048      202.137      160.150        0.259        0.051       64.171        4.962        0.006      337.911       10.204      861.770
10/16/2014  01:24:00       40.768       13.057        9.276       20.739       14.031       13.408      430.091      196.855      179.785        0.136        0.040       42.808       10.011        0.055      337.923       10.224      861.820
10/16/2014  01:25:00       46.778       26.915        9.891       13.316       11.911       11.216      177.304      141.866      125.800        0.173        0.022       53.968        5.698        0.011      337.887       10.165      861.858
10/16/2014  01:26:00       44.622       15.982        6.046       16.779       14.169       14.433      281.540      200.750      208.316        0.149        0.035       47.398       10.477        0.049      337.895       10.179      861.875
10/16/2014  01:27:00       12.627       13.906       12.594       14.440       12.671        9.524      208.522      160.565       90.714        0.049        0.023       18.783        4.003        0.045      337.850       10.102      861.892
10/16/2014  01:28:00       -9.512       -3.251       10.384        9.989       25.874        8.783       99.772      669.440       77.136        0.053        0.042       10.053        7.661        0.581      337.865       10.129      861.909
10/16/2014  01:29:00       -3.446      -37.293       -7.644       14.693       12.582        9.831      215.878      158.309       96.640        0.097        0.024       37.452        7.179        0.037      337.963       10.292      861.914
10/16/2014  01:30:00        7.766      -34.792        0.868       14.957       16.425       14.758      223.718      269.795      217.812        0.099        0.036       35.648       11.612        0.106      338.009       10.369      861.915
10/16/2014  01:31:00      -20.361      -13.852        0.837       26.638       11.795       11.779      709.580      139.129      138.753        0.080        0.049       24.626       11.132        0.204      337.912       10.206      861.913
10/16/2014  01:32:00      -34.271      -10.707        4.038       19.430       16.145       13.645      377.536      260.662      186.188        0.106        0.041       35.904       11.424        0.101      337.771        9.971      861.912
10/16/2014  01:33:00      -19.396      -20.471       -0.458       18.423       12.130       11.060      339.402      147.143      122.316        0.070        0.030       28.200        4.173        0.022      337.759        9.950      861.894
10/16/2014  01:34:00      -25.625      -16.550        0.167       10.888       13.337        7.223      118.543      177.880       52.173        0.064        0.017       30.505        2.920        0.009      337.805       10.027      861.867
10/16/2014  01:35:00      -33.172       -2.766       -2.342       11.146       13.451        5.038      124.235      180.934       25.376        0.072        0.017       33.287        3.751        0.013      337.877       10.149      861.838
10/16/2014  01:36:00      -32.070       18.350       -7.637        8.325        9.284        6.819       69.313       86.187       46.497        0.081        0.010       36.949        5.091        0.019      337.795       10.010      861.825
10/16/2014  01:37:00      -37.823       10.802      -11.329        7.778        9.567        6.959       60.497       91.526       48.431        0.094        0.010       39.335        3.929        0.010      337.765        9.960      861.828
10/16/2014  01:38:00      -73.871       -8.598       -7.232       23.989       12.131        8.304      575.472      147.159       68.951        0.319        0.040       74.370        9.087        0.015      337.777        9.980      861.829
10/16/2014  01:39:00      -63.150      -33.461       -5.315        9.777       10.779        7.223       95.594      116.187       52.170        0.270        0.013       71.467        4.850        0.005      337.834       10.076      861.829
10/16/2014  01:40:00      -59.995      -37.461       -4.294        9.003       11.571        9.214       81.057      133.899       84.894        0.266        0.015       70.730        5.592        0.006      337.832       10.074      861.815
10/16/2014  01:41:00      -79.275      -21.321       -5.840       13.042        8.686        8.058      170.081       75.449       64.932        0.354        0.016       82.093        3.627        0.002      337.851       10.106      861.792
10/16/2014  01:42:00      -23.614      -23.483       -0.317       32.778       11.170       12.019     1074.416      124.760      144.463        0.123        0.067       33.303        9.363        0.079      337.881       10.155      861.767
10/16/2014  01:43:00      -29.771      -14.476        9.332       39.087       13.797       15.480     1527.790      190.365      239.633        0.157        0.098       33.104       20.518        0.384      337.887       10.165      861.729
10/16/2014  01:44:00      -44.926       17.678      -13.719       23.122       24.154       11.577      534.628      583.414      134.029        0.189        0.063       48.279       10.602        0.048      337.794       10.008      861.700
10/16/2014  01:45:00      -88.954      -14.798       -8.688       26.643       22.188       13.008      709.835      492.319      169.207        0.479        0.069       90.176       12.060        0.018      337.718        9.881      861.685
10/16/2014  01:46:00      -21.895      -29.136       -2.144       36.309       13.045       14.580     1318.376      170.180      212.590        0.152        0.085       36.446       12.470        0.117      337.690        9.833      861.679
10/16/2014  01:47:00      -40.955      -37.798        2.850       30.785       18.154       16.236      947.687      329.553      263.597        0.233        0.077       55.731       15.376        0.076      337.732        9.905      861.675
10/16/2014  01:48:00      -17.708      -24.882       -0.806       15.001       15.077       15.659      225.031      227.329      245.208        0.082        0.035       30.540        9.915        0.105      337.736        9.912      861.682
10/16/2014  01:49:00      -28.074      -21.217        8.896       38.645       17.044       16.633     1493.444      290.505      276.657        0.169        0.103       35.190       16.636        0.223      337.711        9.871      861.686
10/16/2014  01:50:00      -18.642      -17.561        5.471       23.218       17.611       13.241      539.069      310.133      175.319        0.086        0.051       25.610       10.865        0.180      337.709        9.865      861.700
10/16/2014  01:51:00      -41.880      -37.742       -5.415       24.067       10.521       12.101      579.206      110.701      146.441        0.202        0.042       56.377       11.950        0.045      337.720        9.884      861.708
10/16/2014  01:52:00      -53.363      -20.986       -2.272       17.537       12.221       15.895      307.542      149.354      252.652        0.200        0.035       57.341        9.753        0.029      337.733        9.908      861.728
10/16/2014  01:53:00      -18.580      -11.904        1.856       22.075       16.722       12.537      487.314      279.626      157.177        0.071        0.046       22.067       12.048        0.298      337.716        9.879      861.747
10/16/2014  01:54:00       11.949      -44.624        2.242       23.158       32.668       21.422      536.301     1067.177      458.889        0.210        0.103       46.196       16.068        0.121      337.594        9.674      861.753
10/16/2014  01:55:00       16.344      -37.559       -5.678       16.516       11.941       12.110      272.778      142.581      146.664        0.114        0.028       40.961       11.559        0.080      337.633        9.740      861.755
10/16/2014  01:56:00        1.101      -33.745      -13.731        8.675       13.212        8.758       75.253      174.551       76.698        0.083        0.016       33.763        4.852        0.021      337.683        9.822      861.755
10/16/2014  01:57:00        9.725      -39.480      -15.124       18.735       20.513       11.461      351.019      420.797      131.346        0.139        0.045       40.660       10.889        0.072      337.755        9.943      861.758
10/16/2014  01:58:00      -13.766      -18.407      -13.633       22.332       15.642        8.810      498.710      244.669       77.615        0.077        0.041       22.985        7.255        0.100      337.721        9.886      861.758
10/16/2014  01:59:00      -48.667      -26.662        4.472       34.907       25.833       14.744     1218.478      667.330      217.399        0.260        0.105       55.491       10.745        0.037      337.619        9.714      861.750
10/16/2014  02:00:00      -67.453      -51.895        1.285       42.581       31.408       20.922     1813.153      986.486      437.714        0.524        0.162       85.106       19.872        0.055      337.619        9.715      861.731
10/16/2014  02:01:00      -76.516      -76.763       -0.744       52.607       50.100       21.302     2767.523     2509.968      453.786        0.874        0.287      108.385       19.491        0.032      337.594        9.674      861.724
10/16/2014  02:02:00     -121.129      -93.170       -3.530       35.732       31.087       24.583     1276.741      966.379      604.327        1.311        0.142      152.817       16.694        0.012      337.518        9.545      861.720
10/16/2014  02:03:00     -112.135     -100.974       -3.883       37.905       34.085       20.929     1436.812     1161.756      438.027        1.291        0.152      150.897       22.702        0.023      337.505        9.523      861.746
10/16/2014  02:04:00     -114.252      -91.929       -1.389       38.076       37.742       23.665     1449.756     1424.426      560.011        1.247        0.172      146.644       24.527        0.028      337.478        9.479      861.768
10/16/2014  02:05:00     -117.597     -118.847      -12.894       26.984       27.970       19.587      728.116      782.343      383.650        1.501        0.095      167.194       10.875        0.004      337.476        9.476      861.775
10/16/2014  02:06:00     -115.292     -125.762       -0.556       45.576       52.041       31.028     2077.205     2708.306      962.726        1.743        0.287      170.612       31.838        0.035      337.452        9.433      861.771
10/16/2014  02:07:00     -119.990     -130.316      -13.909       33.903       32.676       22.582     1149.407     1067.732      509.945        1.715        0.136      177.144       19.909        0.013      337.446        9.424      861.764
10/16/2014  02:08:00     -118.620      -80.759       -8.547       38.997       41.609       23.541     1520.739     1731.282      554.198        1.224        0.190      143.502       25.089        0.031      337.444        9.422      861.761
10/16/2014  02:09:00     -101.711      -74.970       -3.491       35.802       36.055       19.835     1281.815     1299.928      393.416        0.948        0.149      126.356       14.091        0.012      337.462        9.451      861.768
10/16/2014  02:10:00     -104.634      -78.878       -9.796       36.386       44.314       22.375     1323.912     1963.711      500.629        1.053        0.189      131.034       16.640        0.016      337.393        9.338      861.788
10/16/2014  02:11:00      -79.716      -86.759       -7.430       40.964       32.753       24.450     1678.053     1072.752      597.807        0.864        0.167      117.821       24.298        0.043      337.384        9.321      861.821
10/16/2014  02:12:00      -36.385      -27.826        5.485       29.664       22.754       17.797      879.948      517.741      316.741        0.192        0.086       45.806       15.027        0.108      337.385        9.324      861.845
10/16/2014  02:13:00      -48.155      -24.983        3.213       35.414       23.555       22.319     1254.130      554.842      498.149        0.263        0.115       54.250       11.941        0.048      337.355        9.273      861.868
10/16/2014  02:14:00      -94.903      -29.302       -4.452       22.213       20.836       15.986      493.416      434.150      255.540        0.553        0.059       99.324       12.159        0.015      337.347        9.261      861.877
10/16/2014  02:15:00      -86.328      -19.949       -0.911       35.873       34.459       18.684     1286.904     1187.406      349.094        0.534        0.141       88.603       18.130        0.042      337.240        9.082      861.890
10/16/2014  02:16:00     -139.635      -22.243      -12.829       27.906       22.881       16.941      778.741      523.537      287.004        1.087        0.079      141.396       10.082        0.005      337.192        8.999      861.904
10/16/2014  02:17:00     -121.247      -43.972      -12.516       17.348       22.259       12.151      300.952      495.482      147.645        0.887        0.047      128.975        8.603        0.004      337.152        8.933      861.922
10/16/2014  02:18:00     -121.596      -33.418       -8.448       34.671       25.415       13.547     1202.106      645.944      183.522        0.900        0.102      126.104        5.221        0.002      337.170        8.962      861.925
10/16/2014  02:19:00     -117.323      -22.720      -10.756       31.235       29.377       20.894      975.620      862.992      436.551        0.834        0.114      119.502       16.196        0.018      337.129        8.893      861.916
10/16/2014  02:20:00     -134.966      -27.754      -20.874       17.756       16.566        9.924      315.278      274.433       98.490        1.005        0.034      137.790        7.021        0.003      337.115        8.870      861.900
10/16/2014  02:21:00     -115.080      -40.143      -15.356       16.865       21.738       11.144      284.415      472.557      124.199        0.799        0.044      121.880       10.366        0.007      337.144        8.920      861.881
10/16/2014  02:22:00      -88.440      -37.202      -12.631       23.279       21.539       13.969      541.893      463.927      195.139        0.528        0.060       95.946       12.028        0.016      337.173        8.968      861.882
10/16/2014  02:23:00      -70.440      -20.504       -8.431       15.638       18.629       11.731      244.556      347.050      137.627        0.309        0.036       73.364        6.444        0.008      337.181        8.982      861.877
10/16/2014  02:24:00      -51.684       16.311       -2.207       19.233       17.742       12.373      369.912      314.793      153.080        0.189        0.042       54.197        7.428        0.019      337.118        8.877      861.854
10/16/2014  02:25:00      -42.074       37.075       -5.161       20.965       25.620       15.830      439.525      656.408      250.593        0.226        0.067       56.079       11.510        0.042      337.115        8.870      861.835
10/16/2014  02:26:00      -75.217       32.354       -7.271       32.747       18.873       18.667     1072.372      356.199      348.445        0.427        0.089       81.880       14.300        0.031      337.202        9.018      861.831
10/16/2014  02:27:00     -136.520      -11.030      -20.483       23.896       36.597       12.563      571.012     1339.343      157.818        1.062        0.103      136.965        8.648        0.004      337.224        9.055      861.840
10/16/2014  02:28:00     -104.732      -41.255       -6.587       22.164       29.358       15.898      491.221      861.880      252.754        0.716        0.080      112.564        9.681        0.007      337.178        8.976      861.841
10/16/2014  02:29:00      -80.182      -15.854        0.541       28.726       18.259       15.080      825.162      333.379      227.397        0.403        0.069       81.735       15.550        0.036      337.212        9.035      861.835
10/16/2014  02:30:00      -58.475       -5.365       -4.360       13.594       22.544        7.097      184.785      508.244       50.373        0.211        0.037       58.721        4.107        0.005      337.180        8.981      861.824
10/16/2014  02:31:00     -104.713       12.357      -13.946       18.311       13.695       11.366      335.291      187.561      129.188        0.598        0.033      105.440        7.570        0.005      337.155        8.938      861.803
10/16/2014  02:32:00      -89.784        1.157      -14.926       19.605       13.734       11.098      384.343      188.617      123.156        0.449        0.035       89.792        9.487        0.011      337.130        8.895      861.778
10/16/2014  02:33:00      -80.082       26.659      -10.755       15.943       16.547       13.341      254.164      273.792      177.989        0.397        0.035       84.403        7.502        0.008      337.204        9.021      861.748
10/16/2014  02:34:00      -80.238       20.996      -11.156       15.066       15.243       13.318      226.981      232.346      177.364        0.382        0.032       82.939        9.045        0.012      337.206        9.023      861.716
10/16/2014  02:35:00      -72.185       19.697      -12.374       15.636       15.038        9.337      244.482      226.146       87.179        0.315        0.028       74.824        3.685        0.002      337.296        9.173      861.700
10/16/2014  02:36:00      -74.205       25.322      -13.260       15.833       12.491       11.332      250.688      156.023      128.421        0.343        0.027       78.406        7.236        0.009      337.358        9.276      861.681
10/16/2014  02:37:00      -33.168       -2.601       -4.105       14.579       15.914       13.646      212.535      253.242      186.200        0.089        0.033       33.270       10.487        0.099      337.343        9.251      861.671
10/16/2014  02:38:00      -45.313      -17.271       -5.432        9.396       12.711        9.210       88.284      161.581       84.821        0.136        0.017       48.493        4.825        0.010      337.359        9.280      861.665
10/16/2014  02:39:00      -20.584      -10.559       -5.642       17.304       12.620       10.038      299.412      159.255      100.759        0.056        0.028       23.134        8.927        0.149      337.289        9.164      861.670
10/16/2014  02:40:00      -42.344      -16.963       -9.264        7.434       13.287        8.162       55.261      176.545       66.612        0.123        0.015       45.615        2.533        0.003      337.204        9.022      861.662
10/16/2014  02:41:00      -33.740       -4.032        1.469       15.309        8.135        7.654      234.372       66.182       58.582        0.076        0.018       33.980        5.713        0.028      337.264        9.122      861.647
10/16/2014  02:42:00        6.948        8.108        2.654       11.175       11.802        9.962      124.880      139.290       99.241        0.024        0.018       10.678        8.104        0.576      337.355        9.273      861.630
10/16/2014  02:43:00       -3.125      -14.051        2.538        7.199        6.092        3.876       51.829       37.113       15.020        0.016        0.005       14.395        2.850        0.039      337.411        9.367      861.630
10/16/2014  02:44:00      -35.522      -20.525       -4.159       14.550        9.326        6.481      211.688       86.973       42.000        0.102        0.017       41.026        6.395        0.024      337.304        9.188      861.640
10/16/2014  02:45:00       -9.927      -12.419       -3.953       18.704        9.222        6.537      349.839       85.038       42.732        0.037        0.024       15.899        3.021        0.036      337.255        9.106      861.645
10/16/2014  02:46:00      -28.620       -8.956       -1.283        8.513        7.557        5.146       72.470       57.105       26.481        0.053        0.008       29.988        4.241        0.020      337.266        9.126      861.633
10/16/2014  02:47:00      -47.444      -11.411       -5.530        7.619        8.503        7.516       58.046       72.307       56.495        0.130        0.009       48.797        3.328        0.005      337.224        9.055      861.624
10/16/2014  02:48:00      -33.111      -10.937       -9.054       13.639        7.183        5.475      186.024       51.596       29.971        0.078        0.013       34.871        3.596        0.011      337.251        9.098      861.617
10/16/2014  02:49:00      -38.585      -16.122       -5.741       17.386        7.097        6.275      302.268       50.366       39.381        0.109        0.020       41.817        7.003        0.028      337.228        9.063      861.605
10/16/2014  02:50:00      -49.293       -5.432       -8.805       12.386       10.580        8.410      153.403      111.934       70.722        0.144        0.017       49.591        6.185        0.016      337.168        8.960      861.595
10/16/2014  02:51:00      -59.238       -5.193       -6.146       11.986       10.777        7.455      143.675      116.151       55.580        0.194        0.016       59.466        3.752        0.004      337.150        8.931      861.597
10/16/2014  02:52:00      -63.607       -8.173       -9.851        8.414        8.128        6.718       70.803       66.069       45.135        0.220        0.009       64.130        3.667        0.003      337.158        8.944      861.601
10/16/2014  02:53:00      -42.454       -9.549       -5.756       10.112        9.912        9.026      102.247       98.246       81.475        0.110        0.014       43.514        7.158        0.027      337.177        8.978      861.620
10/16/2014  02:54:00      -34.164      -13.087       -4.244        7.616        9.550        6.088       58.006       91.195       37.068        0.077        0.009       36.585        4.895        0.018      337.183        8.987      861.634
10/16/2014  02:55:00      -43.256      -11.771       -6.307        6.582        8.640        5.652       43.329       74.652       31.948        0.110        0.007       44.829        3.036        0.005      337.155        8.936      861.653
10/16/2014  02:56:00      -49.070      -17.532       -4.026        9.479       14.488       10.010       89.852      209.916      100.194        0.157        0.020       52.108        7.400        0.020      337.163        8.952      861.669
10/16/2014  02:57:00      -82.254      -31.728       -9.882       15.489       15.298        9.259      239.920      234.026       85.733        0.421        0.028       88.161        8.021        0.008      337.127        8.890      861.691
10/16/2014  02:58:00      -99.487      -25.807       -5.651       13.427       13.622       10.544      180.283      185.570      111.185        0.554        0.024      102.780        8.827        0.007      337.056        8.771      861.720
10/16/2014  02:59:00      -91.608      -27.715       -8.966       24.593       13.899       13.263      604.824      193.181      175.898        0.511        0.049       95.709       12.294        0.017      336.979        8.642      861.742
10/16/2014  03:00:00     -100.867      -31.119       -3.409       17.193       17.602       14.195      295.612      309.824      201.490        0.598        0.040      105.559       11.647        0.012      336.978        8.641      861.764
10/16/2014  03:01:00      -92.325      -24.599       -2.502       24.651       21.481       12.284      607.690      461.433      150.889        0.518        0.061       95.546        9.740        0.010      336.973        8.633      861.776
10/16/2014  03:02:00      -94.690      -43.893        0.360       28.750       23.682       15.639      826.553      560.855      244.584        0.626        0.082      104.368       15.922        0.023      337.008        8.690      861.779
10/16/2014  03:03:00      -96.923      -49.531       -0.805       27.100       27.384       16.787      734.391      749.908      281.806        0.681        0.088      108.845       13.986        0.017      336.962        8.616      861.780
10/16/2014  03:04:00      -85.233      -21.551       -1.738       33.196       22.260       17.927     1101.975      495.496      321.393        0.483        0.096       87.916       18.129        0.043      336.960        8.611      861.788
10/16/2014  03:05:00     -105.597      -43.531        1.820       23.532       24.593       14.227      553.777      604.837      202.410        0.720        0.068      114.218       11.567        0.010      336.931        8.563      861.801
10/16/2014  03:06:00      -97.398      -51.944       -7.060       37.342       24.575       16.148     1394.405      603.924      260.746        0.725        0.113      110.384       10.311        0.009      336.935        8.568      861.815
10/16/2014  03:07:00      -90.355      -22.653       -0.950       35.331       19.660       16.322     1248.290      386.503      266.415        0.529        0.095       93.151       16.984        0.033      336.868        8.458      861.821
10/16/2014  03:08:00     -115.581      -45.102       -6.821       39.207       30.147       16.708     1537.219      908.845      279.170        0.908        0.136      124.069       16.161        0.017      336.815        8.369      861.807
10/16/2014  03:09:00     -114.597      -43.829       -4.824       39.035       24.134       17.678     1523.764      582.468      312.521        0.875        0.121      122.692       16.397        0.018      336.697        8.174      861.799
10/16/2014  03:10:00     -109.730      -37.116       -5.782       30.400       29.974       19.649      924.188      898.441      386.083        0.783        0.110      115.838       18.410        0.025      336.600        8.013      861.784
10/16/2014  03:11:00      -85.246      -27.227      -11.597       38.030       19.944       19.242     1446.249      397.772      370.264        0.518        0.111       89.489       17.960        0.040      336.633        8.067      861.759
10/16/2014  03:12:00      -85.769      -51.906       -7.810       29.662       17.308       15.746      879.822      299.580      247.943        0.577        0.071      100.252       18.117        0.033      336.577        7.973      861.728
10/16/2014  03:13:00      -81.022       -1.965       -9.850       36.310       17.693       13.226     1318.427      313.042      174.919        0.424        0.090       81.046       17.721        0.048      336.617        8.039      861.706
10/16/2014  03:14:00      -81.762       -9.161       -9.302       15.337       15.993       12.068      235.226      255.785      145.637        0.375        0.032       82.273        8.060        0.010      336.634        8.069      861.696
10/16/2014  03:15:00     -110.654       -2.707      -10.354       21.463       21.332       14.689      460.671      455.042      215.780        0.675        0.057      110.687       10.732        0.009      336.636        8.072      861.693
10/16/2014  03:16:00     -125.970      -20.428      -16.371       24.522       22.594       18.397      601.308      510.473      338.438        0.900        0.073      127.615       13.634        0.011      336.576        7.971      861.691
10/16/2014  03:17:00     -132.675      -28.539      -12.635       24.803       23.666       16.231      615.192      560.076      263.431        1.001        0.072      135.710        9.184        0.005      336.566        7.954      861.680
10/16/2014  03:18:00      -98.703      -18.531       -7.246       35.452       29.375       17.568     1256.859      862.918      308.627        0.628        0.121      100.428       13.612        0.018      336.566        7.955      861.666
10/16/2014  03:19:00     -113.180      -40.498       -5.019       32.256       26.289       20.488     1040.450      691.092      419.752        0.831        0.108      120.207       19.044        0.025      336.561        7.947      861.655
10/16/2014  03:20:00     -129.297      -30.039       -6.123       22.092       18.462       13.975      488.047      340.843      195.290        0.934        0.051      132.740       10.614        0.006      336.573        7.967      861.621
10/16/2014  03:21:00     -120.002      -31.963      -11.318       22.221       17.703       17.063      493.752      313.402      291.155        0.832        0.055      124.186       10.131        0.007      336.558        7.940      861.604
10/16/2014  03:22:00      -85.126      -32.565       -4.004       24.725       28.713       15.766      611.320      824.457      248.557        0.500        0.084       91.143       12.990        0.020      336.644        8.083      861.602
10/16/2014  03:23:00      -91.685      -48.394       -6.558       33.147       21.730       17.302     1098.729      472.207      299.365        0.633        0.094      103.673       19.614        0.036      336.591        7.997      861.612
10/16/2014  03:24:00     -105.117      -20.925       -5.471       25.722       26.730       17.648      661.599      714.481      311.441        0.660        0.084      107.179       15.136        0.020      336.628        8.059      861.614
10/16/2014  03:25:00      -97.526      -12.850       -7.229       26.946       28.851       18.651      726.108      832.384      347.849        0.582        0.095       98.369       17.003        0.030      336.565        7.953      861.605
10/16/2014  03:26:00      -72.433      -24.366       -0.868       30.735       30.633       14.538      944.629      938.354      211.346        0.397        0.105       76.421       15.341        0.040      336.627        8.057      861.597
10/16/2014  03:27:00      -54.126       -2.729       -3.106       23.116       17.552       17.387      534.356      308.083      302.290        0.205        0.057       54.194       11.467        0.045      336.626        8.055      861.581
10/16/2014  03:28:00      -82.734       -7.402      -11.960       16.755       15.331       10.352      280.744      235.032      107.173        0.383        0.031       83.065        9.416        0.013      336.581        7.980      861.571
10/16/2014  03:29:00      -30.107      -10.720        0.865       27.052       20.113       10.989      731.788      404.530      120.753        0.114        0.063       31.959       10.772        0.114      336.598        8.007      861.571
10/16/2014  03:30:00      -40.938      -19.053       -3.567       25.929       18.208       11.200      672.310      331.529      125.432        0.159        0.056       45.155       10.148        0.051      336.589        7.993      861.565
10/16/2014  03:31:00      -27.291      -16.642       -3.392       40.120       19.095       15.476     1609.575      364.619      239.508        0.162        0.111       31.965       12.869        0.162      336.629        8.060      861.553
10/16/2014  03:32:00      -80.259      -27.228       -3.444       44.198       29.739       13.045     1953.477      884.426      170.178        0.510        0.150       84.752       19.428        0.053      336.586        7.988      861.535
10/16/2014  03:33:00     -127.826      -34.418      -16.216       19.726       21.148       14.940      389.128      447.248      223.205        0.942        0.053      132.379        9.546        0.005      336.598        8.009      861.539
10/16/2014  03:34:00     -103.904      -14.659      -13.329       21.931       20.643       18.206      480.986      426.126      331.450        0.621        0.062      104.933       12.996        0.015      336.596        8.006      861.551
10/16/2014  03:35:00      -52.452      -24.313       -3.037       34.827       30.080       15.587     1212.954      904.832      242.944        0.286        0.118       57.813       18.305        0.100      336.574        7.968      861.551
10/16/2014  03:36:00      -87.861      -12.336       -0.363       47.074       28.175       23.176     2215.934      793.840      537.109        0.571        0.177       88.723       23.564        0.071      336.536        7.904      861.560
10/16/2014  03:37:00     -105.168       -6.815       -9.707       60.633       30.058       23.410     3676.323      903.486      548.019        0.816        0.256      105.388       28.588        0.074      336.490        7.827      861.582
10/16/2014  03:38:00     -101.564       -7.577       -2.673       48.131       32.630       27.160     2316.609     1064.690      737.641        0.725        0.206      101.846       29.571        0.084      336.416        7.702      861.613
10/16/2014  03:39:00      -93.944        8.850       -3.560       35.349       28.584       20.559     1249.575      817.042      422.666        0.570        0.124       94.360       22.278        0.056      336.465        7.785      861.625
10/16/2014  03:40:00     -106.857      -43.081       -7.917       54.131       30.665       22.813     2930.173      940.370      520.419        0.886        0.220      115.215       19.468        0.029      336.559        7.942      861.638
10/16/2014  03:41:00     -125.669      -48.881       -7.648       52.958       34.124       25.038     2804.533     1164.418      626.878        1.142        0.230      134.841       26.545        0.039      336.530        7.895      861.663
10/16/2014  03:42:00      -72.323      -57.829        1.841       59.953       40.787       28.424     3594.374     1663.554      807.941        0.732        0.303       92.600       29.058        0.098      336.567        7.957      861.677
10/16/2014  03:43:00     -134.451      -76.050       -0.638       48.236       30.801       25.876     2326.707      948.682      669.577        1.390        0.197      154.469       22.617        0.021      336.631        8.064      861.670
10/16/2014  03:44:00      -97.762      -67.638       -7.720       52.023       38.003       22.150     2706.349     1444.238      490.624        0.942        0.232      118.880       19.240        0.026      336.561        7.947      861.656
10/16/2014  03:45:00      -96.103      -75.420       -9.680       43.886       39.544       22.345     1925.962     1563.703      499.293        0.950        0.199      122.164       21.105        0.030      336.562        7.947      861.642
10/16/2014  03:46:00      -86.281      -68.998       -0.613       64.614       35.317       24.474     4174.979     1247.310      598.964        0.911        0.301      110.477       31.870        0.083      336.577        7.974      861.643
10/16/2014  03:47:00      -72.032      -55.498       -3.676       36.692       32.631       24.812     1346.336     1064.759      615.643        0.565        0.151       90.932       16.074        0.031      336.636        8.072      861.633
10/16/2014  03:48:00     -111.566      -81.387       -9.510       20.631       22.922       13.865      425.649      525.419      192.241        1.015        0.057      138.097       11.715        0.007      336.664        8.120      861.617
10/16/2014  03:49:00      -68.296      -41.524        0.046       26.375       28.274       14.843      695.629      799.440      220.303        0.405        0.086       79.928       11.769        0.022      336.704        8.186      861.593
10/16/2014  03:50:00      -88.670      -61.605       -1.675       28.537       31.251       18.856      814.338      976.594      355.550        0.690        0.107      107.970       17.875        0.027      336.678        8.141      861.599
10/16/2014  03:51:00      -76.037      -52.325        0.466       41.354       33.408       22.453     1710.153     1116.093      504.131        0.592        0.167       92.302       18.204        0.039      336.697        8.173      861.603
10/16/2014  03:52:00      -59.461      -49.524       -0.195       36.034       33.405       20.438     1298.478     1115.879      417.696        0.441        0.142       77.384       18.241        0.056      336.642        8.082      861.621
10/16/2014  03:53:00      -90.161      -68.817        3.219       36.842       35.158       23.395     1357.323     1236.063      547.335        0.801        0.157      113.423       19.874        0.031      336.718        8.207      861.646
10/16/2014  03:54:00      -79.077      -48.035       -1.340       33.186       28.264       18.740     1101.311      798.876      351.181        0.541        0.113       92.523       19.230        0.043      336.674        8.136      861.645
10/16/2014  03:55:00      -72.663      -19.636      -10.835       14.125       19.009        9.405      199.521      361.336       88.445        0.322        0.032       75.269        8.129        0.012      336.674        8.134      861.612
10/16/2014  03:56:00      -45.052        1.881       -2.063        8.798       15.932        9.835       77.407      253.835       96.729        0.123        0.021       45.092        7.530        0.028      336.683        8.152      861.579
10/16/2014  03:57:00      -73.504      -11.825       -7.259        9.417       13.947        9.508       88.688      194.528       90.400        0.298        0.019       74.449        7.482        0.010      336.771        8.297      861.588
10/16/2014  03:58:00      -89.128      -19.324      -11.875       16.006       13.724        9.807      256.180      188.337       96.176        0.450        0.027       91.199        2.645        0.001      336.761        8.282      861.601
10/16/2014  03:59:00      -91.473      -26.892       -5.444       19.132       18.321       14.621      366.015      335.657      213.777        0.502        0.046       95.344       11.152        0.014      336.743        8.251      861.619
10/16/2014  04:00:00     -121.446      -32.909       -8.195       17.551       16.910       13.521      308.021      285.947      182.817        0.834        0.039      125.826        8.114        0.004      336.644        8.085      861.635
10/16/2014  04:01:00     -123.008      -67.065       -8.566       20.177       26.396       16.340      407.109      696.735      266.987        1.054        0.069      140.102       10.666        0.006      336.619        8.044      861.660
10/16/2014  04:02:00     -137.705      -50.234       -3.125       30.236       33.453       19.262      914.216     1119.072      371.032        1.195        0.120      146.581       15.155        0.011      336.585        7.986      861.676
10/16/2014  04:03:00      -94.553      -26.938       -2.227       43.003       32.469       20.116     1849.299     1054.228      404.671        0.649        0.165       98.315       22.529        0.053      336.548        7.924      861.681
10/16/2014  04:04:00      -80.786      -30.362        3.020       39.377       30.178       17.876     1550.541      910.708      319.552        0.512        0.139       86.303       19.663        0.052      336.513        7.865      861.682
10/16/2014  04:05:00     -132.947       -2.403      -14.056       39.818       28.881       25.860     1585.508      834.131      668.734        1.048        0.154      132.969       26.296        0.039      336.400        7.676      861.696
10/16/2014  04:06:00     -129.455        5.568      -15.248       41.171       32.981       26.209     1695.026     1087.728      686.930        1.025        0.173      129.574       24.303        0.035      336.369        7.624      861.714
10/16/2014  04:07:00     -116.300       -7.304       -7.777       29.543       28.601       21.783      872.791      818.005      474.483        0.790        0.108      116.529       20.821        0.032      336.320        7.542      861.714
10/16/2014  04:08:00     -139.815       -3.477      -12.605       25.143       23.554       17.849      632.167      554.778      318.569        1.061        0.075      139.858       15.326        0.012      336.307        7.521      861.717
10/16/2014  04:09:00      -97.155      -15.881      -11.380       21.918       21.585       18.279      480.415      465.913      334.135        0.555        0.064       98.444       18.303        0.035      336.295        7.499      861.714
10/16/2014  04:10:00      -77.377      -22.347        1.533       27.715       26.722       19.918      768.100      714.055      396.723        0.418        0.094       80.540       17.935        0.050      336.244        7.415      861.716
10/16/2014  04:11:00      -62.131      -34.422       -7.122       27.113       18.648       11.171      735.109      347.737      124.782        0.315        0.060       71.029        6.860        0.009      336.403        7.681      861.706
10/16/2014  04:12:00       -7.177      -20.023       -0.537       20.712       21.143       16.353      428.967      447.025      267.419        0.080        0.057       21.271       14.179        0.444      336.361        7.611      861.690
10/16/2014  04:13:00      -40.862      -20.665       -2.664       14.083       17.720       10.694      198.329      314.002      114.358        0.137        0.031       45.790        8.920        0.038      336.343        7.581      861.666
10/16/2014  04:14:00      -14.387      -13.300        4.399       10.448       13.421       13.092      109.156      180.110      171.406        0.043        0.023       19.593        8.057        0.169      336.363        7.613      861.638
10/16/2014  04:15:00      -53.425      -12.512       -6.356       15.050       12.332        8.550      226.506      152.070       73.097        0.175        0.023       54.870        6.827        0.015      336.366        7.620      861.620
10/16/2014  04:16:00      -63.572      -22.113       -7.870       10.766       12.248        9.635      115.901      150.003       92.841        0.248        0.018       67.309        5.034        0.006      336.420        7.710      861.620
10/16/2014  04:17:00      -62.766      -28.870      -10.506       12.019       11.910       10.215      144.460      141.844      104.344        0.264        0.020       69.087        5.562        0.006      336.418        7.706      861.604
10/16/2014  04:18:00      -52.005      -21.667       -3.576       11.490       11.636        9.195      132.022      135.397       84.542        0.177        0.018       56.338        4.883        0.008      336.438        7.740      861.583
10/16/2014  04:19:00      -50.027      -15.601       -9.155        6.886        8.482        7.371       47.415       71.944       54.336        0.150        0.009       52.403        3.150        0.004      336.442        7.747      861.564
10/16/2014  04:20:00      -44.774       -9.106       -8.964        9.425        8.773       10.208       88.825       76.958      104.200        0.122        0.013       45.691        4.623        0.010      336.472        7.798      861.558
10/16/2014  04:21:00      -59.966      -12.802       -5.941       10.161       11.633       11.362      103.243      135.320      129.105        0.208        0.018       61.318        5.545        0.008      336.487        7.821      861.547
10/16/2014  04:22:00      -37.930       -7.214       -4.869       10.600        9.923        8.748      112.366       98.472       76.534        0.090        0.014       38.610        6.161        0.025      336.468        7.790      861.545
10/16/2014  04:23:00      -29.496        2.331       -5.370        6.383       11.299        4.775       40.749      127.676       22.796        0.055        0.010       29.588        3.022        0.010      336.430        7.726      861.537
10/16/2014  04:24:00        0.709        6.934        6.426       23.160        6.625        8.953      536.403       43.889       80.152        0.038        0.033        6.970        9.523        1.867      336.501        7.847      861.516
10/16/2014  04:25:00       30.439       14.481        1.121        7.910       12.418       11.842       62.571      154.198      140.228        0.075        0.018       33.708        6.371        0.036      336.727        8.222      861.504
10/16/2014  04:26:00       12.301       -1.341        0.721       15.033       11.152       12.663      225.986      124.373      160.347        0.033        0.026       12.374        9.541        0.594      336.684        8.152      861.494
10/16/2014  04:27:00       -5.465        0.471       13.137        5.701        7.772        5.289       32.499       60.408       27.973        0.016        0.006        5.486        4.598        0.702      336.533        7.897      861.495
10/16/2014  04:28:00        3.801        7.307        3.826       13.662        8.931        5.745      186.655       79.763       33.001        0.019        0.015        8.236        2.399        0.085      336.501        7.846      861.506
10/16/2014  04:29:00      -32.401      -19.838        2.770       17.571       12.550        8.897      308.743      157.493       79.160        0.100        0.027       37.992        6.943        0.033      336.557        7.937      861.502
10/16/2014  04:30:00      -36.148      -21.736        3.544       23.371       10.752        9.120      546.222      115.598       83.170        0.127        0.037       42.180        5.302        0.016      336.520        7.878      861.496
10/16/2014  04:31:00      -34.018      -12.313        0.744       19.159       13.926       12.710      367.072      193.934      161.545        0.102        0.036       36.178       10.273        0.081      336.486        7.822      861.497
10/16/2014  04:32:00      -71.607      -35.523       -3.758       19.777       14.698        9.169      391.142      216.045       84.070        0.355        0.035       79.934        5.450        0.005      336.428        7.723      861.509
10/16/2014  04:33:00      -85.909      -43.501       -5.642       17.495       16.137       10.124      306.058      260.401      102.495        0.499        0.033       96.295        5.469        0.003      336.383        7.648      861.525
10/16/2014  04:34:00      -73.289      -17.816       -5.032       15.730       15.979       13.263      247.422      255.342      175.902        0.320        0.034       75.424        7.478        0.010      336.385        7.650      861.537
10/16/2014  04:35:00      -58.020      -12.195       -8.816       14.772       11.681       10.404      218.213      136.444      108.251        0.203        0.023       59.288        9.673        0.027      336.394        7.666      861.545
10/16/2014  04:36:00      -65.370       -0.051       -2.537       23.439       13.401       11.123      549.408      179.575      123.726        0.257        0.043       65.370        7.906        0.015      336.341        7.578      861.552
10/16/2014  04:37:00      -56.635      -15.611       -0.334       16.741       16.226       12.920      280.271      263.286      166.937        0.208        0.036       58.747       10.825        0.034      336.432        7.731      861.562
10/16/2014  04:38:00      -25.408      -15.392        3.704       26.848       14.404        8.413      720.816      207.466       70.781        0.095        0.050       29.707        9.076        0.093      336.386        7.653      861.580
10/16/2014  04:39:00      -25.660      -15.793        5.833       20.782       10.768       10.434      431.893      115.960      108.877        0.080        0.033       30.130        2.881        0.009      336.458        7.772      861.595
10/16/2014  04:40:00      -50.055      -24.361       -7.560       14.193        9.706        7.206      201.435       94.198       51.926        0.175        0.017       55.668        5.349        0.009      336.444        7.750      861.607
10/16/2014  04:41:00      -62.149      -17.717       -7.804        9.946       11.066       13.660       98.924      122.456      186.589        0.232        0.020       64.625        7.375        0.013      336.526        7.887      861.616
10/16/2014  04:42:00      -56.668      -15.241       -0.936       11.866       11.901        8.678      140.813      141.638       75.310        0.190        0.018       58.682        5.723        0.010      336.522        7.879      861.610
10/16/2014  04:43:00      -35.046      -20.681       -3.469       14.598       11.048        6.268      213.108      122.064       39.284        0.102        0.019       40.693        5.229        0.017      336.537        7.907      861.610
10/16/2014  04:44:00      -44.384      -13.418       -7.593        9.836        7.213        5.856       96.742       52.034       34.297        0.120        0.009       46.368        5.633        0.015      336.545        7.921      861.613
10/16/2014  04:45:00      -32.187      -10.300       -7.483        8.501        6.255        5.355       72.264       39.128       28.677        0.067        0.007       33.795        4.810        0.020      336.558        7.943      861.614
10/16/2014  04:46:00      -29.085      -10.773       -6.853        7.034        5.060        6.397       49.474       25.606       40.926        0.056        0.006       31.016        4.252        0.019      336.599        8.010      861.628
10/16/2014  04:47:00      -29.195      -14.254       -0.083        8.068        7.361        5.349       65.092       54.185       28.616        0.060        0.007       32.489        3.518        0.012      336.597        8.006      861.652
10/16/2014  04:48:00      -35.594       -3.177       -2.868        9.031        7.334        7.163       81.566       53.788       51.305        0.074        0.009       35.736        5.589        0.024      336.555        7.936      861.668
10/16/2014  04:49:00      -35.408      -10.005       -2.290       11.549        9.913        5.743      133.390       98.273       32.977        0.081        0.013       36.794        3.205        0.008      336.537        7.905      861.693
10/16/2014  04:50:00      -40.280        4.737        2.457       18.556        7.350        6.442      344.337       54.022       41.505        0.105        0.022       40.558        4.412        0.012      336.601        8.015      861.703
10/16/2014  04:51:00      -13.663       13.809       -3.037        9.039       10.235        8.988       81.696      104.758       80.787        0.033        0.013       19.426        5.679        0.085      336.569        7.960      861.717
10/16/2014  04:52:00       20.181       11.588        7.232       19.884       10.455        7.928      395.392      109.309       62.847        0.058        0.028       23.271        3.068        0.017      336.610        8.027      861.716
10/16/2014  04:53:00       50.888       26.692        6.586       19.935       18.421       16.068      397.392      339.322      258.181        0.217        0.050       57.463        6.315        0.012      336.529        7.891      861.710
10/16/2014  04:54:00       45.422       23.247        8.721       18.154       12.832       13.224      329.576      164.671      174.877        0.167        0.033       51.026        4.248        0.007      336.310        7.527      861.709
10/16/2014  04:55:00       13.048       21.811       31.521       16.476       14.271        9.393      271.470      203.671       88.219        0.110        0.028       25.416        9.372        0.136      336.365        7.618      861.707
10/16/2014  04:56:00       16.316       15.630       13.228       14.297       11.550       12.834      204.401      133.400      164.724        0.059        0.025       22.595       11.380        0.254      336.316        7.535      861.713
10/16/2014  04:57:00       20.200       18.140       13.922       14.183       11.611       11.524      201.144      134.809      132.808        0.070        0.023       27.149        9.258        0.116      336.323        7.547      861.728
10/16/2014  04:58:00       15.594       17.860        4.394        5.265        7.983        7.140       27.724       63.726       50.983        0.036        0.007       23.710        3.472        0.021      336.376        7.637      861.734
10/16/2014  04:59:00       20.622       20.705        0.849        8.119        8.928        8.922       65.918       79.708       79.594        0.054        0.011       29.223        5.483        0.035      336.357        7.607      861.735
10/16/2014  05:00:00        4.907       23.850       -3.590       14.459        9.414        4.492      209.064       88.624       20.179        0.046        0.016       24.349        4.242        0.030      336.372        7.629      861.729
10/16/2014  05:01:00      -15.511        1.425       -2.299       13.064        7.249        4.532      170.676       52.548       20.543        0.025        0.012       15.576        3.898        0.063      336.358        7.606      861.726
10/16/2014  05:02:00      -17.766        8.827       -2.818       10.278        6.087        4.884      105.644       37.052       23.853        0.028        0.008       19.838        2.094        0.011      336.377        7.637      861.717
10/16/2014  05:03:00      -29.058        4.889       -2.054        8.018        6.319        6.502       64.282       39.928       42.277        0.051        0.007       29.467        3.882        0.017      336.368        7.623      861.703
10/16/2014  05:04:00       -4.826        2.970        0.454        6.648        7.224        4.270       44.202       52.181       18.232        0.007        0.006        5.667        4.021        0.503      336.363        7.613      861.700
10/16/2014  05:05:00        5.461       13.431        5.755        8.639        5.723        5.194       74.626       32.753       26.973        0.019        0.007       14.499        4.401        0.092      336.350        7.591      861.704
10/16/2014  05:06:00       16.627       15.719        0.499        5.537        7.005        4.910       30.655       49.069       24.109        0.031        0.005       22.881        0.680        0.001      336.380        7.644      861.714
10/16/2014  05:07:00        1.835        5.477       -2.906        5.008        6.155        5.659       25.081       37.889       32.030        0.007        0.005        5.776        2.727        0.223      336.310        7.528      861.723
10/16/2014  05:08:00       14.836        4.846        2.937       13.080        8.646       10.223      171.095       74.761      104.502        0.030        0.018       15.608        8.457        0.294      336.353        7.599      861.727
10/16/2014  05:09:00       33.985       19.249        3.915       12.469        9.347       10.523      155.474       87.359      110.739        0.095        0.018       39.057        5.696        0.021      336.358        7.606      861.717
10/16/2014  05:10:00       21.258       18.432        4.568        8.157       10.218        8.682       66.529      104.406       75.381        0.053        0.012       28.136        5.003        0.032      336.374        7.633      861.720
10/16/2014  05:11:00       16.274       22.688       -0.804        8.741        7.454        4.470       76.405       55.562       19.979        0.047        0.008       27.921        2.796        0.010      336.462        7.777      861.725
10/16/2014  05:12:00       -6.419       11.880       -2.175       10.365        7.777        3.548      107.429       60.475       12.586        0.018        0.009       13.503        4.038        0.089      336.512        7.866      861.736
10/16/2014  05:13:00      -14.284        7.044       -0.101        6.075        7.022        2.869       36.908       49.305        8.233        0.017        0.005       15.926        2.672        0.028      336.504        7.851      861.763
10/16/2014  05:14:00      -41.633        9.445       -7.941       11.922        9.677        7.206      142.140       93.650       51.930        0.109        0.014       42.691        7.846        0.034      336.388        7.658      861.787
10/16/2014  05:15:00      -52.482        4.804       -9.711        7.940        9.261        5.582       63.043       85.773       31.157        0.153        0.009       52.701        2.791        0.003      336.380        7.642      861.796
10/16/2014  05:16:00      -57.738       -1.300       -5.846       11.092       13.054        7.828      123.030      170.395       61.280        0.186        0.018       57.753        6.162        0.011      336.327        7.556      861.803
10/16/2014  05:17:00      -34.137       12.827       -2.560        7.187       10.333        7.041       51.648      106.767       49.579        0.077        0.010       36.468        3.219        0.008      336.357        7.606      861.802
10/16/2014  05:18:00      -37.134       14.341       -4.479        6.650        8.165        4.274       44.221       66.662       18.271        0.087        0.006       39.807        2.414        0.004      336.496        7.836      861.798
10/16/2014  05:19:00      -24.268        5.903        7.549        8.572       11.563        8.089       73.483      133.710       65.440        0.048        0.014       24.975        4.703        0.035      336.545        7.920      861.796
10/16/2014  05:20:00      -10.333      -21.149       -0.973        9.610        7.390        7.569       92.355       54.609       57.294        0.038        0.010       23.538        4.852        0.042      336.426        7.719      861.803
10/16/2014  05:21:00       -1.034      -18.089        7.918        4.509        6.234        5.166       20.330       38.858       26.692        0.024        0.004       18.119        3.125        0.030      336.443        7.748      861.807
10/16/2014  05:22:00       -6.186        1.737        2.911        6.858        3.798        3.610       47.025       14.425       13.032        0.006        0.004        6.426        3.692        0.330      336.417        7.704      861.797
10/16/2014  05:23:00       -7.294        1.065       -1.163        4.866        2.988        2.874       23.677        8.928        8.259        0.005        0.002        7.371        2.261        0.094      336.437        7.739      861.792
10/16/2014  05:24:00      -24.969       -1.529       -1.464        6.639        3.998        4.665       44.073       15.988       21.766        0.035        0.004       25.016        2.415        0.009      336.464        7.782      861.779
10/16/2014  05:25:00      -44.302      -19.924       -2.574        9.007       10.338        6.683       81.125      106.872       44.659        0.130        0.012       48.576        2.659        0.003      336.455        7.769      861.782
10/16/2014  05:26:00      -24.128      -14.348        3.666       20.312       11.008       11.572      412.598      121.183      133.906        0.073        0.033       28.072       11.224        0.160      336.350        7.593      861.782
10/16/2014  05:27:00      -19.924      -11.512        5.166       16.256       12.438       11.985      264.248      154.693      143.643        0.056        0.028       23.010       10.741        0.218      336.254        7.431      861.781
10/16/2014  05:28:00      -39.045      -20.382        0.702       15.893       11.746        8.724      252.591      137.976       76.101        0.120        0.023       44.045        9.199        0.044      336.308        7.524      861.780
10/16/2014  05:29:00      -50.336      -21.100       -4.993       15.111       11.637        9.880      228.343      135.417       97.608        0.173        0.023       54.579        6.227        0.013      336.336        7.569      861.774
10/16/2014  05:30:00      -46.290      -26.347       -9.506       14.324       11.532        8.350      205.189      132.979       69.720        0.167        0.020       53.263        5.932        0.012      336.342        7.580      861.760
10/16/2014  05:31:00      -63.652      -15.028       -6.663       19.092       16.918        8.222      364.491      286.218       67.595        0.252        0.036       65.402        9.681        0.022      336.355        7.600      861.742
10/16/2014  05:32:00      -48.282      -18.525       -3.800       16.898       13.033        8.772      285.526      169.858       76.952        0.161        0.027       51.714        5.567        0.012      336.347        7.589      861.726
10/16/2014  05:33:00      -40.296       -8.068       -3.354       10.975       17.213        6.625      120.445      296.289       43.891        0.108        0.023       41.096        5.980        0.021      336.371        7.626      861.706
10/16/2014  05:34:00      -53.309       18.141      -10.242        8.443        6.448        6.412       71.283       41.581       41.115        0.171        0.008       56.311        3.749        0.004      336.268        7.454      861.688
10/16/2014  05:35:00      -36.919       10.784       -9.282        8.178        7.093        5.368       66.879       50.307       28.818        0.086        0.007       38.462        3.786        0.010      336.263        7.448      861.682
10/16/2014  05:36:00      -45.943        8.956       -8.218       15.287        7.613        5.796      233.702       57.952       33.593        0.129        0.016       46.807        4.223        0.008      336.224        7.384      861.667
10/16/2014  05:37:00      -53.428       -7.260       -5.238       10.425        7.799        5.954      108.682       60.824       35.449        0.157        0.010       53.919        1.741        0.001      336.210        7.360      861.646
10/16/2014  05:38:00      -53.144      -15.974       -9.453       12.377       15.141        9.298      153.188      229.247       86.449        0.182        0.023       55.493        4.448        0.006      336.064        7.114      861.616
10/16/2014  05:39:00      -41.329      -16.999       -3.113       13.173       17.119        9.593      173.535      293.063       92.027        0.128        0.028       44.688        6.843        0.023      336.055        7.100      861.588
10/16/2014  05:40:00      -27.835       -8.997       -0.988       16.551       13.821        8.080      273.928      191.013       65.283        0.069        0.027       29.253        4.319        0.022      336.040        7.073      861.571
10/16/2014  05:41:00      -40.828       -6.348       -5.592       13.402        9.179        6.838      179.618       84.262       46.756        0.102        0.016       41.318        6.370        0.024      336.040        7.075      861.572
10/16/2014  05:42:00      -57.050      -14.565      -11.420       11.217       12.005        8.988      125.821      144.130       80.778        0.197        0.018       58.880        8.697        0.022      336.038        7.072      861.574
10/16/2014  05:43:00      -59.813       -4.724      -11.388       15.322        9.471        8.981      234.772       89.701       80.667        0.207        0.020       59.999        8.167        0.019      335.924        6.882      861.578
10/16/2014  05:44:00      -61.570       -7.112      -15.548       11.497       11.298        7.161      132.189      127.645       51.280        0.220        0.016       61.979        5.770        0.009      335.869        6.789      861.585
10/16/2014  05:45:00      -37.557       -5.368       -9.609       13.806       12.065        8.603      190.602      145.576       74.010        0.097        0.021       37.939        6.985        0.034      335.891        6.828      861.585
10/16/2014  05:46:00      -40.888        4.903       -6.759       13.150       11.295        7.283      172.914      127.585       53.043        0.105        0.018       41.181        5.538        0.018      336.034        7.065      861.594
10/16/2014  05:47:00      -56.333       18.682       -4.762       14.357       24.322       12.126      206.129      591.535      147.038        0.224        0.047       59.350        8.193        0.019      336.150        7.258      861.598
10/16/2014  05:48:00      -51.316       22.471       -4.971       21.803       22.864       16.448      475.354      522.769      270.521        0.222        0.063       56.020        5.488        0.010      336.188        7.321      861.605
10/16/2014  05:49:00      -32.814       -0.789       -9.053       16.528       21.579       11.087      273.171      465.650      122.932        0.101        0.043       32.823        7.097        0.047      336.099        7.173      861.610
10/16/2014  05:50:00      -57.592      -14.441      -14.604       29.279       16.322       15.956      857.277      266.395      254.603        0.256        0.069       59.375       15.022        0.064      335.883        6.813      861.602
10/16/2014  05:51:00      -85.517       -5.932      -22.269       32.522       17.989       15.206     1057.682      323.622      231.216        0.473        0.081       85.723       14.916        0.030      335.789        6.658      861.601
10/16/2014  05:52:00     -107.707       -0.217      -19.106       34.844       31.155       21.107     1214.077      970.635      445.488        0.730        0.132      107.708       14.587        0.018      335.743        6.581      861.614
10/16/2014  05:53:00     -109.981       -4.679      -15.539       34.687       32.034       24.030     1203.177     1026.165      577.454        0.758        0.140      110.081       16.243        0.022      335.717        6.538      861.640
10/16/2014  05:54:00     -122.541        6.371      -12.394       60.223       31.423       24.879     3626.773      987.398      618.941        1.022        0.262      122.707       21.661        0.031      335.650        6.426      861.682
10/16/2014  05:55:00     -113.192      -10.441       -7.968       72.654       41.098       20.819     5278.659     1689.039      433.441        1.019        0.370      113.673       25.131        0.049      335.618        6.373      861.724
10/16/2014  05:56:00     -174.325       10.685      -14.616       34.474       33.722       30.354     1188.489     1137.173      921.370        1.698        0.162      174.652       23.486        0.018      335.590        6.325      861.756
10/16/2014  05:57:00     -172.999       13.048      -16.185       32.998       28.838       19.476     1088.869      831.613      379.319        1.633        0.115      173.491       16.303        0.009      335.644        6.416      861.764
10/16/2014  05:58:00     -160.832       38.842      -11.395       45.848       28.086       20.583     2102.012      788.844      423.643        1.541        0.166      165.455       23.122        0.020      335.671        6.461      861.742
10/16/2014  05:59:00     -182.059       23.746      -16.661       21.439       32.335       14.239      459.623     1045.567      202.759        1.785        0.085      183.601       13.283        0.005      335.739        6.574      861.736
10/16/2014  06:00:00     -132.174      -11.285      -13.625       51.084       30.111       21.314     2609.525      906.679      454.283        1.088        0.199      132.655       24.693        0.035      335.717        6.537      861.746
10/16/2014  06:01:00     -132.021       -5.878      -10.063       35.694       24.648       23.173     1274.046      607.527      536.970        0.999        0.121      132.152       23.623        0.032      335.754        6.598      861.755
10/16/2014  06:02:00      -83.595        0.938       -4.892       32.440       33.733       17.968     1052.385     1137.907      322.856        0.476        0.126       83.600       12.782        0.023      335.801        6.676      861.773
10/16/2014  06:03:00     -103.539       -3.002      -12.677       24.241       26.567       15.635      587.641      705.788      244.445        0.621        0.077      103.583       10.992        0.011      335.836        6.734      861.804
10/16/2014  06:04:00      -81.897       -6.902      -15.473       20.606       28.864       14.734      424.588      833.136      217.083        0.423        0.074       82.187       11.979        0.021      335.885        6.817      861.821
10/16/2014  06:05:00     -114.799        7.680      -16.547       19.260       22.982       16.792      370.937      528.158      281.959        0.735        0.059      115.055       10.066        0.008      335.907        6.853      861.840
10/16/2014  06:06:00     -104.728        1.364      -12.460       31.768       23.275       18.543     1009.216      541.737      343.855        0.651        0.095      104.737       15.646        0.022      335.857        6.770      861.853
10/16/2014  06:07:00     -143.195       20.537       -9.402       29.846       21.928       18.435      890.796      480.822      339.839        1.136        0.086      144.660       16.482        0.013      335.903        6.846      861.854
10/16/2014  06:08:00     -150.472       22.913      -13.539       16.817       19.161       13.252      282.827      367.161      175.618        1.209        0.041      152.206        8.747        0.003      335.881        6.810      861.871
10/16/2014  06:09:00     -107.028       -6.766       -8.421       32.662       33.004       21.542     1066.798     1089.294      464.040        0.710        0.131      107.241       17.167        0.026      335.861        6.775      861.899
10/16/2014  06:10:00     -114.444       -4.992       -5.935       36.954       25.519       20.984     1365.607      651.230      440.339        0.781        0.123      114.553       19.116        0.028      335.876        6.801      861.914
10/16/2014  06:11:00     -120.755       -0.924      -15.907       41.130       30.163       21.693     1691.699      909.830      470.604        0.895        0.154      120.759       22.054        0.033      335.895        6.833      861.926
10/16/2014  06:12:00     -119.065       -0.443      -13.684       27.324       26.586       15.923      746.591      706.799      253.548        0.804        0.085      119.066        9.440        0.006      335.899        6.840      861.936
10/16/2014  06:13:00      -78.655        0.536      -14.193       29.723       24.992       16.733      883.479      624.598      280.010        0.409        0.089       78.657       12.145        0.024      335.936        6.901      861.939
10/16/2014  06:14:00      -74.434      -23.432      -10.991       28.513       26.888       17.582      812.996      722.941      309.119        0.403        0.092       78.035       14.810        0.036      335.939        6.907      861.922
10/16/2014  06:15:00      -75.848      -21.228       -6.966       36.218       30.786       15.803     1311.726      947.765      249.733        0.438        0.125       78.762       13.125        0.028      335.871        6.794      861.914
10/16/2014  06:16:00     -111.847        3.685       -6.312       48.090       22.973       20.935     2312.667      527.752      438.277        0.792        0.164      111.908       22.412        0.040      335.822        6.713      861.898
10/16/2014  06:17:00     -105.816       -2.457       -9.241       31.335       18.174       18.142      981.877      330.311      329.144        0.646        0.082      105.845       17.531        0.027      335.867        6.786      861.893
10/16/2014  06:18:00      -80.455        0.681       -1.324       29.919       21.611       19.713      895.161      467.043      388.601        0.411        0.088       80.458       17.376        0.047      335.894        6.831      861.886
10/16/2014  06:19:00      -78.322      -13.020       -8.090       21.792       24.345       15.917      474.885      592.660      253.351        0.384        0.066       79.397       12.066        0.023      335.977        6.969      861.869
10/16/2014  06:20:00      -84.566      -10.987      -12.104       34.415       23.248       14.544     1184.388      540.476      211.518        0.468        0.097       85.277       13.056        0.023      336.089        7.156      861.845
10/16/2014  06:21:00      -89.146       -5.147       -8.125       43.265       29.065       22.488     1871.873      844.783      505.698        0.563        0.161       89.295       24.097        0.073      336.301        7.510      861.825
10/16/2014  06:22:00      -85.173       -0.269      -12.029       34.791       37.015       23.076     1210.413     1370.130      532.514        0.526        0.156       85.174       18.851        0.049      336.366        7.619      861.822
10/16/2014  06:23:00     -149.413       17.486       -9.746       59.041       31.379       29.294     3485.879      984.644      858.160        1.403        0.266      150.433       29.129        0.037      336.284        7.483      861.841
10/16/2014  06:24:00     -173.808       19.493      -16.910       34.183       29.541       23.387     1168.497      872.653      546.931        1.673        0.129      174.898       19.707        0.013      336.117        7.203      861.872
10/16/2014  06:25:00     -129.791       -6.771      -12.571       47.621       40.517       23.024     2267.735     1641.635      530.108        1.074        0.222      129.968       22.271        0.029      335.981        6.976      861.885
10/16/2014  06:26:00     -112.429        2.091       -6.114       56.808       50.826       24.752     3227.128     2583.282      612.681        0.955        0.321      112.449       23.662        0.044      335.945        6.916      861.895
10/16/2014  06:27:00     -128.519        8.220      -11.987       40.388       28.821       24.674     1631.210      830.678      608.819        0.990        0.154      128.781       19.236        0.022      336.008        7.022      861.896
10/16/2014  06:28:00     -127.574       25.657      -17.347       30.492       30.339       19.977      929.782      920.474      399.068        0.974        0.112      130.128       18.817        0.021      336.014        7.031      861.895
10/16/2014  06:29:00     -112.232        3.921      -13.254       36.696       40.527       25.982     1346.579     1642.451      675.073        0.822        0.183      112.301       23.294        0.043      336.025        7.049      861.886
10/16/2014  06:30:00     -150.787       25.685      -22.660       27.039       27.785       20.092      731.091      771.993      403.675        1.291        0.095      152.959       14.653        0.009      336.019        7.038      861.886
10/16/2014  06:31:00     -166.976       13.890      -20.197       24.351       28.024       18.150      592.987      785.353      329.428        1.509        0.085      167.552       12.397        0.005      335.943        6.914      861.885
10/16/2014  06:32:00     -123.742       -1.347      -11.753       40.800       29.088       22.256     1664.650      846.117      495.339        0.923        0.150      123.749       20.224        0.027      335.900        6.841      861.881
10/16/2014  06:33:00     -118.096       -4.371      -11.391       28.712       29.504       18.459      824.394      870.509      340.717        0.807        0.102      118.177       16.318        0.019      335.920        6.874      861.885
10/16/2014  06:34:00      -82.449      -11.098       -4.130       53.725       38.364       24.831     2886.425     1471.769      616.594        0.596        0.249       83.192       24.589        0.087      335.848        6.756      861.899
10/16/2014  06:35:00      -33.369        2.316       -4.111       31.339       21.662       24.842      982.118      469.233      617.104        0.160        0.103       33.449       23.329        0.486      335.840        6.742      861.908
10/16/2014  06:36:00      -38.792      -14.073      -14.105       25.476       24.887       18.913      649.012      619.378      357.697        0.176        0.081       41.265       16.818        0.166      335.893        6.830      861.915
10/16/2014  06:37:00      -22.551       -1.153       -0.645       22.769       17.759       14.011      518.422      315.367      196.299        0.077        0.052       22.581       13.891        0.378      335.955        6.932      861.911
10/16/2014  06:38:00      -63.691       -9.965       -5.805       35.487       21.084       19.622     1259.349      444.540      385.026        0.314        0.104       64.466       20.436        0.100      335.902        6.845      861.905
10/16/2014  06:39:00     -105.614       -9.737       -7.903       20.617       14.060       12.335      425.050      197.672      152.155        0.604        0.039      106.062        8.714        0.007      335.937        6.902      861.893
10/16/2014  06:40:00      -77.855      -11.730       -8.458       24.952       18.643       16.908      622.612      347.570      285.886        0.376        0.063       78.734       15.814        0.040      335.909        6.858      861.889
10/16/2014  06:41:00      -37.708       -9.255       -8.636       37.054       24.291       19.534     1373.007      590.047      381.560        0.196        0.117       38.827       20.415        0.276      335.960        6.942      861.890
10/16/2014  06:42:00      -34.786       -1.806      -13.623       33.116       33.099       16.609     1096.657     1095.566      275.872        0.193        0.123       34.833       12.620        0.131      336.018        7.037      861.890
10/16/2014  06:43:00      -59.632       -3.168       -6.050       51.197       27.508       23.643     2621.133      756.689      558.992        0.377        0.197       59.716       23.988        0.161      335.966        6.952      861.893
10/16/2014  06:44:00     -130.737       -5.543      -18.085       33.890       21.123       17.840     1148.536      446.161      318.273        0.968        0.096      130.855       17.534        0.018      335.935        6.899      861.893
10/16/2014  06:45:00     -133.510       -4.114       -7.909       42.162       22.967       21.513     1777.600      527.482      462.818        1.034        0.138      133.573       23.006        0.030      335.910        6.857      861.888
10/16/2014  06:46:00     -138.599      -13.370      -16.111       33.717       18.742       18.549     1136.803      351.255      344.048        1.074        0.092      139.242       16.675        0.014      335.934        6.898      861.881
10/16/2014  06:47:00     -103.191      -13.622       -8.645       25.781       22.248       16.660      664.685      494.971      277.552        0.617        0.072      104.086       12.135        0.014      336.004        7.014      861.870
10/16/2014  06:48:00      -94.185      -14.098      -10.058       21.197       21.909       14.005      449.304      480.013      196.141        0.515        0.056       95.234       12.841        0.018      336.043        7.081      861.862
10/16/2014  06:49:00      -99.396       -5.044      -11.180       17.927       19.031       12.297      321.394      362.170      151.225        0.543        0.042       99.524        8.444        0.007      336.052        7.094      861.839
10/16/2014  06:50:00      -57.339      -16.463       -1.111       32.929       23.804       15.285     1084.292      566.648      233.618        0.272        0.094       59.656       16.581        0.077      336.041        7.076      861.824
10/16/2014  06:51:00      -45.454       -2.464       -1.095       30.454       24.394       16.626      927.424      595.059      276.417        0.194        0.090       45.521       16.624        0.133      336.039        7.072      861.805
10/16/2014  06:52:00      -24.557        5.104       -5.123       31.873       19.125       11.698     1015.884      365.765      136.839        0.109        0.076       25.082       10.128        0.163      336.096        7.168      861.784
10/16/2014  06:53:00      -11.312       -6.846        5.930       12.750       22.634       15.731      162.569      512.305      247.457        0.057        0.046       13.222       11.093        0.704      336.106        7.183      861.767
10/16/2014  06:54:00      -44.473       -3.229       -0.124       21.081       26.893       12.600      444.410      723.224      158.766        0.166        0.066       44.590        7.344        0.027      336.083        7.146      861.755
10/16/2014  06:55:00     -105.314       20.205       -6.115       25.451       18.915       14.735      647.767      357.771      217.126        0.638        0.061      107.234       10.685        0.010      336.064        7.113      861.745
10/16/2014  06:56:00      -87.023        3.776       -6.909       26.817       24.076       14.463      719.178      579.660      209.170        0.457        0.075       87.105       11.879        0.019      336.080        7.138      861.752
10/16/2014  06:57:00      -44.208      -27.623       -4.974       19.537       18.387       10.430      381.693      338.080      108.784        0.179        0.041       52.128        6.615        0.016      336.103        7.180      861.760
10/16/2014  06:58:00      -38.935        1.209       -7.140       13.974       10.868        7.307      195.273      118.107       53.386        0.097        0.018       38.953        3.356        0.007      336.231        7.393      861.773
10/16/2014  06:59:00      -40.633       -9.722      -12.135       14.865       17.556       14.605      220.957      308.197      213.311        0.132        0.037       41.780        8.180        0.038      336.267        7.453      861.804
10/16/2014  07:00:00      -71.025      -18.122       -9.163       11.273       13.121        8.360      127.074      172.153       69.885        0.291        0.018       73.301        3.044        0.002      336.126        7.219      861.830
10/16/2014  07:01:00      -55.007      -10.835       -6.488       12.960       15.014        8.124      167.966      225.434       65.993        0.182        0.023       56.064        6.369        0.013      336.178        7.305      861.856
10/16/2014  07:02:00      -45.680      -26.680       -8.374       12.071       13.929       11.454      145.717      194.022      131.197        0.167        0.024       52.901        7.989        0.023      336.167        7.285      861.864
10/16/2014  07:03:00      -35.007      -28.976       -1.924       16.142       13.849       14.081      260.577      191.790      198.261        0.136        0.033       45.443        8.352        0.034      336.191        7.326      861.873
10/16/2014  07:04:00      -75.867      -29.128       -9.336       10.977        6.960        7.583      120.499       48.445       57.504        0.346        0.011       81.266        5.397        0.004      336.133        7.228      861.892
10/16/2014  07:05:00      -88.840      -22.751       -9.909        6.015        8.800        6.813       36.180       77.442       46.416        0.433        0.008       91.707        2.599        0.001      336.155        7.266      861.908
10/16/2014  07:06:00      -70.006      -37.004       -8.829       15.260        9.826        7.850      232.872       96.546       61.622        0.337        0.020       79.184        5.420        0.005      336.172        7.292      861.931
10/16/2014  07:07:00      -26.718      -23.664        9.074       26.460       17.958       12.686      700.122      322.494      160.939        0.127        0.059       35.691       13.588        0.145      336.176        7.302      861.953
10/16/2014  07:08:00      -59.471      -47.875       -4.134       27.830       29.103       15.602      774.516      847.008      243.438        0.386        0.093       76.347       10.071        0.017      336.199        7.341      861.965
10/16/2014  07:09:00      -77.817      -85.288       -8.416       34.634       27.823       19.826     1199.545      774.093      393.090        0.788        0.118      115.453        8.638        0.006      336.245        7.417      861.968
10/16/2014  07:10:00      -36.172      -17.620       -3.929       17.889       21.294       18.393      320.033      453.424      338.301        0.137        0.056       40.235       10.030        0.062      336.226        7.384      861.961
10/16/2014  07:11:00      -13.021      -34.736       -4.221       29.500       32.901       18.742      870.260     1082.460      351.248        0.185        0.115       37.097       11.786        0.101      336.114        7.197      861.952
10/16/2014  07:12:00      -59.469      -17.427       -7.695       33.955       19.287       15.359     1152.935      372.005      235.911        0.283        0.088       61.970        9.975        0.026      336.048        7.088      861.933
10/16/2014  07:13:00      -37.243       -8.761      -13.391       22.967       16.893        9.612      527.472      285.374       92.383        0.127        0.045       38.260        8.453        0.049      336.056        7.101      861.924
10/16/2014  07:14:00      -59.240      -53.681       -7.975       21.929       35.101       15.347      480.888     1232.110      235.542        0.420        0.097       79.944        8.996        0.013      336.073        7.129      861.918
10/16/2014  07:15:00      -33.815      -22.741       -1.279       50.439       26.841       15.092     2544.047      720.424      227.761        0.258        0.175       40.750       17.534        0.185      336.044        7.081      861.916
10/16/2014  07:16:00     -100.245      -73.011        2.412       37.917       39.971       22.125     1437.710     1597.716      489.528        0.945        0.176      124.014       18.606        0.023      336.025        7.050      861.911
10/16/2014  07:17:00      -72.912      -60.771        3.117       43.794       35.774       20.269     1917.922     1279.768      410.817        0.631        0.180       94.917       17.204        0.033      336.021        7.043      861.917
10/16/2014  07:18:00      -53.273      -43.544        6.453       40.424       23.822       21.042     1634.136      567.472      442.771        0.371        0.132       68.804       20.392        0.088      336.074        7.131      861.912
10/16/2014  07:19:00      -35.355      -32.672       -5.624       30.706       18.721       16.277      942.829      350.492      264.956        0.195        0.078       48.140        9.656        0.040      336.074        7.130      861.895
10/16/2014  07:20:00      -34.107       -3.858        5.610       31.146       15.010       12.826      970.093      225.312      164.507        0.128        0.068       34.324       11.383        0.110      336.019        7.041      861.884
10/16/2014  07:21:00      -58.381      -11.294       -4.274       13.272       10.528        7.152      176.155      110.835       51.149        0.195        0.017       59.463        5.456        0.008      336.001        7.010      861.871
10/16/2014  07:22:00      -19.330       -3.261        4.079       10.186       10.450        7.170      103.749      109.208       51.409        0.033        0.013       19.603        5.979        0.093      336.058        7.105      861.866
10/16/2014  07:23:00      -25.072      -16.435        0.521       18.641       12.534       11.336      347.504      157.099      128.502        0.077        0.032       29.978       11.259        0.141      336.081        7.142      861.857
10/16/2014  07:24:00      -48.742      -27.762       -1.610       15.096       13.729        8.552      227.881      188.495       73.141        0.182        0.024       56.093        5.942        0.011      336.058        7.105      861.857
10/16/2014  07:25:00      -27.595      -16.721        3.013       26.761       18.286       11.451      716.132      334.388      131.118        0.112        0.059       32.265       10.357        0.103      336.083        7.146      861.863
10/16/2014  07:26:00      -63.709       -8.250       -3.241       15.476       17.208       12.949      239.498      296.117      167.669        0.242        0.035       64.241        9.422        0.022      336.026        7.052      861.867
10/16/2014  07:27:00      -69.909       15.446       -6.783       16.261       13.251        9.318      264.422      175.580       86.827        0.285        0.026       71.595        8.317        0.013      336.020        7.040      861.888
10/16/2014  07:28:00      -79.185       16.688       -9.235       18.096       11.166        9.599      327.466      124.682       92.139        0.359        0.027       80.925        5.489        0.005      336.023        7.045      861.901
10/16/2014  07:29:00      -86.991        8.839       -7.809       13.144       14.489       10.218      172.763      209.927      104.403        0.410        0.024       87.439        7.718        0.008      336.051        7.093      861.916
10/16/2014  07:30:00      -83.058       -8.825       -8.200       19.274       17.915       13.262      371.483      320.931      175.888        0.396        0.043       83.526       10.589        0.016      336.038        7.071      861.933
10/16/2014  07:31:00      -73.872       -6.485       -6.006       40.310       18.274       18.347     1624.911      333.955      336.595        0.391        0.115       74.156       20.384        0.076      335.909        6.856      861.943
10/16/2014  07:32:00      -84.668        8.690      -15.964       26.198       16.642       16.074      686.317      276.959      258.358        0.436        0.061       85.113       12.260        0.021      335.893        6.832      861.939
10/16/2014  07:33:00      -57.179       13.967      -12.012       18.870       21.445       14.477      356.059      459.879      209.598        0.232        0.051       58.861        7.032        0.014      335.933        6.897      861.932
10/16/2014  07:34:00      -35.314        2.999      -12.089       14.310       13.972        8.846      204.778      195.213       78.256        0.094        0.024       35.441        9.914        0.078      335.986        6.983      861.927
10/16/2014  07:35:00      -46.800        3.837       -7.364       12.474       13.517       10.274      155.591      182.706      105.561        0.135        0.022       46.957        7.648        0.027      335.982        6.978      861.927
10/16/2014  07:36:00      -37.735       -5.975       -6.545       12.287       12.577        9.968      150.972      158.168       99.368        0.096        0.020       38.205        5.701        0.022      336.085        7.150      861.930
10/16/2014  07:37:00      -37.689       10.322       -4.926       12.306       10.874        9.490      151.426      118.245       90.064        0.096        0.018       39.077        5.881        0.023      336.068        7.121      861.942
10/16/2014  07:38:00      -54.840        2.674      -14.148       18.404       19.104       12.490      338.701      364.944      155.988        0.204        0.043       54.905        5.840        0.011      335.982        6.978      861.967
10/16/2014  07:39:00      -78.482       -7.489      -13.274       35.468       18.677       12.679     1257.991      348.843      160.763        0.408        0.088       78.838        9.840        0.016      336.009        7.023      861.986
10/16/2014  07:40:00     -101.707      -24.150      -17.708       16.384       11.629        9.616      268.445      135.231       92.475        0.587        0.025      104.535        8.903        0.007      335.935        6.901      862.005
10/16/2014  07:41:00      -59.365      -31.949       -7.232       32.170       17.982       11.193     1034.929      323.341      125.293        0.304        0.074       67.417        8.930        0.018      336.012        7.028      862.018
10/16/2014  07:42:00      -21.084        1.815        3.765       27.091       16.900       14.884      733.931      285.620      221.544        0.085        0.062       21.162       14.257        0.454      336.027        7.053      862.037
10/16/2014  07:43:00      -67.138       -9.137       -5.450       31.393       19.377       19.398      985.535      375.483      376.291        0.318        0.087       67.757       18.723        0.076      336.037        7.069      862.063
10/16/2014  07:44:00      -48.122      -13.060       -5.700       32.258       27.549       17.039     1040.562      758.956      290.324        0.230        0.104       49.863       15.747        0.100      336.088        7.155      862.091
10/16/2014  07:45:00     -115.240       -3.732      -10.577       27.999       25.710       24.694      783.971      660.987      609.785        0.773        0.103      115.300       20.882        0.033      335.937        6.904      862.115
10/16/2014  07:46:00     -107.466        6.895      -12.993       42.049       24.702       24.070     1768.126      610.210      579.389        0.736        0.148      107.687       21.812        0.041      335.900        6.841      862.119
10/16/2014  07:47:00     -123.749        0.923      -18.482       26.460       23.737       18.170      700.121      563.431      330.143        0.862        0.080      123.753       11.216        0.008      335.885        6.816      862.126
10/16/2014  07:48:00      -98.456        2.253      -12.888       32.207       25.461       21.605     1037.259      648.262      466.766        0.601        0.108       98.482       18.149        0.034      335.888        6.821      862.140
10/16/2014  07:49:00     -135.831        7.460      -16.397       30.096       27.295       18.882      905.787      745.034      356.534        1.039        0.100      136.035       10.540        0.006      335.894        6.831      862.154
10/16/2014  07:50:00     -117.717       -1.083       -4.459       42.352       29.031       24.285     1793.732      842.816      589.778        0.855        0.161      117.722       26.891        0.052      335.897        6.836      862.168
10/16/2014  07:51:00     -129.527       -3.105      -16.338       22.434       23.665       16.213      503.298      560.030      262.866        0.919        0.066      129.564       12.706        0.010      335.879        6.809      862.189
10/16/2014  07:52:00     -103.904       -2.586       -9.661       20.756       22.187       15.499      430.827      492.270      240.204        0.603        0.058      103.937        9.708        0.009      335.885        6.816      862.189
10/16/2014  07:53:00      -79.355      -15.767       -3.825       24.289       19.810       13.489      589.962      392.432      181.953        0.386        0.058       80.906        6.616        0.007      335.985        6.984      862.189
10/16/2014  07:54:00      -87.930       -9.569       -8.293       23.661       21.958       14.142      559.846      482.134      199.992        0.457        0.062       88.449        8.865        0.010      335.970        6.958      862.171
10/16/2014  07:55:00      -77.812       -9.773       -5.910       27.318       19.911       12.360      746.294      396.433      152.761        0.374        0.065       78.423       12.564        0.026      335.959        6.940      862.165
10/16/2014  07:56:00     -104.354       -9.333      -12.067       24.387       24.043       16.544      594.709      578.063      273.709        0.628        0.072      104.771       14.784        0.020      335.966        6.952      862.180
10/16/2014  07:57:00     -146.400        0.479      -15.969       34.811       14.459       18.461     1211.779      209.054      340.802        1.172        0.088      146.400       16.246        0.012      335.961        6.942      862.210
10/16/2014  07:58:00     -131.045        9.923      -16.930       34.388       22.238       21.333     1182.559      494.546      455.078        0.984        0.107      131.420       20.895        0.025      335.975        6.968      862.241
10/16/2014  07:59:00     -146.326       16.138      -12.921       31.021       25.886       21.498      962.326      670.080      462.169        1.197        0.105      147.214       18.434        0.016      335.974        6.964      862.260
10/16/2014  08:00:00     -144.809        8.329      -15.915       29.119       25.542       17.595      847.891      652.383      309.576        1.155        0.090      145.048       11.352        0.006      335.980        6.972      862.288
10/16/2014  08:01:00     -135.623       11.679      -15.134       34.624       22.395       20.999     1198.806      501.543      440.943        1.045        0.107      136.125       16.827        0.015      336.009        7.023      862.327
10/16/2014  08:02:00     -126.011        1.996      -16.434       24.358       27.061       18.063      593.292      732.310      326.267        0.890        0.083      126.027       12.342        0.010      336.105        7.183      862.356
10/16/2014  08:03:00     -107.064       -1.172      -12.537       34.899       32.811       18.510     1217.945     1076.531      342.632        0.713        0.132      107.071       14.138        0.017      336.199        7.340      862.366
10/16/2014  08:04:00     -102.397      -18.976      -13.094       25.508       32.391       17.948      650.646     1049.195      322.133        0.652        0.101      104.140       16.582        0.025      336.244        7.415      862.370
10/16/2014  08:05:00      -91.337      -32.470       -4.170       38.352       27.150       23.284     1470.881      737.134      542.137        0.608        0.138       96.937       21.574        0.050      336.243        7.414      862.364
10/16/2014  08:06:00      -79.163       10.274       -4.302       24.881       28.376       19.973      619.076      805.213      398.932        0.411        0.091       79.827        8.981        0.013      336.202        7.345      862.358
10/16/2014  08:07:00      -64.323       11.747      -17.728       19.610       20.592       14.560      384.540      424.049      211.990        0.280        0.051       65.387       11.707        0.032      336.291        7.494      862.349
10/16/2014  08:08:00      -65.648       -3.265       -6.843       13.989       14.863       13.051      195.704      220.923      170.326        0.248        0.029       65.730        6.391        0.009      336.325        7.551      862.337
10/16/2014  08:09:00      -57.148      -15.869      -15.705       26.038       16.455       14.106      677.988      270.779      198.972        0.246        0.057       59.310       16.241        0.075      336.385        7.649      862.319
10/16/2014  08:10:00      -61.641        9.980       -7.239       18.422       20.723       15.564      339.368      429.426      242.243        0.248        0.051       62.444        9.509        0.023      336.396        7.670      862.302
10/16/2014  08:11:00      -55.818        7.583       -1.403       10.003       12.228       12.105      100.062      149.522      146.526        0.179        0.020       56.330        8.250        0.021      336.469        7.791      862.286
10/16/2014  08:12:00      -48.542       -3.331       -8.681       11.980       10.960        7.988      143.513      120.112       63.806        0.139        0.016       48.656        6.720        0.019      336.487        7.820      862.286
10/16/2014  08:13:00      -43.832       -8.098       -5.075        7.376       11.395        9.642       54.407      129.852       92.962        0.114        0.014       44.574        5.320        0.014      336.540        7.911      862.292
10/16/2014  08:14:00      -46.780        7.629        2.361       13.495       15.659        8.013      182.122      245.210       64.203        0.137        0.025       47.398        5.056        0.011      336.579        7.977      862.307
10/16/2014  08:15:00      -43.545        2.825        1.344       20.255        9.435        5.173      410.281       89.013       26.755        0.122        0.026       43.637        5.891        0.018      336.584        7.984      862.324
10/16/2014  08:16:00       -7.466        3.354        6.194        5.730       12.470        8.277       32.828      155.498       68.503        0.018        0.013        8.185        5.359        0.429      336.948        8.594      862.352
10/16/2014  08:17:00        3.622       22.301        2.462       13.906       19.596       12.974      193.367      384.004      168.336        0.063        0.037       22.593       13.308        0.347      336.854        8.437      862.370
10/16/2014  08:18:00      -22.727        8.175        7.474       19.417       10.672       11.328      377.017      113.901      128.316        0.063        0.031       24.153        3.274        0.018      336.876        8.472      862.379
10/16/2014  08:19:00      -49.414       70.483       -9.730       14.546       27.091       11.258      211.593      733.913      126.734        0.429        0.054       86.079        5.391        0.004      336.684        8.153      862.381
10/16/2014  08:20:00      -25.977       31.577       -7.331       15.489       19.692       14.821      239.905      387.782      219.659        0.129        0.042       40.889        8.185        0.040      336.882        8.481      862.392
10/16/2014  08:21:00      -58.685      -18.517        1.307       36.841       41.448       22.158     1357.271     1717.932      490.967        0.368        0.178       61.537       15.546        0.064      336.867        8.458      862.409
10/16/2014  08:22:00     -115.290      -58.940       -2.739       34.545       26.462       19.995     1193.371      700.254      399.799        0.953        0.115      129.482       20.858        0.026      336.709        8.194      862.433
10/16/2014  08:23:00     -122.957      -38.000       -1.532       30.287       29.891       18.844      917.285      893.483      355.092        0.936        0.108      128.695       18.154        0.020      336.711        8.198      862.460
10/16/2014  08:24:00     -107.757      -28.882       -4.348       30.323       33.263       18.279      919.467     1106.425      334.119        0.741        0.118      111.561       10.335        0.009      336.800        8.345      862.471
10/16/2014  08:25:00      -80.745       -9.807       -9.212       39.858       34.440       18.319     1588.692     1186.126      335.581        0.491        0.156       81.338       12.338        0.023      336.875        8.471      862.487
10/16/2014  08:26:00     -105.333      -48.232      -16.654       26.276       19.761       16.613      690.413      390.506      275.985        0.753        0.068      115.851       11.768        0.010      336.829        8.394      862.493
10/16/2014  08:27:00      -56.924      -51.731      -10.732       57.615       33.448       19.632     3319.483     1118.793      385.419        0.543        0.241       76.918       20.045        0.068      336.828        8.392      862.507
10/16/2014  08:28:00      -80.512       -0.850       -1.002       35.230       28.834       19.063     1241.152      831.420      363.399        0.446        0.122       80.516       24.044        0.089      336.866        8.456      862.519
10/16/2014  08:29:00      -44.918       28.427       -5.440       24.931       15.710       15.487      621.576      246.809      239.855        0.198        0.055       53.158       13.061        0.060      336.924        8.552      862.519
10/16/2014  08:30:00      -39.026       10.567       -9.679       19.306       20.415       15.471      372.704      416.761      239.355        0.138        0.051       40.431       11.164        0.076      337.105        8.854      862.522
10/16/2014  08:31:00      -30.063      -11.372       -5.246       17.159       11.229        9.065      294.447      126.097       82.183        0.078        0.025       32.142        7.578        0.056      337.102        8.850      862.529
10/16/2014  08:32:00      -54.612       -9.234       -3.294       18.820       15.526       10.147      354.207      241.058      102.952        0.189        0.035       55.387        6.249        0.013      337.093        8.834      862.530
10/16/2014  08:33:00      -27.496      -34.065       -8.868       13.719       10.266        5.605      188.204      105.391       31.421        0.116        0.016       43.778        4.616        0.011      337.100        8.843      862.520
10/16/2014  08:34:00      -25.404      -33.243      -11.395        8.656       11.498        8.358       74.919      132.215       69.850        0.108        0.014       41.839        5.079        0.015      337.097        8.838      862.503
10/16/2014  08:35:00      -33.779       -5.713       -5.754        4.587       13.313        4.173       21.045      177.246       17.414        0.071        0.011       34.259        4.072        0.014      337.176        8.976      862.512
10/16/2014  08:36:00      -19.826       11.136      -11.735       23.614       22.141       14.282      557.617      490.226      203.979        0.095        0.063       22.739       12.179        0.287      337.289        9.161      862.520
10/16/2014  08:37:00      -27.670      -25.940      -10.088       16.329       12.420        9.568      266.643      154.247       91.548        0.103        0.026       37.928        5.674        0.022      337.242        9.085      862.541
10/16/2014  08:38:00       -8.507        9.060        5.639        9.864       20.422       14.960       97.307      417.045      223.797        0.046        0.037       12.428        9.054        0.531      337.633        9.738      862.569
10/16/2014  08:39:00       18.642       26.179       14.889       15.482       22.225       17.589      239.697      493.951      309.370        0.115        0.052       32.138       16.885        0.276      337.694        9.841      862.590
10/16/2014  08:40:00       -0.243       36.195        4.432       13.634       32.208       17.938      185.879     1037.364      321.774        0.144        0.077       36.196       19.016        0.276      337.657        9.779      862.602
10/16/2014  08:41:00       -8.963       60.750        2.812       14.290       22.981       17.899      204.195      528.127      320.388        0.242        0.053       61.408       15.843        0.067      337.522        9.552      862.619
10/16/2014  08:42:00       -9.965       70.958        1.185       11.227       13.487       15.466      126.048      181.904      239.184        0.284        0.027       71.654        9.672        0.018      337.511        9.533      862.647
10/16/2014  08:43:00       -4.017       46.261        2.852       13.345       21.027       17.835      178.080      442.137      318.099        0.155        0.047       46.435       14.186        0.093      337.598        9.681      862.668
10/16/2014  08:44:00       23.076       39.837        2.027       21.484       19.782       18.496      461.562      391.318      342.107        0.166        0.060       46.038        8.411        0.033      337.569        9.631      862.700
10/16/2014  08:45:00        5.693       57.831       -6.368       15.114       21.486       17.279      228.445      461.628      298.567        0.220        0.049       58.111       15.275        0.069      337.431        9.401      862.720
10/16/2014  08:46:00       -0.550       27.236       -3.317       16.232       29.668       16.170      263.488      880.162      261.479        0.108        0.070       27.242       11.939        0.192      337.553        9.605      862.732
10/16/2014  08:47:00       -9.453       43.658        3.660       16.838       23.241       17.155      283.510      540.155      294.309        0.156        0.056       44.670       16.570        0.138      337.621        9.719      862.723
10/16/2014  08:48:00       -6.221       61.533        1.572       27.968       38.105       17.167      782.193     1451.972      294.693        0.318        0.126       61.847       16.471        0.071      337.665        9.792      862.723
10/16/2014  08:49:00       29.005       89.870      -17.944       17.944       25.032       23.878      322.001      626.615      570.173        0.538        0.076       94.435       15.792        0.028      337.537        9.577      862.724
10/16/2014  08:50:00       -2.313       29.165        0.005       18.993       27.470       20.489      360.717      754.618      419.783        0.120        0.077       29.256       18.071        0.382      337.596        9.675      862.732
10/16/2014  08:51:00       33.321       16.079        8.348       21.243       17.828       21.192      451.265      317.826      449.112        0.133        0.061       36.998       12.543        0.115      337.657        9.779      862.743
10/16/2014  08:52:00       30.059       34.726        6.098       23.193       22.871       19.199      537.911      523.093      368.617        0.179        0.071       45.929       13.042        0.081      337.610        9.699      862.747
10/16/2014  08:53:00       17.454       20.883       20.692       25.008       38.470       19.025      625.423     1479.926      361.957        0.182        0.123       27.217       16.155        0.352      337.837       10.081      862.757
10/16/2014  08:54:00        2.645       27.556       41.715       21.354       19.959       14.527      455.984      398.381      211.020        0.179        0.053       27.683       10.925        0.156      337.805       10.027      862.763
10/16/2014  08:55:00       23.140       35.656       12.329       15.803       15.496       19.676      249.743      240.128      387.163        0.142        0.044       42.507        7.436        0.031      337.553        9.605      862.771
10/16/2014  08:56:00       10.769       34.549       34.329       12.876       15.645       10.027      165.789      244.765      100.535        0.150        0.026       36.189        7.750        0.046      337.637        9.745      862.780
10/16/2014  08:57:00       46.585       37.437       13.112       12.296       10.698       14.807      151.191      114.441      219.244        0.211        0.024       59.764        9.870        0.027      337.479        9.481      862.785
10/16/2014  08:58:00       32.704       35.541       16.492       15.128       15.291       16.587      228.865      233.805      275.124        0.167        0.037       48.298       10.101        0.044      337.594        9.674      862.784
10/16/2014  08:59:00       10.568        2.954       24.139       16.085       21.019       19.671      258.725      441.800      386.960        0.090        0.054       10.973       13.406        1.493      337.896       10.179      862.786
10/16/2014  09:00:00       23.063      -34.201        1.387       26.831       32.982       20.660      719.891     1087.814      426.852        0.197        0.112       41.250       16.025        0.151      337.886       10.162      862.797
10/16/2014  09:01:00       11.987      -10.517       11.948       21.878       35.078       23.832      478.651     1230.447      567.987        0.134        0.114       15.946       17.627        1.222      337.950       10.272      862.808
10/16/2014  09:02:00       20.920       -7.638       23.879       23.626       21.672       19.390      558.197      469.668      375.980        0.123        0.070       22.270       11.633        0.273      337.971       10.305      862.810
10/16/2014  09:03:00       18.137      -47.375       11.770       24.944       24.552       20.415      622.203      602.789      416.761        0.218        0.082       50.729       13.563        0.071      337.767        9.964      862.820
10/16/2014  09:04:00       20.965      -48.377        5.329       22.615       24.688       21.181      511.458      609.500      448.628        0.219        0.078       52.724       13.253        0.063      337.881       10.153      862.835
10/16/2014  09:05:00       -1.798      -16.508       19.100       15.330       26.371       13.245      235.015      695.416      175.431        0.087        0.055       16.605       14.322        0.744      338.388       11.006      862.845
10/16/2014  09:06:00        0.355      -18.122       19.656       13.244       26.779       12.318      175.399      717.126      151.745        0.088        0.052       18.125        9.668        0.284      338.482       11.165      862.832
10/16/2014  09:07:00       10.994      -21.059       19.694       28.721       42.503       30.957      824.882     1806.520      958.339        0.227        0.179       23.756       26.558        1.250      338.227       10.736      862.821
10/16/2014  09:08:00       44.326      -38.039        8.791       38.169       40.002       33.865     1456.842     1600.127     1146.847        0.385        0.210       58.410       21.501        0.135      337.991       10.339      862.805
10/16/2014  09:09:00       31.416      -20.701       37.777       34.028       38.380       30.959     1157.923     1473.021      958.459        0.322        0.179       37.623       26.447        0.494      338.041       10.423      862.792
10/16/2014  09:10:00       12.426      -21.465       11.858       19.464       33.944       24.874      378.843     1152.181      618.715        0.145        0.107       24.802       16.631        0.450      338.047       10.434      862.798
10/16/2014  09:11:00      -11.653      -13.657       26.875       21.469       35.309       20.878      460.899     1246.760      435.903        0.159        0.107       17.953       20.398        1.291      338.302       10.862      862.796
10/16/2014  09:12:00       17.945      -66.545       13.255       34.671       42.676       29.864     1202.055     1821.257      891.880        0.442        0.196       68.922       21.024        0.093      338.112       10.543      862.783
10/16/2014  09:13:00      -28.613      -59.786       29.333       29.738       33.438       31.725      884.369     1118.084     1006.455        0.413        0.150       66.280       15.761        0.057      338.176       10.648      862.754
10/16/2014  09:14:00       19.345      -24.001        7.691       36.486       56.036       43.964     1331.225     3139.985     1932.804        0.371        0.320       30.826       32.486        1.111      338.261       10.792      862.739
10/16/2014  09:15:00       39.368       12.547       41.560       43.594       38.603       34.976     1900.463     1490.161     1223.345        0.402        0.231       41.319       15.424        0.139      338.201       10.692      862.727
10/16/2014  09:16:00       30.002        7.747       46.533       37.056       55.564       39.705     1373.157     3087.344     1576.523        0.458        0.302       30.986       40.061        1.671      338.195       10.681      862.715
10/16/2014  09:17:00       48.202       73.643       57.640       40.643       36.839       46.995     1651.847     1357.081     2208.540        0.814        0.261       88.016       35.325        0.161      337.955       10.280      862.715
10/16/2014  09:18:00       23.792       82.948       95.547       43.822       36.712       27.714     1920.387     1347.749      768.071        1.031        0.202       86.292       24.925        0.083      338.119       10.555      862.702
10/16/2014  09:19:00       88.030       84.787       56.996       39.502       36.358       27.032     1560.446     1321.876      730.709        1.090        0.181      122.221       10.031        0.007      337.941       10.256      862.692
10/16/2014  09:20:00       27.334      -22.895       28.571       27.535       49.995       29.306      758.154     2499.544      858.849        0.310        0.206       35.656       28.119        0.622      338.060       10.456      862.673
10/16/2014  09:21:00       46.832      -86.982       -0.843       24.611       28.569       22.197      605.687      816.164      492.708        0.584        0.096       98.788       15.627        0.025      338.069       10.470      862.641
10/16/2014  09:22:00       58.021      -82.893       -6.785       27.168       42.483       26.984      738.101     1804.782      728.142        0.678        0.164      101.181       19.358        0.037      338.156       10.615      862.614
10/16/2014  09:23:00       30.241        0.172       28.730       42.890       44.436       38.958     1839.577     1974.520     1517.715        0.353        0.267       30.241       32.163        1.131      338.270       10.808      862.600
10/16/2014  09:24:00        7.117      -53.418        8.115       21.995       18.096       29.560      483.784      327.461      873.775        0.233        0.084       53.890       17.937        0.111      338.092       10.509      862.605
10/16/2014  09:25:00       69.656      -75.985      -10.563       40.492       34.238       26.008     1639.626     1172.210      676.439        0.711        0.174      103.081       17.245        0.028      338.282       10.828      862.617
10/16/2014  09:26:00      -10.380      -22.764       43.030       31.157       48.317       31.700      970.754     2334.524     1004.868        0.339        0.216       25.019       29.317        1.373      338.499       11.192      862.629
10/16/2014  09:27:00       35.551        6.700       41.028       41.390       46.920       33.715     1713.133     2201.444     1136.699        0.402        0.253       36.176       32.727        0.818      338.191       10.676      862.653
10/16/2014  09:28:00        3.854        6.213       34.179       30.714       31.671       19.672      943.348     1003.055      386.990        0.178        0.117        7.311       10.104        1.910      338.266       10.799      862.663
10/16/2014  09:29:00       60.332       -3.064       28.036       47.295       47.328       40.208     2236.845     2239.903     1616.668        0.526        0.305       60.410       35.388        0.343      338.185       10.663      862.674
10/16/2014  09:30:00       35.826      -40.915       10.085       38.465       41.900       36.969     1479.557     1755.632     1366.680        0.383        0.230       54.383       34.985        0.414      338.165       10.630      862.680
10/16/2014  09:31:00       10.924       -4.949       32.829       34.785       45.423       28.843     1210.010     2063.227      831.931        0.266        0.205       11.993       16.026        1.786      338.415       11.052      862.694
10/16/2014  09:32:00       27.032       33.948       30.879       44.991       25.135       34.711     2024.179      631.756     1204.874        0.335        0.193       43.396       25.085        0.334      338.115       10.546      862.686
10/16/2014  09:33:00      -29.926       -9.737        2.583       28.494       30.552       19.361      811.880      933.398      374.847        0.156        0.106       31.470       18.033        0.328      338.327       10.903      862.662
10/16/2014  09:34:00       72.454      -96.829      -12.254       50.444       69.430       39.377     2544.626     4820.473     1550.530        1.184        0.446      120.936       45.933        0.144      338.327       10.903      862.647
10/16/2014  09:35:00      138.460     -144.300      -28.359       53.993       59.722       26.356     2915.196     3566.716      694.640        2.399        0.359      199.984       25.593        0.016      338.034       10.408      862.646
10/16/2014  09:36:00       14.500      -24.163       18.318       38.030       56.626       25.848     1446.259     3206.498      668.109        0.322        0.266       28.180       27.522        0.954      338.418       11.056      862.668
10/16/2014  09:37:00       16.615      -54.700        7.328       29.282       28.699       23.555      857.445      823.616      554.854        0.278        0.112       57.167       15.807        0.076      338.422       11.064      862.694
10/16/2014  09:38:00        3.881      -58.969        4.727       37.047       38.337       34.411     1372.471     1469.693     1184.095        0.377        0.201       59.097       30.392        0.264      338.451       11.113      862.726
10/16/2014  09:39:00      -25.416      -13.012        6.941       31.857       27.563       23.374     1014.890      759.730      546.329        0.159        0.116       28.553       11.144        0.152      338.416       11.053      862.731
10/16/2014  09:40:00       -0.038      -27.913       -0.875       46.161       36.540       19.482     2130.827     1335.167      379.533        0.231        0.192       27.913       18.886        0.458      338.132       10.575      862.717
10/16/2014  09:41:00       29.433        7.048       34.973       38.636       33.263       29.564     1492.709     1106.405      874.045        0.281        0.174       30.265       26.256        0.753      338.296       10.852      862.701
10/16/2014  09:42:00       10.447       26.570       48.537       34.297       38.038       25.242     1176.303     1446.853      637.163        0.322        0.163       28.550       21.956        0.591      338.402       11.030      862.682
10/16/2014  09:43:00       10.119       38.244       61.493       31.937       31.586       19.974     1019.991      997.683      398.977        0.388        0.121       39.560       13.771        0.121      338.499       11.192      862.657
10/16/2014  09:44:00        5.074        7.622       21.515       25.322       35.492       16.342      641.193     1259.710      267.064        0.136        0.108        9.157        8.781        0.920      338.522       11.231      862.639
10/16/2014  09:45:00       23.234       40.543       53.236       38.213       30.993       21.139     1460.197      960.560      446.862        0.394        0.143       46.729       19.138        0.168      338.528       11.240      862.619
10/16/2014  09:46:00        6.302       57.570       71.502       27.755       31.567       23.722      770.346      996.484      562.754        0.540        0.116       57.914       16.839        0.085      338.627       11.407      862.617
10/16/2014  09:47:00       65.284       68.452       65.483       50.520       36.549       35.744     2552.280     1335.843     1277.651        0.920        0.258       94.592       31.639        0.112      338.241       10.759      862.632
10/16/2014  09:48:00       52.207       58.018       45.773       38.120       33.733       37.752     1453.116     1137.937     1425.234        0.610        0.201       78.049       18.243        0.055      338.241       10.759      862.641
10/16/2014  09:49:00       -1.556       34.102      -14.071       31.948       49.415       23.478     1020.689     2441.881      551.218        0.269        0.201       34.137       27.066        0.629      338.197       10.684      862.633
10/16/2014  09:50:00       -0.840      -31.599        8.227       54.921       44.828       25.118     3016.349     2009.572      630.901        0.336        0.283       31.610       23.766        0.565      338.333       10.914      862.633
10/16/2014  09:51:00       22.070      -43.441        6.271       29.374       52.351       33.375      862.814     2740.586     1113.879        0.356        0.236       48.726       20.786        0.182      338.601       11.363      862.626
10/16/2014  09:52:00       26.890      -79.810       -2.462       33.583       55.174       37.394     1127.843     3044.145     1398.296        0.633        0.279       84.218       36.416        0.187      338.556       11.288      862.614
10/16/2014  09:53:00       -0.789      -19.658       25.099       19.070       42.138       24.662      363.664     1775.649      608.227        0.188        0.137       19.673       20.412        1.076      338.759       11.628      862.610
10/16/2014  09:54:00      -15.822      -11.800       36.950       19.655       37.253       15.149      386.337     1387.790      229.481        0.188        0.100       19.738       14.635        0.550      338.869       11.814      862.599
10/16/2014  09:55:00       32.172      -55.845        9.454       49.843       67.353       41.169     2484.294     4536.485     1694.864        0.648        0.436       64.449       48.486        0.566      338.861       11.800      862.588
10/16/2014  09:56:00        9.177      -24.024       30.341       42.278       44.975       32.407     1787.411     2022.748     1050.231        0.322        0.243       25.717       22.614        0.773      338.776       11.657      862.591
10/16/2014  09:57:00       15.541      -54.429       20.804       45.971       39.072       35.387     2113.294     1526.592     1252.257        0.426        0.245       56.604       28.588        0.255      338.723       11.569      862.594
10/16/2014  09:58:00       21.421      -42.567       14.870       35.788       49.411       38.056     1280.754     2441.493     1448.232        0.383        0.259       47.653       29.764        0.390      338.713       11.552      862.608
10/16/2014  09:59:00       61.620      -25.385        7.646       33.915       74.017       42.405     1150.228     5478.448     1798.149        0.646        0.421       66.644       44.852        0.453      338.500       11.194      862.620
10/16/2014  10:00:00       41.684       15.012       42.150       33.045       36.059       25.948     1091.985     1300.273      673.321        0.340        0.153       44.305       22.061        0.248      338.492       11.181      862.615
10/16/2014  10:01:00       20.604       34.348       -0.812       27.169       32.690       18.012      738.160     1068.612      324.417        0.187        0.107       40.053       14.977        0.140      338.238       10.755      862.605
10/16/2014  10:02:00       55.663       47.655       13.019       28.072       19.424       19.660      788.024      377.302      386.532        0.355        0.078       73.276       15.320        0.044      338.358       10.955      862.577
10/16/2014  10:03:00       78.484       46.320       15.977       26.228       18.984       22.141      687.906      360.387      490.229        0.505        0.077       91.133       10.548        0.013      338.331       10.909      862.555
10/16/2014  10:04:00       57.833       51.439       39.516       44.974       26.132       32.730     2022.626      682.906     1071.234        0.566        0.189       77.399       28.919        0.140      338.638       11.427      862.548
10/16/2014  10:05:00       14.661       66.814       69.849       34.362       39.645       26.524     1180.718     1571.749      703.514        0.651        0.173       68.404       23.714        0.120      338.599       11.360      862.551
10/16/2014  10:06:00       69.854      104.632       88.874       47.105       38.508       27.452     2218.904     1482.859      753.586        1.409        0.223      125.807       18.898        0.023      338.393       11.013      862.558
10/16/2014  10:07:00       27.473       83.014       82.411       37.084       34.221       20.763     1375.230     1171.070      431.118        0.871        0.149       87.442       13.734        0.025      338.540       11.261      862.571
10/16/2014  10:08:00       69.248       79.690       13.436       40.237       32.990       37.255     1619.000     1088.366     1387.933        0.771        0.205      105.574       18.966        0.032      338.436       11.085      862.564
10/16/2014  10:09:00       82.044       65.355        6.928       30.405       21.957       22.306      924.437      482.131      497.568        0.648        0.095      104.893       15.146        0.021      338.616       11.389      862.570
10/16/2014  10:10:00       72.976       42.767        5.305       31.783       36.816       19.962     1010.172     1355.452      398.462        0.497        0.138       84.585       15.762        0.035      338.623       11.400      862.578
10/16/2014  10:11:00       62.891       48.763        0.203       25.839       31.177       24.327      667.677      972.019      591.798        0.428        0.112       79.581       10.118        0.016      338.683       11.500      862.594
10/16/2014  10:12:00       38.302       24.688        9.532       39.464       23.627       22.268     1557.426      558.226      495.884        0.239        0.131       45.569       17.328        0.145      338.979       12.000      862.598
10/16/2014  10:13:00       85.819       88.430       11.669       55.794       26.640       27.680     3112.951      709.678      766.185        0.995        0.229      123.227       17.782        0.021      338.485       11.170      862.598
10/16/2014  10:14:00       58.560       48.897       12.253       27.067       28.425       22.513      732.606      808.002      506.813        0.401        0.102       76.291       17.177        0.051      338.751       11.615      862.592
10/16/2014  10:15:00       56.372       57.030       29.411       27.698       24.977       24.414      767.202      623.827      596.023        0.464        0.099       80.188       19.366        0.058      338.969       11.980      862.608
10/16/2014  10:16:00       44.192       27.179        3.610       32.918       27.322       30.320     1083.565      746.492      919.286        0.273        0.137       51.881       16.475        0.101      339.068       12.148      862.600
10/16/2014  10:17:00       52.680       53.137       13.402       33.931       31.944       30.136     1151.345     1020.444      908.163        0.443        0.154       74.825       15.136        0.041      338.990       12.018      862.596
10/16/2014  10:18:00       10.630       89.737       10.074       61.143       61.667       35.124     3738.504     3802.834     1233.696        0.852        0.439       90.364       44.766        0.245      338.731       11.582      862.585
10/16/2014  10:19:00      -22.713      153.295      -20.059       34.393       35.577       27.164     1182.871     1265.717      737.882        1.380        0.159      154.969       10.686        0.005      338.654       11.453      862.578
10/16/2014  10:20:00        7.496       97.779       -5.478       28.993       43.084       32.617      840.600     1856.191     1063.898        0.670        0.188       98.065       27.238        0.077      338.928       11.914      862.578
10/16/2014  10:21:00       -1.241       81.135       -0.303       25.344       42.341       31.578      642.340     1792.748      997.177        0.501        0.172       81.145       30.549        0.142      339.000       12.034      862.559
10/16/2014  10:22:00        5.744       44.284        0.546       23.158       35.003       29.027      536.285     1225.233      842.561        0.230        0.130       44.655       25.131        0.317      339.061       12.137      862.530
10/16/2014  10:23:00       38.399       85.669      -17.469       26.049       32.946       24.329      678.574     1085.436      591.916        0.574        0.118       93.881       22.036        0.055      338.864       11.806      862.503
10/16/2014  10:24:00       82.746       41.634        2.640       40.556       35.109       30.501     1644.818     1232.667      930.289        0.620        0.190       92.630       21.446        0.054      338.975       11.993      862.484
10/16/2014  10:25:00       75.784       58.383        4.185       27.983       19.969       25.914      783.052      398.752      671.537        0.551        0.093       95.665        9.482        0.010      338.924       11.907      862.477
10/16/2014  10:26:00       17.724       15.817       10.145       27.343       31.781       20.969      747.640     1010.056      439.703        0.143        0.110       23.755       13.183        0.308      339.390       12.693      862.491
10/16/2014  10:27:00      -50.829      -17.003      -18.588       20.594       18.674       18.932      424.115      348.710      358.425        0.217        0.057       53.597       17.015        0.101      338.996       12.027      862.494
10/16/2014  10:28:00      -48.705        7.207       20.439       26.733       28.105       25.111      714.658      789.865      630.574        0.249        0.107       49.235       21.433        0.190      338.915       11.890      862.486
10/16/2014  10:29:00       20.940       56.556       51.263       41.479       34.854       26.340     1720.513     1214.769      693.792        0.495        0.181       60.308       11.863        0.039      339.201       12.372      862.474
10/16/2014  10:30:00       76.744       76.416       20.609       45.429       29.844       21.579     2063.816      890.667      465.658        0.779        0.171      108.301       25.359        0.055      338.622       11.401      862.465
10/16/2014  10:31:00       49.199       28.808       -1.522       20.012       13.851       16.420      400.492      191.837      269.611        0.206        0.043       57.013        5.566        0.010      338.786       11.674      862.441
10/16/2014  10:32:00       47.618       63.932       19.236       33.100       27.961       25.135     1095.578      781.802      631.787        0.462        0.125       79.717       17.328        0.047      339.036       12.094      862.413
10/16/2014  10:33:00       55.188       47.716       11.888       19.464       20.225       16.666      378.834      409.064      277.757        0.326        0.053       72.956        5.706        0.006      338.776       11.658      862.389
10/16/2014  10:34:00       53.977       46.979       30.932       27.279       19.311       21.521      744.155      372.912      463.164        0.383        0.079       71.558       11.364        0.025      339.059       12.133      862.370
10/16/2014  10:35:00        6.960      -26.406        5.269       47.461       53.857       28.542     2252.543     2900.559      814.665        0.337        0.298       27.308       22.053        0.652      339.230       12.422      862.367
10/16/2014  10:36:00      -18.666     -104.925      -19.018       40.437       63.859       26.651     1635.113     4078.001      710.251        0.907        0.321      106.572       31.343        0.086      339.346       12.616      862.369
10/16/2014  10:37:00       76.423      -49.746        4.630       51.053       77.869       48.701     2606.365     6063.630     2371.748        0.969        0.552       91.187       58.356        0.410      339.299       12.540      862.377
10/16/2014  10:38:00       24.367       -7.300       40.506       61.955       58.314       40.146     3838.380     3400.537     1611.739        0.557        0.443       25.437       43.570        2.934      339.347       12.617      862.365
10/16/2014  10:39:00       22.468       -7.306       24.115       42.682       60.919       41.863     1821.759     3711.166     1752.509        0.421        0.364       23.626       43.187        3.341      339.288       12.519      862.338
10/16/2014  10:40:00       18.804       -7.527       35.852       33.149       32.771       27.294     1098.888     1073.969      744.979        0.231        0.146       20.254       22.882        1.276      339.561       12.979      862.335
10/16/2014  10:41:00       30.550      -39.677       28.012       37.732       38.669       33.248     1423.734     1495.268     1105.425        0.366        0.201       50.076       26.046        0.271      339.489       12.857      862.310
10/16/2014  10:42:00       -2.864        4.713       40.762       18.122       33.602       21.389      328.395     1129.087      457.504        0.180        0.096        5.515       15.813        8.221      339.906       13.561      862.297
10/16/2014  10:43:00       64.740       45.335        5.278       34.687       26.192       28.798     1203.198      686.041      829.321        0.450        0.136       79.036        8.989        0.013      339.189       12.353      862.290
10/16/2014  10:44:00       42.123       38.905       23.897       32.967       27.472       24.686     1086.835      754.714      609.405        0.315        0.123       57.340        3.917        0.005      339.457       12.803      862.277
10/16/2014  10:45:00       54.591       -6.857       11.489       24.814       35.883       27.296      615.746     1287.618      745.076        0.290        0.132       55.020       17.129        0.097      339.229       12.420      862.258
10/16/2014  10:46:00       13.967       23.601       51.773       39.311       43.825       31.606     1545.351     1920.611      998.956        0.395        0.223       27.424       24.561        0.802      339.662       13.151      862.239
10/16/2014  10:47:00       14.877       -3.927       35.431       32.385       48.683       30.750     1048.813     2369.995      945.589        0.293        0.218       15.387       20.525        1.779      339.835       13.440      862.234
10/16/2014  10:48:00      -11.613       -6.580       18.276       27.302       34.538       31.389      745.382     1192.900      985.266        0.172        0.146       13.348       29.778        4.977      339.809       13.396      862.242
10/16/2014  10:49:00      -12.047      -11.257        9.673       20.686       31.652       31.966      427.907     1001.849     1021.837        0.141        0.123       16.487       28.007        2.886      339.731       13.266      862.231
10/16/2014  10:50:00      -41.347        2.828        0.584       23.888       21.347       19.796      570.657      455.712      391.875        0.157        0.071       41.443       13.225        0.102      339.303       12.543      862.229
10/16/2014  10:51:00      -37.784        7.450       -5.892       17.795       18.761       12.297      316.660      351.961      151.207        0.117        0.041       38.511        5.134        0.018      339.272       12.491      862.229
10/16/2014  10:52:00      -39.035       -9.388       13.242       32.644       60.312       33.149     1065.661     3637.480     1098.888        0.379        0.290       40.148       31.107        0.600      339.712       13.234      862.220
10/16/2014  10:53:00       16.700       13.023       33.731       41.427       24.397       26.285     1716.220      595.194      690.898        0.229        0.150       21.177       27.157        1.644      339.883       13.522      862.210
10/16/2014  10:54:00       66.750       36.928       20.369       42.369       27.513       30.798     1795.105      756.956      948.526        0.487        0.175       76.284       18.251        0.057      339.354       12.630      862.195
10/16/2014  10:55:00       42.339        9.825       25.514       76.959       40.798       40.984     5922.687     1664.480     1679.722        0.590        0.463       43.464       40.588        0.872      339.620       13.077      862.179
10/16/2014  10:56:00       -9.823        0.966       18.258       35.158       32.207       25.045     1236.094     1037.265      627.274        0.167        0.145        9.871       19.587        3.938      339.630       13.096      862.176
10/16/2014  10:57:00       23.844      -87.718       -4.796       54.945       68.820       28.578     3018.964     4736.228      816.687        0.843        0.429       90.901       41.417        0.208      339.455       12.800      862.188
10/16/2014  10:58:00       17.891      -49.685        7.244       42.414       74.188       36.544     1798.971     5503.862     1335.482        0.574        0.432       52.808       40.182        0.579      339.580       13.010      862.191
10/16/2014  10:59:00       41.080      -61.592        4.855       47.258       95.752       44.136     2233.341     9168.515     1947.975        0.943        0.667       74.035       49.667        0.450      339.672       13.166      862.186
10/16/2014  11:00:00       51.334      -28.099       24.749       42.891       54.249       38.630     1839.609     2942.968     1492.240        0.515        0.314       58.521       35.356        0.365      339.445       12.784      862.162
10/16/2014  11:01:00        4.721        3.368       33.264       30.666       29.092       23.859      940.432      846.325      569.237        0.175        0.118        5.800       23.870       16.941      339.787       13.359      862.126
10/16/2014  11:02:00       23.173        7.743        9.947       26.173       44.914       18.297      685.000     2017.238      334.793        0.187        0.152       24.432       11.178        0.209      339.641       13.113      862.123
10/16/2014  11:03:00       66.559       35.236       23.567       63.160       77.748       33.139     3989.211     6044.803     1098.169        0.868        0.557       75.310       16.669        0.049      339.625       13.087      862.148
10/16/2014  11:04:00       50.879       31.484       19.793       55.982       58.813       32.550     3134.030     3458.931     1059.480        0.581        0.383       59.832        8.198        0.019      339.706       13.223      862.172
10/16/2014  11:05:00       62.468      -42.749       16.650       44.164       41.935       32.004     1950.421     1758.516     1024.230        0.537        0.237       75.695       15.441        0.042      339.390       12.691      862.185
10/16/2014  11:06:00       24.351      -18.595       29.645       35.262       32.965       28.966     1243.404     1086.665      839.028        0.249        0.158       30.639        9.372        0.094      339.677       13.175      862.202
10/16/2014  11:07:00       52.942       45.829       22.927       71.769       76.041       38.036     5150.809     5782.159     1446.733        0.890        0.619       70.023       37.462        0.286      339.570       12.993      862.190
10/16/2014  11:08:00       97.884       80.012       13.590       46.424       42.008       40.091     2155.178     1764.670     1607.287        1.085        0.276      126.425       18.374        0.021      339.566       12.987      862.179
10/16/2014  11:09:00       65.709       60.206       32.144       49.262       37.085       48.960     2426.779     1375.313     2397.093        0.759        0.310       89.120       17.451        0.038      339.912       13.570      862.158
10/16/2014  11:10:00       27.234      -75.627       19.852       54.171       51.093       39.166     2934.528     2610.507     1533.981        0.697        0.354       80.381       31.286        0.151      339.988       13.700      862.160
10/16/2014  11:11:00       57.219       -4.440       37.183       43.696       58.524       37.827     1909.369     3425.062     1430.867        0.572        0.338       57.391       27.890        0.236      339.835       13.441      862.156
10/16/2014  11:12:00       17.887       24.909       51.179       28.006       40.396       27.167      784.348     1631.824      738.070        0.336        0.158       30.666       22.548        0.541      340.006       13.728      862.187
10/16/2014  11:13:00       18.945       49.665       38.477       36.099       46.796       49.677     1303.120     2189.869     2467.765        0.513        0.298       53.156       31.187        0.344      339.588       13.026      862.203
10/16/2014  11:14:00        3.242       13.445        2.652       18.390       29.599       21.524      338.193      876.119      463.285        0.094        0.084       13.830       14.290        1.068      340.152       13.977      862.192
10/16/2014  11:15:00       22.228       21.485       16.792       20.456       42.848       26.824      418.436     1835.917      719.506        0.211        0.149       30.914       27.793        0.808      340.254       14.148      862.180
10/16/2014  11:16:00       22.064       24.327       17.078       25.997       23.262       29.511      675.829      541.108      870.908        0.173        0.104       32.842       20.705        0.397      339.928       13.598      862.145
10/16/2014  11:17:00      -23.877       -1.788       12.730       16.176       16.570       14.150      261.676      274.581      200.223        0.074        0.037       23.944        7.253        0.092      340.280       14.192      862.127
10/16/2014  11:18:00      -12.844       -7.267        2.995       17.238       12.733       14.405      297.157      162.134      207.511        0.045        0.033       14.757        7.276        0.243      340.237       14.118      862.127
10/16/2014  11:19:00      -11.133       43.936       47.373       39.048       31.939       32.361     1524.763     1020.084     1047.249        0.394        0.180       45.325       27.819        0.377      340.427       14.441      862.106
10/16/2014  11:20:00       22.720       30.408       54.217       53.372       65.350       39.883     2848.555     4270.650     1590.691        0.654        0.435       37.959       39.555        1.086      340.323       14.264      862.081
10/16/2014  11:21:00       20.991      -75.456       16.088       68.865       76.547       57.401     4742.335     5859.392     3294.866        1.014        0.695       78.321       47.274        0.364      340.217       14.084      862.067
10/16/2014  11:22:00       78.884      -92.960       -0.042       66.722       60.605       37.825     4451.803     3672.947     1430.693        1.221        0.478      121.919       23.566        0.037      339.895       13.542      862.066
10/16/2014  11:23:00       53.066      -28.154       40.590       51.438       78.312       52.355     2645.864     6132.756     2741.050        0.839        0.576       60.072       45.962        0.585      340.240       14.123      862.079
10/16/2014  11:24:00       72.717      -10.735       38.209       63.551       75.329       67.115     4038.668     5674.405     4504.428        1.054        0.711       73.505       66.131        0.809      340.076       13.846      862.087
10/16/2014  11:25:00       26.637      -90.244      -11.052       44.154       79.840       38.063     1949.543     6374.489     1448.810        0.937        0.489       94.093       30.343        0.104      340.112       13.908      862.086
10/16/2014  11:26:00       30.778     -107.237       -9.848       57.287       43.694       39.000     3281.793     1909.196     1520.973        0.963        0.336      111.566       31.768        0.081      340.062       13.823      862.086
10/16/2014  11:27:00       16.918      -23.676       41.590       35.719       34.709       24.469     1275.850     1204.724      598.752        0.283        0.154       29.099       17.387        0.357      340.404       14.400      862.077
10/16/2014  11:28:00       49.375        1.982       22.861       42.801       30.446       43.204     1831.959      926.978     1866.596        0.379        0.231       49.415       29.394        0.354      340.086       13.865      862.101
10/16/2014  11:29:00       20.921       26.431       16.860       52.906       60.748       29.454     2799.086     3690.308      867.528        0.439        0.368       33.708       32.365        0.922      340.309       14.242      862.105
10/16/2014  11:30:00      112.393       65.358       37.346       65.517       59.910       51.942     4292.472     3589.215     2697.985        1.444        0.529      130.015       31.772        0.060      340.137       13.950      862.119
10/16/2014  11:31:00      142.717       73.863       21.925       69.085       67.531       49.842     4772.799     4560.495     2484.256        1.906        0.591      160.698       40.576        0.064      339.966       13.661      862.122
10/16/2014  11:32:00      134.605      100.906       26.473       59.866       54.616       41.968     3583.969     2982.905     1761.349        1.866        0.416      168.227       36.549        0.047      340.038       13.782      862.089
10/16/2014  11:33:00      158.861       84.891       20.818       73.342       45.041       45.693     5379.099     2028.724     2087.860        2.118        0.475      180.121       32.690        0.033      340.122       13.923      862.060
10/16/2014  11:34:00      120.858       83.200       30.011       69.491       54.932       44.769     4829.043     3017.511     2004.221        1.614        0.493      146.727       16.005        0.012      340.262       14.161      862.031
10/16/2014  11:35:00      116.527      102.598       31.444       69.369       47.716       45.004     4812.032     2276.806     2025.387        1.710        0.456      155.258       33.758        0.047      340.000       13.718      862.012
10/16/2014  11:36:00      123.318       89.917       22.048       64.225       42.687       38.799     4124.815     1822.163     1505.329        1.561        0.373      152.619       27.990        0.034      340.149       13.970      862.003
10/16/2014  11:37:00      136.994       86.860       11.150       57.908       31.608       35.883     3353.291      999.046     1287.588        1.604        0.282      162.210       25.247        0.024      340.007       13.731      861.994
10/16/2014  11:38:00       83.170       66.301       -4.552       31.267       34.094       21.520      977.643     1162.393      463.126        0.697        0.130      106.363       11.571        0.012      339.803       13.388      861.999
10/16/2014  11:39:00       24.870       53.804        7.131       22.690       32.629       28.106      514.856     1064.673      789.957        0.297        0.118       59.273       18.729        0.100      340.070       13.836      861.969
10/16/2014  11:40:00      -12.103       52.066      -17.968       14.146       30.073       14.486      200.113      904.392      209.858        0.225        0.066       53.454        7.783        0.021      339.875       13.507      861.934
10/16/2014  11:41:00        7.521       47.810      -16.990       34.514       16.822       15.095     1191.189      282.964      227.873        0.217        0.085       48.398       14.000        0.084      339.990       13.702      861.884
10/16/2014  11:42:00       47.297       60.901       21.961       34.503       38.379       32.545     1190.455     1472.927     1059.196        0.507        0.186       77.110       10.871        0.020      340.391       14.378      861.867
10/16/2014  11:43:00       73.845       33.113        8.473       37.934       34.661       34.116     1439.019     1201.364     1163.927        0.521        0.190       80.930       24.465        0.091      340.270       14.174      861.857
10/16/2014  11:44:00       64.226       67.282       39.554       52.449       48.783       41.964     2750.920     2379.734     1760.955        0.855        0.345       93.015       34.753        0.140      340.317       14.254      861.844
10/16/2014  11:45:00        8.364       12.649       35.532       29.862       31.566       23.265      891.732      996.426      541.282        0.196        0.121       15.164       14.889        0.964      340.865       15.182      861.852
10/16/2014  11:46:00       18.477      -54.740       13.553       27.294       33.672       31.755      744.961     1133.771     1008.367        0.320        0.144       57.775       20.503        0.126      340.507       14.574      861.845
10/16/2014  11:47:00       -2.092       37.955       30.541       36.242       45.305       36.277     1313.447     2052.539     1316.000        0.353        0.234       38.013       24.752        0.424      340.710       14.918      861.839
10/16/2014  11:48:00      168.457      108.265       55.099       56.375       44.397       44.210     3178.116     1971.099     1954.530        2.512        0.355      200.248       30.541        0.023      340.283       14.194      861.840
10/16/2014  11:49:00      138.535       95.910       21.341       41.965       25.547       40.042     1761.038      652.632     1603.399        1.643        0.201      168.495       17.479        0.011      340.095       13.877      861.838
10/16/2014  11:50:00       66.713       59.178       16.406       50.363       35.537       30.077     2536.404     1262.881      904.606        0.646        0.235       89.178       19.995        0.050      340.144       13.962      861.833
10/16/2014  11:51:00       82.360       66.334       -0.734       45.527       51.191       38.080     2072.707     2620.549     1450.104        0.866        0.307      105.752       31.076        0.086      340.323       14.264      861.843
10/16/2014  11:52:00       22.188       43.203       67.353       43.423       56.694       44.709     1885.556     3214.154     1998.933        0.700        0.355       48.568       38.648        0.633      340.510       14.581      861.851
10/16/2014  11:53:00       23.846       61.384       73.901       48.181       50.777       25.384     2321.437     2578.346      644.368        0.767        0.277       65.854       23.176        0.124      340.549       14.646      861.859
10/16/2014  11:54:00       39.587       77.010       89.337       59.011       39.383       37.592     3482.307     1551.030     1413.168        1.096        0.322       86.589       40.012        0.214      340.281       14.193      861.870
10/16/2014  11:55:00       71.054       52.349       29.045       65.554       45.717       33.268     4297.303     2090.023     1106.752        0.806        0.375       88.256       18.941        0.046      340.425       14.437      861.843
10/16/2014  11:56:00       33.095       10.790       10.941       41.589       22.452       30.536     1729.665      504.111      932.450        0.225        0.158       34.809       12.272        0.124      340.589       14.713      861.820
10/16/2014  11:57:00      -11.598      -34.119      -20.885       39.385       37.952       19.074     1551.199     1440.356      363.834        0.254        0.168       36.036        8.356        0.054      340.668       14.847      861.795
10/16/2014  11:58:00      -44.225       -3.952       -0.747       53.819       28.553       25.271     2896.489      815.265      638.603        0.316        0.218       44.401       21.347        0.231      340.612       14.753      861.769
10/16/2014  11:59:00      -35.406      -28.771        2.188       39.919       40.148       23.873     1593.553     1611.889      569.920        0.293        0.189       45.622       14.027        0.095      340.625       14.774      861.743
10/16/2014  12:00:00       10.404       16.600       22.527       35.747       36.078       35.531     1277.879     1301.600     1262.420        0.237        0.192       19.591       25.168        1.650      340.740       14.969      861.717
10/16/2014  12:01:00      -49.096      -32.463      -13.690       47.771       32.495       23.368     2282.108     1055.957      546.066        0.377        0.194       58.858        8.073        0.019      340.620       14.767      861.705
10/16/2014  12:02:00       -4.471      -22.409       -0.455       36.145       31.000       27.103     1306.431      960.971      734.552        0.176        0.150       22.851       26.640        1.359      340.998       15.406      861.692
10/16/2014  12:03:00       -1.048      -61.840       -3.686       55.094       71.733       45.074     3035.339     5145.621     2031.691        0.702        0.511       61.849       51.122        0.683      340.824       15.111      861.696
10/16/2014  12:04:00       57.627      -61.549       -7.715       47.879       59.444       42.683     2292.423     3533.577     1821.838        0.741        0.382       84.316       31.854        0.143      340.965       15.350      861.703
10/16/2014  12:05:00       15.365      -21.234       -1.086       22.289       42.111       25.046      496.792     1773.332      627.316        0.179        0.145       26.210       16.898        0.416      341.122       15.617      861.691
10/16/2014  12:06:00       -7.393       38.051       39.460       42.303       37.705       47.053     1789.572     1421.633     2213.963        0.424        0.271       38.762       31.489        0.660      341.260       15.849      861.667
10/16/2014  12:07:00       39.841       54.985       71.384       41.364       55.037       42.976     1711.018     3029.064     1846.940        0.815        0.329       67.902       33.629        0.245      340.841       15.140      861.663
10/16/2014  12:08:00       44.983       32.664       58.721       65.809       77.779       37.850     4330.855     6049.552     1432.606        0.917        0.591       55.591       46.154        0.689      340.899       15.239      861.652
10/16/2014  12:09:00      113.917       32.197       65.465       85.597       93.000       54.249     7326.881     8649.026     2942.988        1.861        0.946      118.379       51.614        0.190      340.612       14.750      861.652
10/16/2014  12:10:00      125.263       44.754       55.752       76.711       73.617       41.491     5884.628     5419.397     1721.481        1.691        0.651      133.018       28.138        0.045      340.522       14.599      861.653
10/16/2014  12:11:00       39.610       11.731       67.404       53.303      106.675       48.923     2841.245    11379.497     2393.434        1.143        0.831       41.310       54.259        1.725      340.645       14.809      861.642
10/16/2014  12:12:00       87.364       86.459       52.779       50.349       44.527       56.968     2535.024     1982.679     3245.395        1.283        0.388      122.913       42.833        0.121      340.407       14.404      861.631
10/16/2014  12:13:00       35.794       45.345       -0.019       49.512       43.349       29.733     2451.396     1879.151      884.033        0.428        0.261       57.771       20.073        0.121      340.743       14.974      861.623
10/16/2014  12:14:00       14.223      -17.263        8.060       28.953       34.073       34.136      838.266     1161.002     1165.273        0.186        0.158       22.368       16.607        0.551      340.842       15.142      861.596
10/16/2014  12:15:00       17.720      -87.966        4.367       32.580       39.555       41.443     1061.449     1564.632     1717.521        0.621        0.217       89.734       25.452        0.080      341.043       15.481      861.585
10/16/2014  12:16:00      -39.431      -18.937       10.667       32.649       34.964       28.488     1065.942     1222.485      811.555        0.256        0.155       43.742       20.227        0.214      341.075       15.537      861.562
10/16/2014  12:17:00       -9.808      -44.472       -7.502       39.691       38.097       22.457     1575.371     1451.357      504.314        0.283        0.177       45.540       18.994        0.174      341.164       15.687      861.539
10/16/2014  12:18:00      -18.549      -65.881        0.427       61.029       67.033       40.642     3724.597     4493.460     1651.800        0.728        0.493       68.442       41.855        0.374      341.041       15.477      861.522
10/16/2014  12:19:00        8.629        2.023        7.982       25.755       26.434       21.862      663.338      698.738      477.952        0.099        0.092        8.863       17.024        3.690      340.956       15.335      861.497
10/16/2014  12:20:00       24.212      -36.913      -15.648       20.234       28.812       17.865      409.427      830.118      319.152        0.188        0.078       44.145       11.147        0.064      340.647       14.812      861.464
10/16/2014  12:21:00       45.069      -65.725        0.622       53.284       70.499       54.072     2839.184     4970.127     2923.828        0.854        0.537       79.693       50.383        0.400      340.918       15.272      861.439
10/16/2014  12:22:00       -4.182       -4.200       34.780       32.950       59.631       41.433     1085.734     3555.888     1716.665        0.380        0.318        5.927       32.287       29.671      341.041       15.479      861.415
10/16/2014  12:23:00       22.651      -18.778       38.865       53.896       64.582       47.505     2904.733     4170.881     2256.744        0.585        0.467       29.422       46.980        2.550      341.210       15.765      861.401
10/16/2014  12:24:00        0.838        3.870        7.037       29.727       40.593       24.404      883.680     1647.801      595.573        0.160        0.156        3.960       18.943       22.887      341.062       15.515      861.384
10/16/2014  12:25:00       -4.596      -46.450        1.511       29.214       25.541       22.321      853.451      652.341      498.215        0.209        0.100       46.677       11.812        0.064      341.343       15.990      861.371
10/16/2014  12:26:00       27.260       35.316       39.547       36.472       38.700       34.888     1330.203     1497.728     1217.181        0.380        0.202       44.613       19.781        0.197      341.356       16.011      861.371
10/16/2014  12:27:00        5.140       39.165       75.213       29.905       61.580       32.738      894.313     3792.046     1071.752        0.649        0.288       39.501       34.160        0.748      341.228       15.796      861.350
10/16/2014  12:28:00       63.843       68.328       59.633       45.781       44.728       43.901     2095.901     2000.625     1927.325        0.916        0.301       93.513       29.509        0.100      340.908       15.253      861.323
10/16/2014  12:29:00      179.070       86.049       38.486       61.284       67.969       47.352     3755.703     4619.764     2242.206        2.578        0.531      198.672       27.569        0.019      340.848       15.148      861.296
10/16/2014  12:30:00      144.851       66.691       56.196       88.286       74.696       53.588     7794.505     5579.496     2871.638        2.241        0.812      159.466       37.423        0.055      340.976       15.367      861.262
10/16/2014  12:31:00       57.816      -48.143       25.904       53.966       79.854       43.981     2912.306     6376.733     1934.317        0.878        0.561       75.236       34.565        0.211      341.204       15.754      861.252
10/16/2014  12:32:00       54.647     -100.845        9.995       61.956       57.534       46.082     3838.573     3310.143     2123.583        1.126        0.464      114.700       42.941        0.140      341.250       15.834      861.236
10/16/2014  12:33:00       77.878     -136.695      -21.790       75.582       84.326       71.436     5712.568     7110.809     5103.153        2.157        0.896      157.323       61.074        0.151      341.080       15.544      861.218
10/16/2014  12:34:00       18.014      -61.197       20.100       76.997       72.045       42.869     5928.553     5190.488     1837.713        0.871        0.648       63.793       41.117        0.415      341.575       16.382      861.205
10/16/2014  12:35:00        6.419      -44.408        4.994      110.873       83.214       51.678    12292.731     6924.627     2670.594        1.196        1.094       44.870       50.833        1.283      341.217       15.777      861.193
10/16/2014  12:36:00      -35.763      -51.740       -2.203       70.546       44.492       25.621     4976.740     1979.571      656.446        0.579        0.381       62.897       19.415        0.095      341.218       15.777      861.161
10/16/2014  12:37:00       27.570     -119.459      -11.196       56.886       82.483       51.880     3236.014     6803.375     2691.520        1.394        0.637      122.599       39.921        0.106      341.198       15.743      861.154
10/16/2014  12:38:00      -10.714     -109.113        2.021       60.337       76.907       44.412     3640.590     5914.763     1972.408        1.177        0.576      109.638       42.040        0.147      341.415       16.111      861.144
10/16/2014  12:39:00      -16.387     -120.806       12.194       71.783       78.547       48.356     5152.784     6169.656     2338.335        1.433        0.683      121.912       51.095        0.176      341.545       16.332      861.131
10/16/2014  12:40:00      -31.660      -90.306       -4.725       44.798       54.703       39.051     2006.901     2992.472     1525.012        0.785        0.326       95.695       15.065        0.025      341.472       16.208      861.128
10/16/2014  12:41:00       17.258      -78.318       -3.436       50.385       64.569       29.317     2538.609     4169.100      859.513        0.700        0.378       80.197       23.697        0.087      341.447       16.167      861.131
10/16/2014  12:42:00       15.901      -24.888       21.677       33.318       51.001       36.081     1110.077     2601.147     1301.848        0.318        0.251       29.534       34.835        1.391      341.592       16.412      861.123
10/16/2014  12:43:00        8.417        5.070       43.816       28.023       40.250       35.900      785.273     1620.057     1288.779        0.285        0.185        9.826       28.306        8.298      341.794       16.755      861.130
10/16/2014  12:44:00       13.354       -2.265       29.672       43.120       33.976       28.017     1859.350     1154.395      784.972        0.243        0.190       13.544       15.927        1.383      341.566       16.367      861.113
10/16/2014  12:45:00       56.174       13.855       14.765       67.144       69.861       43.252     4508.313     4880.609     1870.693        0.741        0.563       57.857       24.771        0.183      341.352       16.006      861.095
10/16/2014  12:46:00       88.820       57.103       28.808       63.077       54.988       42.997     3978.653     3023.637     1848.777        1.041        0.443      105.593       33.691        0.102      341.456       16.182      861.069
10/16/2014  12:47:00       74.942       61.592        2.390       81.106       69.335       45.117     6578.131     4807.309     2035.575        1.142        0.671       97.004       24.274        0.063      341.475       16.213      861.044
10/16/2014  12:48:00      143.733       93.768       28.284       64.192       51.146       48.257     4120.584     2615.956     2328.694        1.966        0.453      171.615       19.167        0.012      341.204       15.753      861.024
10/16/2014  12:49:00      108.619       68.241       28.607       96.002       60.549       49.018     9216.293     3666.139     2402.763        1.628        0.764      128.277       18.474        0.021      341.348       15.997      860.995
10/16/2014  12:50:00      112.667       73.692       16.412       50.900       30.436       27.251     2590.823      926.320      742.610        1.133        0.213      134.626       26.277        0.038      341.083       15.550      860.982
10/16/2014  12:51:00       49.571      -23.056       41.751       98.553       93.463       63.137     9712.707     8735.354     3986.294        1.358        1.122       54.671       56.222        1.058      341.578       16.387      860.978
10/16/2014  12:52:00       56.504      -24.809       29.392       42.384       84.821       41.001     1796.414     7194.583     1681.046        0.767        0.534       61.710       50.307        0.665      341.116       15.607      860.958
10/16/2014  12:53:00       55.150      -33.638       38.508       76.329       76.151       35.434     5826.135     5798.958     1255.585        0.927        0.644       64.599       48.791        0.570      341.693       16.582      860.922
10/16/2014  12:54:00       89.516      -37.431       31.448       97.831       79.965       52.338     9570.969     6394.441     2739.284        1.455        0.935       97.027       47.467        0.239      341.389       16.067      860.889
10/16/2014  12:55:00      108.847     -160.303      -11.272       74.081       53.192       39.584     5487.962     2829.381     1566.856        2.378        0.494      193.765       38.847        0.040      341.234       15.804      860.836
10/16/2014  12:56:00       43.521       -5.978       22.430       54.218       47.192       29.864     2939.597     2227.117      891.883        0.424        0.303       43.929       35.334        0.647      341.711       16.613      860.791
10/16/2014  12:57:00       15.258      -29.693       16.172       29.075       41.786       27.400      845.334     1746.059      750.780        0.236        0.167       33.384       29.989        0.807      341.834       16.822      860.744
10/16/2014  12:58:00       61.972      113.098      130.504       80.709       79.293       62.815     6513.925     6287.341     3945.728        2.520        0.837      128.964       57.057        0.196      341.283       15.887      860.706
10/16/2014  12:59:00      118.834       45.735       11.068       62.305       38.561       40.050     3881.929     1486.948     1604.010        1.165        0.349      127.331       21.600        0.029      341.033       15.464      860.703
10/16/2014  13:00:00       48.990       20.891       13.117       42.430       54.458       24.862     1800.280     2965.697      618.118        0.420        0.269       53.258       23.940        0.202      341.134       15.636      860.681
10/16/2014  13:01:00       56.009      -27.415       13.306       52.439       40.070       32.835     2749.901     1605.592     1078.167        0.475        0.272       62.359       30.692        0.242      341.382       16.056      860.682
10/16/2014  13:02:00       98.825      -92.931      -11.060       87.845      122.499       51.990     7716.668    15006.119     2702.961        2.197        1.271      135.656       70.488        0.270      341.362       16.022      860.708
10/16/2014  13:03:00      117.114     -213.973      -20.669       70.240       76.660       52.257     4933.650     5876.766     2730.744        3.673        0.677      243.926       42.458        0.030      341.192       15.731      860.708
10/16/2014  13:04:00        4.661     -120.759       37.877       57.856      103.982       77.550     3347.281    10812.332     6013.943        1.810        1.009      120.849       71.583        0.351      341.636       16.484      860.724
10/16/2014  13:05:00      146.054     -195.304      -27.185       76.494       97.604       58.193     5851.398     9526.614     3386.451        3.949        0.938      243.876       59.569        0.060      341.306       15.924      860.737
10/16/2014  13:06:00       52.023      -83.841        6.478      107.115       53.821       35.201    11473.551     2896.671     1239.103        1.269        0.780       98.670       27.354        0.077      341.642       16.495      860.739
10/16/2014  13:07:00      -53.789      -26.233       21.510       70.536       59.079       45.932     4975.263     3490.295     2109.741        0.731        0.529       59.845       35.350        0.349      341.951       17.020      860.696
10/16/2014  13:08:00      -20.567      -39.982       -3.103       49.409       39.548       36.149     2441.265     1564.031     1306.758        0.367        0.266       44.962       13.755        0.094      341.600       16.426      860.648
10/16/2014  13:09:00       39.472      -19.320       14.481       43.923       50.869       48.022     1929.223     2587.614     2306.135        0.448        0.341       43.947       38.523        0.768      341.844       16.838      860.612
10/16/2014  13:10:00       76.721      -34.352       22.180       89.352       62.610       40.331     7983.749     3919.983     1626.593        1.054        0.677       84.060       17.817        0.045      341.680       16.560      860.547
10/16/2014  13:11:00       69.066       60.022       80.751       58.398       52.318       45.428     3410.376     2737.141     2063.708        1.155        0.411       91.503       20.602        0.051      342.006       17.115      860.499
10/16/2014  13:12:00       59.509        0.680       28.116      102.361       76.965       57.546    10477.832     5923.638     3311.532        1.202        0.986       59.513       50.101        0.709      341.799       16.762      860.467
10/16/2014  13:13:00       49.792      -49.104        9.365       56.864       57.429       44.703     3233.537     3298.054     1998.382        0.675        0.426       69.932       36.475        0.272      341.860       16.865      860.464
10/16/2014  13:14:00       61.100      -47.496       42.233       69.078      106.619       54.249     4771.832    11367.521     2942.901        1.342        0.954       77.389       67.346        0.757      341.895       16.925      860.463
10/16/2014  13:15:00       99.482     -111.955       25.289       77.796       94.044       57.100     6052.246     8844.284     3260.451        2.061        0.908      149.768       53.849        0.129      341.688       16.572      860.462
10/16/2014  13:16:00       51.325       57.320      118.585       70.226       79.304       48.912     4931.647     6289.100     2392.401        1.680        0.681       76.940       38.270        0.247      341.796       16.757      860.452
10/16/2014  13:17:00       23.023       90.860      126.527       61.876       83.579       54.044     3828.621     6985.381     2920.786        1.926        0.687       93.732       44.489        0.225      341.768       16.709      860.451
10/16/2014  13:18:00       32.619       71.355       95.380       57.299       74.682       55.727     3283.201     5577.357     3105.461        1.361        0.598       78.457       55.330        0.497      341.934       16.991      860.457
10/16/2014  13:19:00        2.013       15.105       37.630       21.050       45.584       30.143      443.117     2077.896      908.605        0.254        0.171       15.238       28.217        3.429      342.167       17.388      860.448
10/16/2014  13:20:00       42.047      -62.776       15.674       61.190       55.786       43.505     3744.235     3112.067     1892.722        0.735        0.437       75.556       44.331        0.344      341.973       17.058      860.425
10/16/2014  13:21:00       32.259      -77.662        9.217       40.092       82.440       35.077     1607.385     6796.298     1230.398        0.839        0.482       84.095       39.029        0.215      341.733       16.650      860.405
10/16/2014  13:22:00        6.993        3.523       49.235       28.380       67.015       35.404      805.428     4490.960     1253.439        0.452        0.327        7.830       34.993       19.974      342.069       17.221      860.393
10/16/2014  13:23:00        8.208       11.131       48.048       33.416       27.652       26.932     1116.634      764.631      725.343        0.255        0.130       13.830       12.845        0.863      342.232       17.497      860.390
10/16/2014  13:24:00       30.977      -68.277        4.802       46.958       48.128       47.819     2205.011     2316.329     2286.675        0.623        0.340       74.975       35.792        0.228      342.122       17.310      860.375
10/16/2014  13:25:00       64.673      -62.508       29.997       60.124       61.965       39.631     3614.940     3839.629     1570.635        0.901        0.451       89.944       38.076        0.179      341.919       16.967      860.363
10/16/2014  13:26:00       42.863       -7.181       36.154       35.990       43.879       34.241     1295.288     1925.362     1172.453        0.379        0.220       43.460       25.750        0.351      341.946       17.011      860.356
10/16/2014  13:27:00      -70.984        9.631       20.322       77.439       52.781       42.138     5996.819     2785.837     1775.582        0.805        0.528       71.635       33.232        0.215      342.245       17.519      860.323
10/16/2014  13:28:00      -60.476      -27.177       12.050       74.995       37.527       27.518     5624.263     1408.241      757.237        0.616        0.389       66.302       17.202        0.067      342.143       17.346      860.319
10/16/2014  13:29:00      -25.213      -13.949      -11.650       46.458       38.356       26.332     2158.323     1471.184      693.351        0.264        0.216       28.815       11.811        0.168      342.210       17.460      860.313
10/16/2014  13:30:00        1.911      -30.960       17.925       44.801       51.345       33.505     2007.146     2636.263     1122.617        0.352        0.288       31.019       31.294        1.018      342.581       18.091      860.292
10/16/2014  13:31:00       23.748      -30.624       40.186       31.799      104.028       40.340     1011.163    10821.811     1627.342        0.829        0.673       38.753       56.317        2.112      342.463       17.890      860.296
10/16/2014  13:32:00        8.758       36.317       45.924       52.753       74.570       44.253     2782.853     5560.646     1958.293        0.690        0.515       37.358       51.775        1.921      342.158       17.372      860.307
10/16/2014  13:33:00       33.716      -78.544       13.314       66.856       75.488       44.299     4469.720     5698.482     1962.401        0.980        0.607       85.474       40.617        0.226      342.568       18.068      860.303
10/16/2014  13:34:00       69.041       11.345       47.246       60.993       71.790       42.541     3720.152     5153.830     1809.770        0.890        0.534       69.967       45.095        0.415      342.338       17.678      860.310
10/16/2014  13:35:00       59.229        5.566       52.524       84.434       61.534       45.725     7129.039     3786.395     2090.805        0.965        0.650       59.490       39.542        0.442      342.379       17.748      860.312
10/16/2014  13:36:00       51.980      -13.108       62.029       67.778       76.088       45.517     4593.846     5789.390     2071.831        0.959        0.623       53.607       39.536        0.544      342.175       17.401      860.295
10/16/2014  13:37:00       59.367       64.535       49.547       56.579       45.970       56.268     3201.170     2113.210     3166.061        0.931        0.424       87.688       41.559        0.225      342.153       17.364      860.289
10/16/2014  13:38:00       85.353       99.940      105.179       76.892       57.465       59.174     5912.384     3302.232     3501.543        2.052        0.636      131.427       51.305        0.152      341.850       16.848      860.269
10/16/2014  13:39:00       74.743       54.591       31.694       43.248       34.185       46.672     1870.369     1168.640     2178.280        0.739        0.261       92.557       23.997        0.067      341.925       16.976      860.282
10/16/2014  13:40:00       46.230      -72.632       -0.661       56.062       66.031       44.575     3142.979     4360.150     1986.975        0.845        0.475       86.096       42.998        0.249      342.067       17.217      860.297
10/16/2014  13:41:00        4.965       36.209       32.907       24.496       26.665       28.428      600.071      711.048      808.162        0.227        0.106       36.547       14.822        0.164      342.232       17.497      860.302
10/16/2014  13:42:00       12.914       10.946        4.827       31.500       33.043       21.312      992.234     1091.833      454.194        0.142        0.127       16.929       15.758        0.866      342.446       17.861      860.332
10/16/2014  13:43:00       45.879      -17.005       13.331      106.982       83.499       42.449    11445.129     6972.106     1801.886        1.139        1.011       48.929       48.364        0.977      342.658       18.223      860.350
10/16/2014  13:44:00       90.647     -143.868      -32.914      111.517       93.564       60.080    12435.954     8754.239     3609.633        2.739        1.240      170.044       63.862        0.141      342.132       17.326      860.361
10/16/2014  13:45:00       54.039     -149.721      -30.759       77.242       72.630       48.521     5966.383     5275.088     2354.284        1.994        0.680      159.174       36.904        0.054      342.352       17.700      860.374
10/16/2014  13:46:00      103.725     -150.701       -9.614       75.270       67.432       42.228     5665.647     4547.111     1783.230        2.278        0.600      182.947       43.134        0.056      342.115       17.296      860.383
10/16/2014  13:47:00       36.086      -72.635       -4.406       67.428       51.312       33.937     4546.558     2632.926     1151.718        0.746        0.417       81.105       27.431        0.114      342.181       17.411      860.384
10/16/2014  13:48:00       33.821        9.034       37.042       44.649       33.774       30.744     1993.548     1140.668      945.209        0.334        0.204       35.007       26.041        0.553      342.396       17.777      860.364
10/16/2014  13:49:00       15.136      -23.255       18.678       47.702       43.298       31.275     2275.507     1874.726      978.109        0.312        0.256       27.748       25.311        0.832      342.093       17.261      860.340
10/16/2014  13:50:00       51.287      -49.808       -9.695       63.693       46.211       36.311     4056.738     2135.486     1318.465        0.636        0.376       71.492       29.081        0.165      342.090       17.258      860.311
10/16/2014  13:51:00       16.800       21.696      -23.210       35.028       49.622       22.278     1226.961     2462.295      496.331        0.274        0.209       27.440       24.109        0.772      342.052       17.192      860.265
10/16/2014  13:52:00       31.189       35.239        7.847       45.037       30.444       23.778     2028.343      926.853      565.392        0.290        0.176       47.059       25.465        0.293      342.349       17.697      860.212
10/16/2014  13:53:00      126.974       81.478       27.624       54.092       43.636       36.682     2925.971     1904.109     1345.565        1.485        0.309      150.868       21.026        0.019      342.318       17.644      860.148
10/16/2014  13:54:00       81.609       54.878       32.931       37.449       33.023       39.905     1402.419     1090.490     1592.418        0.742        0.204       98.344       26.256        0.071      342.353       17.704      860.101
10/16/2014  13:55:00       86.148      -47.193       26.798       98.921      108.293       54.305     9785.328    11727.440     2948.997        1.741        1.223       98.228       58.542        0.355      342.374       17.738      860.050
10/16/2014  13:56:00      109.298       10.943       54.607      105.288       84.303       57.721    11085.557     7107.014     3331.750        1.828        1.076      109.845       57.901        0.278      342.401       17.783      860.006
10/16/2014  13:57:00      117.809      107.654       96.335      107.371       72.545       64.098    11528.629     5262.713     4108.523        2.782        1.045      159.588       60.154        0.142      342.330       17.662      859.967
10/16/2014  13:58:00      168.580      126.601       65.735       85.703       71.940       85.456     7344.945     5175.383     7302.711        3.429        0.991      210.824       66.253        0.099      342.049       17.185      859.951
10/16/2014  13:59:00       81.296       64.508       39.648       44.988       34.355       39.602     2023.953     1180.271     1568.315        0.856        0.239      103.780       21.440        0.043      342.094       17.263      859.920
10/16/2014  14:00:00       57.462       29.263        6.837       49.233       43.830       26.655     2423.910     1921.039      710.472        0.463        0.253       64.484       13.115        0.041      342.286       17.592      859.891
10/16/2014  14:01:00       70.844       59.104       43.510       50.664       42.626       45.632     2566.853     1816.981     2082.276        0.843        0.323       92.261       30.602        0.110      342.373       17.736      859.883
10/16/2014  14:02:00       47.500       55.691        6.496       43.496       39.690       33.213     1891.890     1575.275     1103.114        0.498        0.229       73.196       23.747        0.105      342.454       17.875      859.905
10/16/2014  14:03:00       32.876       39.860       -9.440       32.159       26.258       17.538     1034.197      689.497      307.593        0.239        0.102       51.669        6.622        0.016      342.523       17.992      859.938
10/16/2014  14:04:00       32.442        3.304       19.424       24.654       22.595       20.745      607.799      510.532      430.341        0.149        0.077       32.610       17.229        0.279      342.699       18.291      859.966
10/16/2014  14:05:00       37.741      -45.749       -9.202       31.942       44.127       26.876     1020.260     1947.229      722.317        0.365        0.184       59.307       26.223        0.195      342.102       17.277      859.997
10/16/2014  14:06:00       82.797      -81.134       -5.883       55.374       38.249       23.907     3066.272     1462.977      571.524        0.929        0.255      115.923       18.937        0.027      342.537       18.017      860.002
10/16/2014  14:07:00       44.690      -56.887        8.802       26.926       23.956       25.524      725.012      573.912      651.483        0.363        0.098       72.342       16.867        0.054      342.458       17.881      859.979
10/16/2014  14:08:00       33.662      -28.914       18.330       45.680       48.991       30.555     2086.686     2400.138      933.637        0.386        0.271       44.375       31.726        0.511      342.638       18.189      859.954
10/16/2014  14:09:00       12.895       -9.187       27.253       43.456       39.828       29.224     1888.413     1586.240      854.069        0.266        0.216       15.833       22.139        1.955      342.913       18.656      859.909
10/16/2014  14:10:00       74.836     -138.468       -4.199       74.157       92.665       59.027     5499.260     8586.735     3484.181        2.118        0.879      157.397       54.438        0.120      342.746       18.371      859.870
10/16/2014  14:11:00       50.547      -30.514       29.636       66.995       70.593       52.592     4488.358     4983.329     2765.943        0.830        0.612       59.043       51.700        0.767      342.912       18.654      859.859
10/16/2014  14:12:00       39.386      -57.894        2.616       41.994       37.702       28.088     1763.458     1421.428      788.922        0.444        0.199       70.021       23.682        0.114      342.652       18.213      859.838
10/16/2014  14:13:00       37.264      -56.246       19.905       46.182       62.060       40.245     2132.756     3851.473     1619.637        0.627        0.380       67.471       43.309        0.412      342.942       18.706      859.815
10/16/2014  14:14:00       14.615      -43.141        0.533       35.441       63.483       44.140     1256.081     4030.138     1948.357        0.465        0.362       45.549       43.380        0.907      343.048       18.885      859.800
10/16/2014  14:15:00       27.748      -16.202       20.052       39.157       36.744       33.704     1533.268     1350.097     1135.962        0.273        0.201       32.132       26.171        0.663      342.753       18.383      859.775
10/16/2014  14:16:00      -13.249      -20.525        7.677       26.500       43.140       19.172      702.227     1861.077      367.569        0.179        0.147       24.430       20.460        0.701      342.942       18.704      859.768
10/16/2014  14:17:00        5.676      -43.439        9.830       42.987       54.224       44.448     1847.914     2940.257     1975.584        0.439        0.338       43.809       24.063        0.302      342.926       18.677      859.752
10/16/2014  14:18:00        3.440        3.720       39.512       29.962       35.210       24.605      897.730     1239.712      605.397        0.216        0.137        5.067       13.486        7.084      343.142       19.044      859.746
10/16/2014  14:19:00       -2.729       15.575       34.349       15.752       19.121       12.919      248.116      365.620      166.907        0.111        0.039       15.812        6.093        0.149      343.506       19.665      859.738
10/16/2014  14:20:00       61.819       67.707       21.143       58.293       45.927       39.288     3398.112     2109.246     1543.553        0.795        0.353       91.683       22.113        0.058      342.755       18.387      859.707
10/16/2014  14:21:00       71.834       42.300       44.673       74.331       51.229       45.926     5525.031     2624.453     2109.209        0.960        0.513       83.363       36.850        0.195      342.978       18.767      859.689
10/16/2014  14:22:00      118.780       46.311       32.790       80.399       56.938       42.968     6463.981     3241.923     1846.207        1.444        0.578      127.489       42.909        0.113      342.593       18.111      859.683
10/16/2014  14:23:00       34.203       18.077       19.019       48.684       53.166       37.238     2370.094     2826.649     1386.644        0.422        0.329       38.686       30.292        0.613      342.761       18.398      859.672
10/16/2014  14:24:00       86.912       63.681       22.513       68.556       54.235       56.965     4699.983     2941.444     3245.011        1.150        0.544      107.745       31.718        0.087      342.954       18.725      859.690
10/16/2014  14:25:00       36.368        3.858       13.241       43.098       41.787       44.845     1857.466     1746.155     2011.062        0.356        0.281       36.573       30.710        0.705      342.773       18.417      859.727
10/16/2014  14:26:00       13.957       -9.130       23.005       20.426       25.287       17.979      417.223      639.444      323.244        0.109        0.069       16.678       12.696        0.579      342.921       18.669      859.735
10/16/2014  14:27:00       -8.188      -19.181      -17.715       29.204       18.101       14.007      852.884      327.659      196.201        0.106        0.069       20.855        8.028        0.148      342.613       18.145      859.736
10/16/2014  14:28:00      -45.397      -20.219        7.287       61.726       39.699       41.587     3810.092     1576.016     1729.451        0.482        0.356       49.695       36.041        0.526      342.959       18.735      859.696
10/16/2014  14:29:00       14.071      -18.059        7.014       49.697       35.195       26.925     2469.749     1238.712      724.982        0.250        0.222       22.894       27.952        1.491      342.988       18.783      859.681
10/16/2014  14:30:00       -3.821       -4.532       10.902       39.896       27.611       26.287     1591.673      762.385      690.995        0.160        0.152        5.928       15.375        6.727      342.980       18.770      859.673
10/16/2014  14:31:00       23.701      -23.931       15.456       48.815       37.054       27.902     2382.952     1372.994      778.532        0.295        0.227       33.681       19.158        0.324      342.958       18.733      859.663
10/16/2014  14:32:00        5.019       13.030       34.703       35.258       52.194       30.705     1243.108     2724.184      942.803        0.315        0.246       13.963       31.117        4.966      343.060       18.906      859.648
10/16/2014  14:33:00       21.790       -8.122       31.172       46.632       67.436       54.810     2174.528     4547.589     3004.088        0.562        0.486       23.254       52.420        5.081      343.173       19.099      859.623
10/16/2014  14:34:00       57.003      -64.860        5.872       33.451       58.859       40.602     1118.984     3464.418     1648.514        0.686        0.312       86.349       32.934        0.145      342.832       18.517      859.617
10/16/2014  14:35:00       36.701      -55.690       -1.944       60.713       53.597       35.171     3686.074     2872.621     1236.984        0.612        0.390       66.696       22.710        0.116      342.850       18.548      859.581
10/16/2014  14:36:00      114.979      -45.309       19.704       44.735       54.316       38.439     2001.258     2950.180     1477.538        1.104        0.321      123.584       32.251        0.068      342.547       18.032      859.561
10/16/2014  14:37:00       36.418       -4.481        5.161       41.094       24.212       18.850     1688.753      586.222      355.332        0.200        0.132       36.693       11.304        0.095      342.708       18.307      859.554
10/16/2014  14:38:00       48.946       -8.619       22.327       41.245       34.730       24.654     1701.133     1206.192      607.799        0.324        0.176       49.699       21.384        0.185      342.563       18.061      859.532
10/16/2014  14:39:00       94.178       61.930       65.581       56.868       46.865       31.748     3233.920     2196.370     1007.950        1.172        0.322      112.716       25.120        0.050      342.759       18.393      859.528
10/16/2014  14:40:00       61.054       53.694       62.878       64.330       62.305       49.892     4138.297     3881.925     2489.227        1.054        0.525       81.305       44.517        0.300      342.867       18.577      859.484
10/16/2014  14:41:00       84.141       80.526       94.943       96.469       73.552       60.034     9306.218     5409.871     3604.117        2.045        0.916      116.465       49.791        0.183      343.038       18.868      859.442
10/16/2014  14:42:00      121.208       57.166       23.010       80.890       62.732       53.852     6543.135     3935.306     2899.988        1.593        0.669      134.013       45.074        0.113      343.170       19.092      859.428
10/16/2014  14:43:00       39.843        1.498       42.648       43.879       42.134       37.192     1925.394     1775.269     1383.275        0.425        0.254       39.871       26.001        0.425      343.156       19.070      859.411
10/16/2014  14:44:00       72.371       83.915       49.041       72.421       42.806       42.518     5244.783     1832.351     1807.769        1.178        0.444      110.812       28.564        0.066      342.998       18.800      859.383
10/16/2014  14:45:00       41.536      -24.818       12.012       66.898       92.732       43.866     4475.398     8599.286     1924.184        0.874        0.750       48.385       38.387        0.629      343.351       19.401      859.387
10/16/2014  14:46:00       73.495      -64.684        2.093       30.314       44.804       17.795      918.960     2007.366      316.654        0.642        0.162       97.905       18.026        0.034      342.995       18.794      859.370
10/16/2014  14:47:00       48.956      -86.791       20.001       43.548       69.913       39.066     1896.447     4887.782     1526.118        0.932        0.416       99.646       26.800        0.072      343.275       19.272      859.352
10/16/2014  14:48:00      114.545     -194.261      -39.699       82.246       88.380       49.847     6764.422     7811.089     2484.678        3.474        0.853      225.517       54.978        0.059      343.158       19.069      859.333
10/16/2014  14:49:00      117.367     -148.240      -27.855       93.869       83.469       37.345     8811.311     6967.060     1394.677        2.685        0.859      189.077       36.679        0.038      343.095       18.962      859.325
10/16/2014  14:50:00       84.451     -131.366       -6.679       61.631       70.458       48.711     3798.392     4964.330     2372.768        1.778        0.557      156.170       49.775        0.102      343.225       19.186      859.325
10/16/2014  14:51:00       14.655      -12.339       36.401       35.856       62.806       33.263     1285.639     3944.541     1106.417        0.401        0.317       19.158       23.561        1.512      343.449       19.568      859.336
10/16/2014  14:52:00       45.015       21.702       57.336       45.877       85.870       62.384     2104.727     7373.696     3891.766        0.958        0.669       49.973       60.918        1.486      343.065       18.914      859.352
10/16/2014  14:53:00       63.620      -44.453       17.374       51.481       38.648       28.096     2650.340     1493.700      789.388        0.563        0.247       77.612       22.248        0.082      342.980       18.770      859.345
10/16/2014  14:54:00       39.915       20.278        8.060       30.137       31.999       24.509      908.216     1023.947      600.675        0.230        0.127       44.770        9.079        0.041      342.859       18.562      859.346
10/16/2014  14:55:00       28.584      -29.480        1.987       30.014       22.364       24.878      900.826      500.146      618.911        0.185        0.101       41.062       10.785        0.069      342.985       18.779      859.342
10/16/2014  14:56:00       28.969      -84.551       17.033       48.535       71.308       42.655     2355.618     5084.824     1819.445        0.877        0.463       89.376       37.608        0.177      343.019       18.836      859.336
10/16/2014  14:57:00       33.530      -45.944       27.012       55.346       84.144       44.475     3063.179     7080.138     1978.028        0.804        0.606       56.878       52.308        0.846      343.386       19.462      859.330
10/16/2014  14:58:00       85.643     -107.874       -4.158       68.706       84.676       34.408     4720.555     7169.977     1183.877        1.603        0.654      137.737       46.743        0.115      343.376       19.444      859.331
10/16/2014  14:59:00       33.407      -52.580       14.565       30.513       73.798       46.312      931.030     5446.134     2144.770        0.631        0.426       62.295       39.836        0.409      343.591       19.810      859.330
10/16/2014  15:00:00       27.101      -71.823       17.737       40.269       77.879       38.922     1621.586     6065.108     1514.890        0.770        0.460       76.766       40.554        0.279      343.415       19.511      859.320
10/16/2014  15:01:00       41.035      -30.859       18.455       39.245       51.788       33.494     1540.156     2681.975     1121.815        0.416        0.267       51.344       36.004        0.492      343.459       19.585      859.299
10/16/2014  15:02:00       50.182       43.329       25.612       35.666       36.133       28.302     1272.029     1305.592      801.017        0.421        0.169       66.300       24.105        0.132      343.249       19.228      859.295
10/16/2014  15:03:00       71.555       46.064       47.796       65.855       48.390       44.737     4336.914     2341.584     2001.442        0.910        0.434       85.100       41.139        0.234      343.380       19.450      859.273
10/16/2014  15:04:00       41.304       37.473       56.473       68.088       68.756       41.001     4636.018     4727.368     1681.088        0.867        0.552       55.770       38.911        0.487      343.483       19.627      859.255
10/16/2014  15:05:00      130.409       43.812       18.851       70.968       56.771       46.469     5036.517     3222.898     2159.397        1.485        0.521      137.572       13.436        0.010      343.247       19.224      859.234
10/16/2014  15:06:00      106.690       28.970       13.389       58.594       52.731       44.972     3433.286     2780.609     2022.478        1.032        0.412      110.553       36.728        0.110      343.242       19.215      859.220
10/16/2014  15:07:00       60.229       19.133       31.179       64.611       42.826       38.069     4174.637     1834.076     1449.261        0.621        0.373       63.195       20.823        0.109      343.210       19.161      859.210
10/16/2014  15:08:00       25.714       66.587       64.414       54.087       62.011       63.496     2925.423     3845.384     4031.729        1.002        0.540       71.380       55.608        0.607      343.099       18.973      859.199
10/16/2014  15:09:00       50.254       41.556       48.474       57.289       45.496       43.728     3282.009     2069.853     1912.156        0.693        0.363       65.211       31.498        0.233      343.309       19.330      859.201
10/16/2014  15:10:00      110.664       85.378        4.401       53.845       42.152       35.001     2899.300     1776.812     1225.072        1.273        0.295      139.770       19.679        0.020      343.314       19.338      859.198
10/16/2014  15:11:00      110.116       43.923       41.626       64.082       78.643       36.347     4106.479     6184.656     1321.132        1.370        0.581      118.553       26.381        0.050      343.103       18.980      859.213
10/16/2014  15:12:00       71.376       22.455       58.067      100.257       82.384       53.666    10051.556     6787.090     2880.076        1.434        0.986       74.824       65.163        0.758      343.139       19.040      859.226
10/16/2014  15:13:00       67.841      -21.465       33.679       66.849       52.970       42.974     4468.787     2805.830     1846.730        0.766        0.456       71.156       40.903        0.330      343.014       18.828      859.250
10/16/2014  15:14:00       15.380       28.184       44.337       42.815       53.501       30.459     1833.087     2862.391      927.732        0.431        0.281       32.108       28.980        0.815      343.477       19.616      859.266
10/16/2014  15:15:00       95.363     -125.026      -19.914       37.218       41.424       21.510     1385.203     1715.944      462.694        1.434        0.178      157.244       18.254        0.013      343.315       19.341      859.278
10/16/2014  15:16:00       38.706      -29.086       14.713       37.052       39.279       29.009     1372.869     1542.825      841.533        0.316        0.188       48.417       23.012        0.226      343.415       19.511      859.277
10/16/2014  15:17:00       31.948       15.489       24.766       29.076       39.930       21.299      845.407     1594.405      453.635        0.238        0.145       35.505       22.208        0.391      343.267       19.259      859.266
10/16/2014  15:18:00      102.202       73.142       37.193       36.345       24.922       26.584     1320.961      621.115      706.724        0.991        0.132      125.678       22.164        0.031      343.425       19.528      859.257
10/16/2014  15:19:00       74.662       69.633       23.936       33.899       20.281       33.457     1149.167      411.334     1119.374        0.684        0.134      102.094       17.608        0.030      343.279       19.278      859.257
10/16/2014  15:20:00       15.067        2.008       -5.583       25.065       36.991       14.916      628.271     1368.349      222.501        0.124        0.111       15.200       11.193        0.542      343.233       19.200      859.255
10/16/2014  15:21:00       50.200        9.264       37.015       49.453       63.943       39.445     2445.563     4088.654     1555.912        0.603        0.405       51.048       34.721        0.463      343.350       19.400      859.249
10/16/2014  15:22:00       94.658       60.810       31.374       87.565       61.527       48.638     7667.648     3785.545     2365.658        1.373        0.691      112.507       45.222        0.162      343.402       19.488      859.231
10/16/2014  15:23:00        5.575        0.442       23.558       24.132       37.673       25.452      582.348     1419.219      647.813        0.162        0.132        5.593       12.052        4.644      343.453       19.575      859.225
10/16/2014  15:24:00       22.265        8.087       29.262       53.333       63.808       53.277     2844.382     4071.509     2838.477        0.558        0.488       23.688       51.281        4.687      343.322       19.351      859.201
10/16/2014  15:25:00       86.922       54.009       71.634       65.328       68.399       56.130     4267.724     4678.434     3150.543        1.385        0.605      102.335       55.974        0.299      343.290       19.296      859.185
10/16/2014  15:26:00       60.303      117.646      109.489       88.168       73.486       57.357     7773.625     5400.220     3289.782        2.296        0.823      132.200       50.682        0.147      343.307       19.324      859.168
10/16/2014  15:27:00       86.904       69.090       56.561       87.243       57.420       50.850     7611.268     3297.037     2585.750        1.451        0.675      111.021       48.074        0.188      343.243       19.216      859.162
10/16/2014  15:28:00       25.965       25.312       46.787       41.838       38.160       25.168     1750.381     1456.179      633.439        0.367        0.192       36.262       16.394        0.204      343.288       19.294      859.158
10/16/2014  15:29:00       32.233       33.240       70.507       39.737       55.118       33.672     1579.039     3038.013     1133.831        0.643        0.288       46.302       33.031        0.509      343.157       19.072      859.148
10/16/2014  15:30:00       47.629      -78.526       16.987       49.756       56.203       33.934     2475.627     3158.730     1151.502        0.775        0.339       91.842       32.319        0.124      343.152       19.062      859.160
10/16/2014  15:31:00       27.535       15.826       21.367       36.969       22.022       19.674     1366.730      484.976      387.068        0.185        0.112       31.760       14.318        0.203      343.343       19.388      859.165
10/16/2014  15:32:00       48.902      -11.262       27.104       59.637       44.702       28.946     3556.528     1998.293      837.868        0.482        0.320       50.182       25.094        0.250      343.256       19.239      859.179
10/16/2014  15:33:00       43.941        9.925       51.508       46.534       41.499       28.847     2165.451     1722.133      832.176        0.470        0.236       45.048       30.089        0.446      343.169       19.092      859.197
10/16/2014  15:34:00       15.090       -5.365       37.470       42.714       47.148       29.567     1824.517     2222.941      874.194        0.329        0.246       16.016       17.582        1.205      343.000       18.803      859.205
10/16/2014  15:35:00       63.467       13.585       64.855       76.993       78.103       55.837     5927.934     6100.096     3117.736        1.178        0.757       64.905       59.288        0.834      343.434       19.542      859.209
10/16/2014  15:36:00      100.649      -14.648       44.765       71.534       59.799       50.557     5117.114     3575.895     2555.989        1.180        0.562      101.710       43.608        0.184      343.318       19.344      859.213
10/16/2014  15:37:00       53.350      -25.952       34.817       71.001       71.489       44.874     5041.089     5110.684     2013.631        0.845        0.608       59.327       34.703        0.342      343.298       19.311      859.215
10/16/2014  15:38:00      106.633      -71.378        9.367       76.818       65.091       50.442     5901.056     4236.847     2544.412        1.462        0.634      128.317       43.080        0.113      343.450       19.568      859.213
10/16/2014  15:39:00       87.335      -91.765       -1.441       52.018       47.616       28.555     2705.883     2267.244      815.400        1.092        0.289      126.682       33.560        0.070      343.447       19.564      859.220
10/16/2014  15:40:00       75.372     -115.231      -13.427       50.137       59.568       33.185     2513.719     3548.370     1101.258        1.315        0.358      137.692       25.760        0.035      343.487       19.632      859.216
10/16/2014  15:41:00       24.825       19.207       -1.791       17.550       41.171       15.536      308.012     1695.039      241.355        0.162        0.112       31.388       16.518        0.277      343.236       19.206      859.206
10/16/2014  15:42:00       16.972       -0.608        8.523       17.381       23.644       21.180      302.083      559.038      448.579        0.084        0.065       16.983       13.396        0.622      343.246       19.222      859.194
10/16/2014  15:43:00       39.198      -15.640       -7.182       35.694       31.179       20.519     1274.036      972.152      421.021        0.225        0.133       42.203       17.400        0.170      343.005       18.812      859.183
10/16/2014  15:44:00        6.965      -51.662       -4.209       18.433       42.603       21.001      339.783     1814.991      441.042        0.267        0.130       52.130       16.070        0.095      343.063       18.911      859.172
10/16/2014  15:45:00        6.563      -22.055        9.737       21.277       53.594       22.950      452.698     2872.329      526.713        0.224        0.193       23.011       19.658        0.730      343.547       19.734      859.167
10/16/2014  15:46:00       29.625      -36.178        7.240       37.559       28.095       29.277     1410.654      789.325      857.170        0.265        0.153       46.760       23.807        0.259      343.293       19.303      859.170
10/16/2014  15:47:00       47.355        6.310       -5.534       24.323       44.169       21.224      591.619     1950.911      450.440        0.265        0.150       47.774       11.647        0.059      343.147       19.053      859.163
10/16/2014  15:48:00       46.232      -20.272        8.495       44.524       30.811       26.139     1982.404      949.326      683.238        0.312        0.181       50.481       21.147        0.175      343.010       18.820      859.165
10/16/2014  15:49:00       86.322      -47.074       -5.673       43.300       28.969       27.115     1874.860      839.215      735.238        0.657        0.172       98.323       23.965        0.059      342.898       18.630      859.154
10/16/2014  15:50:00       18.539       10.957       29.824       25.775       30.346       19.299      664.333      920.878      372.433        0.166        0.098       21.534       16.105        0.559      343.165       19.084      859.150
10/16/2014  15:51:00       27.145      -43.549       14.242       25.927       32.612       20.267      672.220     1063.550      410.738        0.249        0.107       51.316       18.823        0.135      343.556       19.751      859.145
10/16/2014  15:52:00       46.195      -89.944      -12.945       47.903       50.498       30.731     2294.650     2550.093      944.392        0.809        0.289      101.114       32.115        0.101      343.673       19.949      859.140
10/16/2014  15:53:00       28.710      -13.823       10.608       29.297       47.093       36.003      858.333     2217.792     1296.210        0.275        0.219       31.864       29.622        0.864      343.505       19.665      859.130
10/16/2014  15:54:00       -2.174        6.982       46.231       27.668       34.505       27.702      765.519     1190.572      767.407        0.246        0.136        7.313       10.265        1.970      343.502       19.658      859.120
10/16/2014  15:55:00       19.208       10.765       24.891       37.588       28.258       22.373     1412.869      798.516      500.554        0.191        0.136       22.019       18.368        0.696      343.222       19.183      859.108
10/16/2014  15:56:00        7.259        3.337       21.277       26.913       23.757       21.705      724.310      564.372      471.112        0.114        0.088        7.989       14.110        3.119      343.127       19.020      859.099
10/16/2014  15:57:00       32.769       -9.076       14.373       46.149       34.374       30.250     2129.700     1181.575      915.091        0.279        0.211       34.003       23.875        0.493      343.279       19.280      859.095
10/16/2014  15:58:00       26.816       21.185       34.922       28.707       34.209       23.842      824.109     1170.225      568.453        0.247        0.128       34.174       25.104        0.540      342.901       18.636      859.094
10/16/2014  15:59:00       27.562       24.923        3.265       59.021       37.136       22.473     3483.491     1379.053      505.052        0.338        0.268       37.160       29.887        0.647      342.957       18.731      859.085
10/16/2014  16:00:00       49.285       23.243       20.788       37.025       51.807       19.343     1370.820     2684.016      374.155        0.391        0.221       54.491       26.980        0.245      343.382       19.454      859.076
10/16/2014  16:01:00       39.890      -10.247        9.062       25.456       39.824       22.970      648.014     1585.957      527.615        0.227        0.138       41.185       15.422        0.140      342.908       18.648      859.075
10/16/2014  16:02:00       30.062        1.636       24.224       43.631       36.184       22.661     1903.705     1309.317      513.507        0.261        0.186       30.106       23.959        0.633      342.969       18.752      859.071
10/16/2014  16:03:00       23.586      -10.207       31.518       32.321       42.248       27.995     1044.678     1784.903      783.739        0.263        0.181       25.700       24.958        0.943      343.015       18.830      859.058
10/16/2014  16:04:00       26.538      -27.030        7.879       32.623       42.116       31.916     1064.238     1773.790     1018.639        0.268        0.193       37.880       26.465        0.488      342.999       18.801      859.036
10/16/2014  16:05:00       53.026      -74.324        2.452       36.541       69.301       29.229     1335.257     4802.565      854.319        0.767        0.350       91.301       30.304        0.110      343.407       19.497      859.013
10/16/2014  16:06:00       44.423      -81.646        2.979       28.293       34.047       24.037      800.521     1159.212      577.783        0.559        0.127       92.949       25.091        0.073      343.606       19.834      859.001
10/16/2014  16:07:00       21.474      -16.041       38.307       38.113       41.545       21.393     1452.578     1725.996      457.669        0.291        0.182       26.803       25.371        0.896      343.374       19.440      858.994
10/16/2014  16:08:00        4.791      -33.345       20.864       30.061       41.058       26.485      903.669     1685.767      701.445        0.243        0.165       33.688       16.498        0.240      343.758       20.095      859.001
10/16/2014  16:09:00       -4.112      -12.875        2.426       22.744       20.836       14.393      517.300      434.123      207.149        0.067        0.058       13.516        9.352        0.479      343.697       19.991      859.002
10/16/2014  16:10:00       -2.331      -16.504       14.147       24.573       26.253       15.100      603.836      689.238      228.022        0.100        0.076       16.668       15.339        0.847      343.655       19.919      859.001
10/16/2014  16:11:00      -16.490       -0.208       -4.118       16.581       17.484       19.630      274.931      305.685      385.350        0.063        0.048       16.491        9.661        0.343      343.585       19.800      858.999
10/16/2014  16:12:00      -23.777       -0.965        5.451       24.012       26.085       19.635      576.556      680.423      385.544        0.112        0.082       23.797       19.343        0.661      343.671       19.948      858.997
10/16/2014  16:13:00      -12.300      -12.223       -3.080       29.960       25.370       22.809      897.577      643.647      520.241        0.119        0.103       17.341        6.410        0.137      343.604       19.833      858.998
10/16/2014  16:14:00       28.250      -27.654       19.992       40.713       45.328       25.370     1657.567     2054.669      643.632        0.316        0.218       39.533       26.209        0.440      343.615       19.850      859.001
10/16/2014  16:15:00       49.201      -93.899        5.824       32.011       34.541       29.831     1024.709     1193.084      889.869        0.719        0.155      106.009       13.332        0.016      343.757       20.093      858.983
10/16/2014  16:16:00       48.399      -53.949       13.066       61.076       57.253       35.081     3730.252     3277.928     1230.678        0.683        0.412       72.477       42.402        0.342      343.666       19.938      858.961
10/16/2014  16:17:00       65.931      -91.180      -10.550       35.635       41.975       20.403     1269.855     1761.910      416.297        0.811        0.172      112.520       17.710        0.025      343.561       19.758      858.944
10/16/2014  16:18:00       54.439      -72.785      -16.850       39.589       43.430       26.905     1567.308     1886.144      723.869        0.636        0.209       90.892       23.238        0.065      343.550       19.740      858.937
10/16/2014  16:19:00       19.492      -54.572       20.345       31.301       37.815       26.227      979.739     1429.939      687.863        0.343        0.155       57.948       22.728        0.154      343.697       19.991      858.929
10/16/2014  16:20:00       48.239      -41.062       -1.575       22.059       34.569       24.438      486.580     1194.984      597.193        0.315        0.114       63.348       21.066        0.111      342.978       18.766      858.930
10/16/2014  16:21:00       29.182      -19.426       15.535       31.395       27.376       27.311      985.633      749.458      745.892        0.198        0.124       35.057       21.456        0.375      343.029       18.853      858.924
10/16/2014  16:22:00       60.141      -36.953        1.187       42.149       34.286       28.230     1776.578     1175.529      796.912        0.437        0.187       70.587       30.501        0.187      343.043       18.876      858.903
10/16/2014  16:23:00       19.390        4.793       -8.596       24.432       26.372       17.681      596.945      695.493      312.620        0.104        0.080       19.974       11.582        0.336      343.067       18.916      858.884
10/16/2014  16:24:00       13.272        6.908        5.877       15.800       22.611       18.274      249.628      511.256      333.926        0.068        0.055       14.963       17.530        1.373      343.137       19.036      858.870
10/16/2014  16:25:00       -0.292      -41.489       -3.953       24.812       29.583       26.396      615.626      875.150      696.744        0.196        0.109       41.490       15.156        0.133      342.873       18.588      858.875
10/16/2014  16:26:00       14.463       -2.483       21.289       22.510       33.026       24.103      506.689     1090.701      580.945        0.142        0.109       14.674       12.905        0.773      343.249       19.228      858.885
10/16/2014  16:27:00      -11.505        4.040       17.668       16.841       29.546       17.489      283.620      872.957      305.862        0.096        0.073       12.193       10.961        0.808      343.335       19.375      858.897
10/16/2014  16:28:00       -3.849        7.550       -0.217       18.796       16.521       18.531      353.304      272.952      343.396        0.052        0.048        8.474        9.314        1.208      343.482       19.624      858.917
10/16/2014  16:29:00       38.454      -44.980        2.567       31.555       37.457       23.364      995.725     1402.991      545.900        0.323        0.147       59.177       20.177        0.116      343.366       19.428      858.934
10/16/2014  16:30:00       14.577       12.655       22.311       30.366       30.308       28.455      922.114      918.599      809.674        0.176        0.133       19.304       18.687        0.937      343.197       19.139      858.940
10/16/2014  16:31:00       33.482       -3.234       14.656       38.228       25.764       23.743     1461.397      663.785      563.725        0.202        0.134       33.637       17.458        0.269      343.023       18.844      858.946
10/16/2014  16:32:00       51.651       -0.125       26.604       21.509       14.659       19.285      462.630      214.892      371.913        0.221        0.052       51.651       12.044        0.054      343.056       18.900      858.957
10/16/2014  16:33:00       63.359      -11.790       17.613       22.310       26.201       23.221      497.741      686.494      539.219        0.309        0.086       64.446       19.336        0.090      343.186       19.120      858.961
10/16/2014  16:34:00       12.520       11.655       28.023       41.759       29.778       21.678     1743.827      886.733      469.934        0.209        0.155       17.105       22.470        1.726      343.263       19.251      858.967
10/16/2014  16:35:00      -11.133      -21.093        3.003       31.559       20.792       17.170      995.978      432.314      294.824        0.115        0.086       23.851       18.334        0.591      343.482       19.625      858.968
10/16/2014  16:36:00      -14.165       15.813       29.141       33.409       34.598       21.007     1116.133     1197.026      441.283        0.203        0.138       21.230       20.092        0.896      343.279       19.280      858.981
10/16/2014  16:37:00      -32.057      -40.396        6.644       45.356       23.220       17.133     2057.186      539.157      293.535        0.280        0.144       51.570       17.869        0.120      343.828       20.216      858.995
10/16/2014  16:38:00       -9.078       -6.493       -5.993       26.550       17.280       13.928      704.887      298.606      194.000        0.068        0.060       11.161        9.701        0.756      343.794       20.156      859.002
10/16/2014  16:39:00      -22.915      -31.788       -2.325       29.567       25.050       11.395      874.223      627.496      129.844        0.159        0.082       39.187       13.931        0.126      343.816       20.195      859.007
10/16/2014  16:40:00      -25.942        9.650        1.699       11.421       12.471        8.979      130.429      155.515       80.621        0.057        0.018       27.678        4.875        0.031      343.815       20.193      858.994
10/16/2014  16:41:00      -13.967        5.628       -4.586       31.013       22.244       17.520      961.812      494.806      306.938        0.101        0.088       15.058       13.368        0.788      343.745       20.073      858.984
10/16/2014  16:42:00       16.398       16.442       21.560       15.993       12.429       17.024      255.769      154.483      289.827        0.085        0.035       23.221        8.669        0.139      343.090       18.957      858.953
10/16/2014  16:43:00       18.971       -0.733       21.827       17.734       14.395       11.710      314.478      207.208      137.132        0.075        0.033       18.985        3.061        0.026      343.185       19.117      858.924
10/16/2014  16:44:00       26.793        3.277       21.216       37.102       27.433       21.556     1376.523      752.572      464.681        0.189        0.130       26.992       22.985        0.725      343.145       19.051      858.902
10/16/2014  16:45:00       -3.275        3.130       14.070       18.512       25.489       14.786      342.712      649.709      218.632        0.071        0.061        4.530       12.784        7.963      343.287       19.293      858.865
10/16/2014  16:46:00      -28.301       10.068       17.568       30.089       23.516       16.146      905.341      553.023      260.691        0.146        0.086       30.039       14.786        0.242      343.605       19.835      858.833
10/16/2014  16:47:00       26.067      -16.351        8.060       24.863       30.566       19.062      618.190      934.252      363.351        0.146        0.096       30.771       17.027        0.306      343.206       19.154      858.810
10/16/2014  16:48:00        0.378       15.307       26.139       17.943       18.086       14.464      321.967      327.090      209.199        0.089        0.043       15.312       14.400        0.884      343.241       19.213      858.807
10/16/2014  16:49:00      -49.357      -31.722        5.841       45.979       33.120       14.695     2114.114     1096.954      215.937        0.345        0.171       58.672       24.033        0.168      343.596       19.820      858.816
10/16/2014  16:50:00      -30.064      -26.843       -3.877       29.823       19.642       13.912      889.439      385.794      193.531        0.155        0.073       40.303       15.507        0.148      343.833       20.223      858.830
10/16/2014  16:51:00       10.854      -11.724       24.841       29.382       28.616       15.433      863.301      818.884      238.188        0.140        0.096       15.977        8.918        0.312      343.740       20.065      858.843
10/16/2014  16:52:00        6.613      -43.413       17.499       37.847       46.846       23.488     1432.358     2194.585      551.688        0.321        0.209       43.913       15.385        0.123      343.894       20.327      858.842
10/16/2014  16:53:00       20.392      -45.977       17.442       43.502       39.257       23.375     1892.455     1541.146      546.393        0.341        0.199       50.296       23.437        0.217      343.928       20.386      858.836
10/16/2014  16:54:00       54.493      -43.432       15.405       40.542       32.743       27.163     1643.625     1072.104      737.813        0.427        0.173       69.684       19.093        0.075      343.810       20.183      858.829
10/16/2014  16:55:00       39.942      -43.432       10.752       40.320       40.475       32.965     1625.702     1638.237     1086.662        0.397        0.218       59.006       29.803        0.255      343.729       20.046      858.826
10/16/2014  16:56:00       11.583      -29.970       11.016       27.239       28.862       27.607      741.969      833.019      762.131        0.175        0.117       32.130       18.282        0.324      343.792       20.153      858.829
10/16/2014  16:57:00       -4.031       -2.803       24.366       13.673       32.437       15.395      186.957     1052.155      237.015        0.105        0.074        4.910        5.670        1.333      343.693       19.985      858.845
10/16/2014  16:58:00      -10.334       22.330       34.434       17.759       21.544       16.066      315.392      464.149      258.123        0.141        0.052       24.605       14.338        0.340      343.501       19.657      858.872
10/16/2014  16:59:00       14.420      -51.081       11.811       22.401       29.982       22.631      501.826      898.950      512.166        0.243        0.096       53.078       18.046        0.116      343.947       20.418      858.892
10/16/2014  17:00:00        4.537        2.522       33.422       21.523       26.727       15.623      463.231      714.315      244.065        0.128        0.071        5.191       12.544        5.840      343.807       20.180      858.910
10/16/2014  17:01:00       -2.024        7.739       30.246       18.629       21.525       16.146      347.048      463.321      260.687        0.102        0.054        7.999        6.323        0.625      343.529       19.704      858.905
10/16/2014  17:02:00       56.830      -16.493       16.898       30.040       23.256       19.634      902.393      540.843      385.506        0.281        0.091       59.175       19.965        0.114      343.572       19.779      858.897
10/16/2014  17:03:00       47.638        1.301       14.648       30.395       17.921       20.117      923.849      321.150      404.675        0.207        0.082       47.656       13.346        0.078      343.620       19.861      858.871
10/16/2014  17:04:00       44.894       27.079        9.188       20.856       17.749       24.556      434.983      315.016      602.987        0.209        0.068       52.429       13.406        0.065      343.213       19.166      858.836
10/16/2014  17:05:00       59.148       39.117       10.094       17.134       17.251       18.278      293.590      297.585      334.092        0.303        0.046       70.912        7.105        0.010      343.376       19.443      858.810
10/16/2014  17:06:00       37.997       23.597       -8.727       22.627       18.542       13.997      511.977      343.811      195.903        0.156        0.053       44.728       14.863        0.110      343.526       19.700      858.777
10/16/2014  17:07:00       10.461       44.621       -1.369       22.391       21.312       12.371      501.373      454.221      153.051        0.161        0.055       45.831       10.574        0.053      343.843       20.240      858.758
10/16/2014  17:08:00        7.983       38.486        1.136       14.178       19.497       12.150      201.023      380.138      147.618        0.114        0.036       39.305       10.320        0.069      343.843       20.240      858.737
10/16/2014  17:09:00        9.194        5.910       -4.816       11.622       18.590        9.984      135.062      345.572       99.673        0.036        0.029       10.930        8.695        0.633      343.287       19.292      858.722
10/16/2014  17:10:00       20.818       14.827       -4.756       19.424       17.119       12.455      377.301      293.048      155.138        0.075        0.041       25.558       14.441        0.319      343.424       19.527      858.695
10/16/2014  17:11:00        5.921       16.639       -2.128       19.449        9.330       14.647      378.252       87.058      214.525        0.050        0.034       17.661       11.606        0.432      343.813       20.190      858.678
10/16/2014  17:12:00        3.036       15.332       17.817       19.551       17.058       16.776      382.255      290.960      281.450        0.076        0.048       15.629       10.531        0.454      343.901       20.342      858.650
10/16/2014  17:13:00       36.813       11.809       15.585       20.012       12.321       23.123      400.479      151.805      534.666        0.141        0.054       38.661       15.734        0.166      343.528       19.703      858.641
10/16/2014  17:14:00       23.091       -3.366        8.565       17.001       19.128        9.733      289.042      365.861       94.738        0.068        0.037       23.335        3.555        0.023      343.630       19.876      858.630
10/16/2014  17:15:00       33.670        7.535       15.897       21.099       19.845       20.714      445.154      393.835      429.078        0.136        0.063       34.503        8.853        0.066      343.077       18.936      858.620
10/16/2014  17:16:00       18.807       19.632       30.284       33.593       26.984       24.278     1128.472      728.136      589.418        0.205        0.122       27.187       23.288        0.734      342.977       18.764      858.610
10/16/2014  17:17:00       16.874        6.314       17.237       38.706       34.378       27.546     1498.144     1181.856      758.756        0.203        0.172       18.016       29.797        2.735      343.067       18.919      858.593
10/16/2014  17:18:00       44.798       -7.681        9.333       41.365       27.451       26.494     1711.068      753.564      701.927        0.266        0.158       45.451       25.485        0.314      343.040       18.872      858.589
10/16/2014  17:19:00       38.358      -41.640       -9.486       26.020       27.418       24.621      677.057      751.735      606.184        0.266        0.102       56.614       13.271        0.055      343.384       19.457      858.588
10/16/2014  17:20:00       32.778        1.809       14.551       27.436       18.505       18.674      752.742      342.443      348.704        0.137        0.072       32.828       12.493        0.145      343.543       19.729      858.581
10/16/2014  17:21:00      -25.500        8.020       27.838       36.550       20.120       22.132     1335.898      404.797      489.824        0.186        0.112       26.732       23.355        0.763      344.000       20.509      858.566
10/16/2014  17:22:00       10.778       -3.401       23.566       21.302       19.327       17.481      453.765      373.534      305.590        0.091        0.057       11.302       14.853        1.727      343.610       19.844      858.562
10/16/2014  17:23:00       20.306       -5.377        2.092       21.052       34.252       29.681      443.205     1173.215      880.954        0.147        0.125       21.006       13.785        0.431      343.306       19.325      858.549
10/16/2014  17:24:00       17.086      -12.427       18.132       35.167       25.838       23.587     1236.692      667.608      556.336        0.162        0.123       21.127       18.598        0.775      343.093       18.963      858.540
10/16/2014  17:25:00       54.311      -46.564        1.564       38.788       44.761       31.172     1504.495     2003.562      971.667        0.480        0.224       71.539       28.228        0.156      343.111       18.992      858.546
10/16/2014  17:26:00       93.760      -70.243      -11.388       40.341       39.132       29.947     1627.411     1531.299      896.844        0.895        0.203      117.154       21.401        0.033      343.128       19.021      858.560
10/16/2014  17:27:00       61.390      -91.138      -24.186       31.036       32.065       19.606      963.220     1028.173      384.383        0.752        0.119      109.886       13.666        0.015      343.752       20.085      858.568
10/16/2014  17:28:00       74.198      -93.349      -18.340       13.886       22.841       12.982      192.819      521.701      168.529        0.772        0.044      119.245        6.725        0.003      343.801       20.169      858.577
10/16/2014  17:29:00       32.823      -93.707      -17.509       30.998       25.053       21.555      960.884      627.661      464.628        0.611        0.103       99.289       17.805        0.032      343.850       20.254      858.585
10/16/2014  17:30:00       10.184      -50.022       -2.954       32.097       28.626       23.316     1030.242      819.443      543.651        0.250        0.120       51.048       20.739        0.165      343.877       20.300      858.596
10/16/2014  17:31:00        0.400       -8.154       28.350       28.626       44.883       25.165      819.444     2014.449      633.259        0.217        0.173        8.164       30.774       14.210      343.595       19.818      858.601
10/16/2014  17:32:00       13.508       11.996       20.466       45.946       24.440       19.180     2111.039      597.316      367.868        0.191        0.154       18.066       20.034        1.230      343.268       19.260      858.600
10/16/2014  17:33:00        9.342        4.693       15.056       21.237       11.548        9.903      451.019      133.356       98.077        0.051        0.034       10.454        6.079        0.338      343.078       18.936      858.582
10/16/2014  17:34:00       24.915      -10.171        6.307       24.505       16.807       21.168      600.519      282.478      448.087        0.105        0.067       26.912        6.118        0.052      343.072       18.925      858.555
10/16/2014  17:35:00      -15.048      -12.556       -1.715       33.777       18.257       15.858     1140.900      333.326      251.472        0.106        0.086       19.598       10.910        0.310      343.338       19.381      858.533
10/16/2014  17:36:00      -88.523      -35.748       -0.474       28.834       23.453       13.980      831.376      550.063      195.435        0.535        0.079       95.468       13.965        0.021      343.752       20.085      858.512
10/16/2014  17:37:00      -97.981      -32.598       -4.183       26.483       28.575       14.577      701.342      816.525      212.492        0.621        0.087      103.261        9.789        0.009      343.811       20.186      858.516
10/16/2014  17:38:00     -121.498      -13.228       -8.432       40.987       26.751       16.842     1679.974      715.618      283.640        0.884        0.134      122.216       17.991        0.022      343.815       20.194      858.519
10/16/2014  17:39:00     -148.862      -11.789      -17.037       28.274       27.570       16.199      799.397      760.098      262.420        1.221        0.091      149.328       12.289        0.007      343.794       20.157      858.522
10/16/2014  17:40:00     -111.747      -42.850        0.096       46.746       35.575       25.540     2185.152     1265.608      652.281        0.921        0.205      119.681       24.806        0.043      343.685       19.971      858.521
10/16/2014  17:41:00      -87.232      -23.045        4.022       31.629       30.872       21.367     1000.412      953.111      456.533        0.528        0.121       90.225       19.984        0.049      343.755       20.091      858.518
10/16/2014  17:42:00      -27.222      -15.261        1.663       28.144       34.538       19.789      792.102     1192.862      391.612        0.168        0.119       31.208       18.260        0.342      343.593       19.813      858.511
10/16/2014  17:43:00     -113.167      -40.420       -4.445       27.581       29.372       16.795      760.717      862.726      282.089        0.818        0.095      120.169       12.059        0.010      343.720       20.031      858.499
10/16/2014  17:44:00      -96.795      -24.907       -1.770       22.318       19.290       13.175      498.095      372.086      173.587        0.552        0.052       99.949       12.421        0.015      343.749       20.080      858.495
10/16/2014  17:45:00      -65.013       -9.122        6.332       19.872       19.067       17.053      394.877      363.548      290.814        0.270        0.052       65.650       13.268        0.041      343.721       20.032      858.492
10/16/2014  17:46:00      -91.751      -28.655        5.674       22.334       23.986       17.367      498.793      575.311      301.600        0.532        0.069       96.122       16.846        0.031      343.772       20.118      858.500
10/16/2014  17:47:00      -96.576       -0.397       -6.026       29.016       31.727       18.756      841.929     1006.629      351.772        0.578        0.110       96.576       15.804        0.027      343.642       19.896      858.514
10/16/2014  17:48:00     -124.150       -3.078      -10.575       45.704       22.702       18.201     2088.825      515.361      331.285        0.923        0.147      124.188       23.596        0.036      343.565       19.765      858.534
10/16/2014  17:49:00      -64.120      -16.395        4.321       44.410       33.916       21.283     1972.258     1150.282      452.962        0.399        0.179       66.183       21.955        0.110      343.423       19.523      858.544
10/16/2014  17:50:00     -124.361      -73.222       -7.412       25.655       29.410       20.501      658.183      864.927      420.277        1.141        0.097      144.316       10.521        0.005      343.512       19.675      858.521
10/16/2014  17:51:00     -124.570      -56.980       -3.935       40.617       27.718       20.987     1649.722      768.313      440.462        1.082        0.143      136.984       18.848        0.019      343.455       19.578      858.486
10/16/2014  17:52:00      -78.368      -36.805       -1.249       46.804       31.967       19.727     2190.642     1021.912      389.166        0.555        0.180       86.580       18.999        0.048      343.374       19.440      858.448
10/16/2014  17:53:00      -63.983      -30.546        2.644       44.451       30.999       19.793     1975.894      960.968      391.756        0.418        0.166       70.901       22.799        0.103      343.303       19.318      858.427
10/16/2014  17:54:00      -67.895      -29.273        5.108       30.596       28.953       15.389      936.095      838.277      236.814        0.375        0.101       73.937       11.397        0.024      343.334       19.373      858.420
10/16/2014  17:55:00      -38.811      -27.146        0.426       46.959       30.853       16.947     2205.159      951.913      287.195        0.284        0.172       47.362       19.007        0.161      343.131       19.028      858.434
10/16/2014  17:56:00      -70.933      -41.596       11.183       44.935       27.386       25.163     2019.173      749.977      633.166        0.514        0.170       82.230       25.779        0.098      343.238       19.208      858.453
10/16/2014  17:57:00      -73.431      -44.348        1.261       26.416       32.939       19.789      697.821     1084.957      391.597        0.477        0.109       85.783       11.568        0.018      343.226       19.189      858.472
10/16/2014  17:58:00      -98.197      -58.662       -0.591       21.296       27.126       13.830      453.533      735.821      191.274        0.723        0.069      114.385       10.730        0.009      343.360       19.415      858.495
10/16/2014  17:59:00     -111.382      -41.541        0.430       29.069       21.425       14.497      845.004      459.014      210.175        0.782        0.076      118.877       15.386        0.017      343.279       19.279      858.515
10/16/2014  18:00:00      -85.081      -49.901        3.970       40.880       33.405       19.293     1671.167     1115.892      372.235        0.645        0.158       98.635       19.312        0.038      343.270       19.264      858.524
10/16/2014  18:01:00      -57.457      -37.896        6.798       45.156       32.316       20.979     2039.024     1044.305      440.102        0.415        0.176       68.829       23.623        0.118      343.180       19.110      858.539
10/16/2014  18:02:00      -90.219      -34.759       -3.871       33.769       24.051       17.022     1140.366      578.440      289.760        0.569        0.100       96.683       18.442        0.036      343.235       19.203      858.527
10/16/2014  18:03:00      -85.538      -37.746        6.504       29.219       32.289       17.468      853.724     1042.599      305.132        0.549        0.110       93.496       15.088        0.026      343.220       19.178      858.506
10/16/2014  18:04:00      -67.935      -49.190        5.040       26.403       20.809       17.699      697.111      433.030      313.255        0.425        0.072       83.874       11.604        0.019      343.127       19.020      858.480
10/16/2014  18:05:00      -73.482      -23.495       -2.405       19.610       22.688       12.201      384.553      514.736      148.860        0.350        0.052       77.147       10.114        0.017      343.200       19.143      858.438
10/16/2014  18:06:00      -76.475      -28.286       -5.402       20.484       22.562       14.489      419.580      509.043      209.941        0.391        0.057       81.538       12.776        0.025      343.191       19.128      858.422
10/16/2014  18:07:00      -56.425      -16.056       -1.339       25.460       20.566       14.895      648.220      422.961      221.873        0.237        0.065       58.665       15.872        0.073      343.122       19.011      858.415
10/16/2014  18:08:00      -60.850       -3.386       -1.778       21.738       18.511       14.364      472.545      342.652      206.325        0.237        0.051       60.945       13.255        0.047      343.094       18.965      858.412
10/16/2014  18:09:00      -59.112      -10.475       -1.279       12.350       13.386        8.444      152.520      179.189       71.294        0.200        0.020       60.033        5.861        0.010      343.058       18.902      858.430
10/16/2014  18:10:00      -43.674       -0.715       -5.498       28.780        9.367        8.882      828.295       87.748       78.892        0.147        0.050       43.680       11.697        0.072      343.050       18.887      858.432
10/16/2014  18:11:00       36.699       -5.367        8.177       33.358       23.038       22.213     1112.738      530.756      493.435        0.179        0.107       37.090       20.136        0.295      342.359       17.715      858.437
10/16/2014  18:12:00       53.167        8.481        4.854       22.463       14.474       20.454      504.577      209.491      418.368        0.203        0.057       53.839       12.684        0.055      342.335       17.673      858.445
10/16/2014  18:13:00       76.569       28.490        9.772       30.182       33.903       26.049      910.982     1149.413      678.565        0.475        0.137       81.698       16.984        0.043      342.378       17.745      858.455
10/16/2014  18:14:00      152.336       65.613       13.450       40.102       41.992       24.953     1608.188     1763.336      622.671        1.584        0.200      165.866       12.446        0.006      342.543       18.025      858.464
10/16/2014  18:15:00      124.388       95.642       21.193       34.720       32.579       26.443     1205.466     1061.361      699.235        1.402        0.148      156.907       17.759        0.013      342.692       18.279      858.465
10/16/2014  18:16:00       48.864       30.556       13.198       35.276       25.623       17.299     1244.370      656.547      299.243        0.285        0.110       57.631       14.488        0.063      342.568       18.069      858.466
10/16/2014  18:17:00       63.864       57.885       48.764       49.131       49.317       43.135     2413.864     2432.121     1860.610        0.826        0.335       86.193       42.158        0.239      342.544       18.027      858.464
10/16/2014  18:18:00      119.349       87.905       33.124       50.507       33.690       31.871     2550.994     1134.985     1015.765        1.388        0.235      148.227       27.401        0.034      342.826       18.507      858.458
10/16/2014  18:19:00       93.547       75.367       22.225       24.418       32.783       24.177      596.240     1074.698      584.543        0.859        0.113      120.130       12.411        0.011      342.565       18.063      858.475
10/16/2014  18:20:00       96.913       56.212       25.056       24.078       24.550       19.269      579.736      602.678      371.304        0.737        0.078      112.035       10.273        0.008      342.579       18.087      858.483
10/16/2014  18:21:00       81.925       47.449       27.699       43.669       25.783       28.887     1906.945      664.776      834.479        0.657        0.170       94.674       17.435        0.034      342.528       18.000      858.502
10/16/2014  18:22:00      117.706       80.710       26.451       49.587       35.107       34.046     2458.884     1232.497     1159.133        1.296        0.243      142.720       19.862        0.019      342.794       18.452      858.519
10/16/2014  18:23:00       69.576       43.664       19.652       33.763       21.190       25.190     1139.966      449.013      634.543        0.468        0.111       82.143       11.819        0.021      342.652       18.211      858.537
10/16/2014  18:24:00       84.951       55.108       27.060       41.171       38.736       28.297     1695.037     1500.489      800.728        0.749        0.200      101.260       21.556        0.045      342.461       17.887      858.545
10/16/2014  18:25:00      121.582       86.962       22.651       50.432       40.140       34.008     2543.406     1611.218     1156.522        1.408        0.266      149.481       27.683        0.034      342.707       18.304      858.543
10/16/2014  18:26:00      118.261       65.788       38.111       49.114       38.669       27.035     2412.201     1495.314      730.865        1.220        0.232      135.328       12.897        0.009      342.694       18.283      858.543
10/16/2014  18:27:00      156.038      101.762       25.190       51.237       47.359       41.497     2625.223     2242.866     1721.985        2.096        0.330      186.289       29.698        0.025      342.792       18.447      858.534
10/16/2014  18:28:00      139.404       82.536       29.060       57.618       45.744       43.463     3319.808     2092.556     1889.056        1.719        0.365      162.005       26.277        0.026      342.732       18.347      858.526
10/16/2014  18:29:00       91.645       79.184       18.802       45.540       40.514       35.776     2073.886     1641.423     1279.913        1.001        0.250      121.115       27.927        0.053      342.694       18.283      858.534
10/16/2014  18:30:00       50.042       64.897        4.506       45.704       31.854       32.915     2088.842     1014.670     1083.422        0.546        0.209       81.950       25.700        0.098      342.723       18.331      858.543
10/16/2014  18:31:00       68.508       49.647       16.551       35.693       25.625       30.553     1273.997      656.620      933.484        0.515        0.143       84.606       14.142        0.028      342.643       18.197      858.562
10/16/2014  18:32:00       80.620       52.928       19.653       25.817       30.212       27.473      666.538      912.785      754.773        0.601        0.117       96.442        9.936        0.011      342.307       17.626      858.567
10/16/2014  18:33:00      104.880       70.780       25.848       20.332       25.997       23.477      413.394      675.831      551.190        0.916        0.082      126.529        8.483        0.004      342.595       18.115      858.574
10/16/2014  18:34:00       64.302       45.869       18.677       38.417       25.001       24.792     1475.900      625.053      614.641        0.465        0.136       78.986       13.126        0.028      342.580       18.087      858.566
10/16/2014  18:35:00       68.777       30.469       20.726       26.623       22.491       23.594      708.799      505.856      556.673        0.393        0.089       75.224       11.856        0.025      342.064       17.214      858.559
10/16/2014  18:36:00       63.126       36.470        8.835       25.788       20.647       16.928      665.029      426.285      286.558        0.339        0.069       72.904       10.108        0.019      342.418       17.813      858.558
10/16/2014  18:37:00       54.183       40.970        8.226       20.725       20.282       23.059      429.522      411.341      531.705        0.303        0.069       67.929       12.042        0.031      342.253       17.532      858.550
10/16/2014  18:38:00       15.432       25.323        2.127       22.200       20.691       18.609      492.819      428.130      346.280        0.108        0.063       29.655       14.651        0.244      342.166       17.386      858.557
10/16/2014  18:39:00        8.649       47.589       -6.001       21.188       18.797        8.604      448.926      353.317       74.021        0.163        0.044       48.369        6.729        0.019      342.650       18.210      858.557
10/16/2014  18:40:00       -3.507       66.956      -13.613       16.263       15.136        7.923      264.470      229.101       62.775        0.262        0.028       67.048        7.487        0.012      342.820       18.499      858.574
10/16/2014  18:41:00       10.285       67.539       -8.209       18.189       20.501       11.239      330.851      420.300      126.322        0.281        0.044       68.317        9.860        0.021      342.761       18.397      858.580
10/16/2014  18:42:00       18.603       58.755      -12.092       17.918       25.128       12.430      321.045      631.430      154.499        0.253        0.055       61.629        8.647        0.020      342.704       18.299      858.588
10/16/2014  18:43:00       19.964       79.672      -16.065       19.583       15.515       11.929      383.493      240.700      142.293        0.389        0.038       82.135        9.174        0.012      342.766       18.404      858.585
10/16/2014  18:44:00       47.520       42.003        6.551       25.281       17.517       16.338      639.106      306.856      266.930        0.264        0.061       63.423       12.091        0.036      342.635       18.182      858.587
10/16/2014  18:45:00       24.772       23.935        7.170       26.176       15.147       17.510      685.188      229.428      306.592        0.123        0.061       34.446        8.670        0.063      342.350       17.699      858.590
10/16/2014  18:46:00       39.430       38.554        7.563       21.738       13.353       20.323      472.555      178.309      413.033        0.208        0.053       55.146       10.608        0.037      342.555       18.048      858.598
10/16/2014  18:47:00       34.694       42.040       -7.669       25.380       22.892       18.109      644.124      524.025      327.944        0.226        0.075       54.508       12.987        0.057      342.567       18.067      858.625
10/16/2014  18:48:00       43.301       48.164       -2.821       29.463       23.683       23.572      868.091      560.866      555.629        0.309        0.099       64.767       18.414        0.081      342.647       18.202      858.646
10/16/2014  18:49:00       36.207       37.538        4.141       30.744       25.514       25.146      945.167      650.944      632.315        0.248        0.111       52.154       17.222        0.109      342.605       18.131      858.669
10/16/2014  18:50:00       45.598       53.532       -3.153       26.427       25.156       24.488      698.407      632.812      599.662        0.344        0.097       70.320       17.731        0.064      342.648       18.204      858.689
10/16/2014  18:51:00       44.397       71.840       -9.048       26.489       28.836       23.182      701.691      831.509      537.400        0.464        0.104       84.452       14.817        0.031      342.664       18.232      858.711
10/16/2014  18:52:00       25.733       57.272      -12.141       23.600       29.369       18.904      556.970      862.520      357.350        0.293        0.089       62.788       13.070        0.043      342.647       18.203      858.724
10/16/2014  18:53:00       31.381       49.031        0.545       25.252       27.738       22.272      637.644      769.398      496.055        0.265        0.095       58.213       18.187        0.098      342.634       18.181      858.736
10/16/2014  18:54:00       15.885       50.918      -12.391       18.199       17.802       11.673      331.218      316.921      136.266        0.189        0.039       53.339        9.406        0.031      342.692       18.277      858.736
10/16/2014  18:55:00       -0.299       71.238      -11.511       23.956       19.723       12.007      573.890      388.985      144.171        0.316        0.055       71.239       10.235        0.021      342.726       18.337      858.739
10/16/2014  18:56:00      -33.723       46.877       -9.144       30.058       19.923       10.667      903.496      396.929      113.794        0.242        0.071       57.747        6.971        0.015      342.760       18.394      858.743
10/16/2014  18:57:00      -50.787       -0.191       -6.740       23.709       43.387       14.075      562.095     1882.445      198.093        0.263        0.132       50.787       10.109        0.040      342.519       17.985      858.756
10/16/2014  18:58:00      -67.016       11.085        5.335       60.820       37.217       33.930     3699.024     1385.119     1151.213        0.544        0.312       67.927       39.475        0.338      342.418       17.816      858.779
10/16/2014  18:59:00      -92.536        0.746       -7.399       50.462       35.061       24.429     2546.421     1229.298      596.792        0.649        0.219       92.539       25.593        0.076      342.338       17.679      858.792
10/16/2014  19:00:00      -78.528        0.216       -7.487       34.667       34.848       18.166     1201.790     1214.374      329.995        0.448        0.137       78.528       12.728        0.026      342.475       17.912      858.802
10/16/2014  19:01:00      -72.845      -10.046       -1.320       32.427       38.018       18.496     1051.478     1445.400      342.106        0.412        0.142       73.535       16.798        0.052      342.395       17.774      858.791
10/16/2014  19:02:00      -57.580       -1.932        4.794       34.095       34.068       22.319     1162.485     1160.655      498.124        0.308        0.141       57.613       19.255        0.112      342.289       17.595      858.792
10/16/2014  19:03:00      -53.995       -4.270        2.578       35.479       35.818       24.126     1258.786     1282.928      582.050        0.303        0.156       54.164       25.134        0.215      342.262       17.548      858.797
10/16/2014  19:04:00      -58.524      -15.358       -0.389       36.692       25.676       17.788     1346.271      659.243      316.414        0.299        0.116       60.505       18.264        0.091      342.173       17.399      858.806
10/16/2014  19:05:00      -48.720       -3.338       -6.729       35.237       24.513       18.129     1241.651      600.890      328.647        0.230        0.109       48.835       20.744        0.180      342.240       17.510      858.821
10/16/2014  19:06:00      -93.817      -38.537       -2.542       25.810       15.625       14.438      666.179      244.137      208.470        0.571        0.056      101.424        9.641        0.009      342.133       17.329      858.825
10/16/2014  19:07:00      -69.959      -19.656       11.301       35.017       25.590       17.550     1226.195      654.872      307.997        0.380        0.109       72.668       16.536        0.052      342.016       17.131      858.832
10/16/2014  19:08:00      -55.922      -12.059        7.598       32.980       36.631       20.641     1087.649     1341.823      426.052        0.309        0.143       57.208       16.034        0.079      341.997       17.097      858.828
10/16/2014  19:09:00      -25.066      -18.429       14.836       28.518       30.223       13.468      813.268      913.437      181.393        0.155        0.095       31.111       14.304        0.211      341.851       16.851      858.840
10/16/2014  19:10:00      -41.641      -23.042        5.796       39.186       25.267       14.414     1535.541      638.414      207.765        0.234        0.119       47.591        9.349        0.039      341.826       16.808      858.835
10/16/2014  19:11:00        5.725       -5.663       17.736       14.367       24.260       13.743      206.407      588.548      188.858        0.068        0.049        8.052       10.780        1.792      341.672       16.547      858.845
10/16/2014  19:12:00      -11.058        4.525       -8.276       28.543       23.510       16.169      814.692      552.736      261.431        0.092        0.081       11.948       14.458        1.464      342.029       17.154      858.861
10/16/2014  19:13:00      -18.863       -9.698       -0.439       20.298       27.801       12.420      412.015      772.909      154.251        0.089        0.067       21.210        6.363        0.090      342.106       17.282      858.864
10/16/2014  19:14:00       -2.312       -1.524       12.078       23.518       21.962       13.963      553.079      482.309      194.978        0.069        0.062        2.769        5.440        3.859      342.008       17.117      858.887
10/16/2014  19:15:00       -0.212        0.980        5.311       23.479       21.843       12.365      551.278      477.097      152.894        0.061        0.059        1.002        5.390       28.922      342.144       17.349      858.901
10/16/2014  19:16:00      -21.205       29.814       -4.909       20.568       18.249       15.046      423.028      333.008      226.369        0.117        0.049       36.586       10.788        0.087      342.223       17.481      858.913
10/16/2014  19:17:00      -18.874       52.782      -10.967       31.044       21.810       17.390      963.725      475.691      302.425        0.250        0.087       56.055       15.372        0.075      342.315       17.639      858.922
10/16/2014  19:18:00      -33.206       46.852      -10.797       20.019       12.412        9.492      400.770      154.048       90.091        0.203        0.032       57.426        6.664        0.013      342.329       17.662      858.918
10/16/2014  19:19:00      -22.015       58.643       -6.549       18.475       18.057       10.398      341.316      326.057      108.129        0.237        0.039       62.639        9.927        0.025      342.364       17.723      858.915
10/16/2014  19:20:00      -15.962       65.130       -7.781       23.360       20.587       11.826      545.685      423.842      139.864        0.283        0.055       67.057       11.710        0.030      342.370       17.733      858.928
10/16/2014  19:21:00      -11.259       98.432      -21.118       22.313       25.811       12.866      497.864      666.216      165.524        0.580        0.066       99.074       12.342        0.016      342.359       17.713      858.928
10/16/2014  19:22:00      -15.322      125.853      -23.654       22.337       20.010       10.689      498.952      400.389      114.248        0.882        0.051      126.783        8.967        0.005      342.394       17.773      858.930
10/16/2014  19:23:00       12.918      120.777      -17.705       24.513       21.021       11.862      600.908      441.886      140.695        0.813        0.059      121.466        7.632        0.004      342.313       17.636      858.929
10/16/2014  19:24:00       13.262      110.932      -19.269       23.033       25.535       10.832      530.536      652.020      117.323        0.708        0.065      111.722        8.279        0.005      342.175       17.401      858.933
10/16/2014  19:25:00       18.952       68.961      -11.151       21.442       35.115       17.160      459.762     1233.068      294.451        0.361        0.099       71.518       18.665        0.068      342.065       17.213      858.946
10/16/2014  19:26:00        8.129       72.962       -9.634       21.810       40.300       14.571      475.674     1624.063      212.325        0.390        0.116       73.413       16.217        0.049      342.051       17.190      858.946
10/16/2014  19:27:00        2.877      114.643      -20.160       20.813       34.966       11.383      433.200     1222.618      129.577        0.767        0.089      114.679       16.131        0.020      342.245       17.518      858.942
10/16/2014  19:28:00        4.691       72.579      -15.629       15.918       23.106        8.918      253.399      533.908       79.525        0.320        0.043       72.731        8.869        0.015      342.236       17.505      858.960
10/16/2014  19:29:00      -35.290       -0.764       -8.405       10.367       22.732        9.164      107.465      516.733       83.986        0.101        0.035       35.299       10.388        0.087      341.771       16.714      858.970
10/16/2014  19:30:00      -23.258       35.137       -9.568       24.948       20.539       17.467      622.423      421.843      305.097        0.161        0.067       42.138       16.987        0.163      342.118       17.304      858.987
10/16/2014  19:31:00      -21.169       15.863       -3.240       28.152       27.573       12.020      792.563      760.269      144.478        0.120        0.085       26.453       12.936        0.239      341.966       17.046      859.014
10/16/2014  19:32:00      -38.938        6.992       -4.376       24.235       25.732       17.468      587.339      662.131      305.139        0.157        0.078       39.561       14.532        0.135      341.832       16.819      859.031
10/16/2014  19:33:00      -39.336       -1.194       -4.867        9.493        7.773        7.090       90.112       60.416       50.261        0.089        0.010       39.354        4.471        0.013      341.562       16.360      859.031
10/16/2014  19:34:00      -46.539       -6.493       -6.076       13.027       11.459        7.627      169.700      131.311       58.174        0.130        0.018       46.990        6.321        0.018      341.508       16.271      859.036
10/16/2014  19:35:00      -63.994       12.896      -10.175       19.156       15.924       11.923      366.971      253.558      142.151        0.256        0.038       65.280       10.052        0.024      341.474       16.210      859.054
10/16/2014  19:36:00      -76.263        8.128      -13.173       15.288       16.105        9.387      233.736      259.376       88.119        0.332        0.029       76.695        6.329        0.007      341.397       16.081      859.060
10/16/2014  19:37:00      -71.867      -19.195      -14.176       13.870       15.066       10.150      192.388      226.986      103.030        0.313        0.026       74.386        8.591        0.013      341.378       16.049      859.062
10/16/2014  19:38:00      -77.061      -12.230      -14.624       18.187       15.063       10.170      330.752      226.908      103.424        0.348        0.033       78.026        7.215        0.009      341.375       16.044      859.063
10/16/2014  19:39:00      -62.758       -7.974       -7.562       22.171       13.851       13.005      491.557      191.848      169.141        0.246        0.043       63.262       13.628        0.046      341.314       15.941      859.043
10/16/2014  19:40:00      -63.202      -10.193      -12.403       19.385       18.708        9.133      375.783      349.977       83.421        0.253        0.040       64.019        5.444        0.007      341.353       16.006      859.034
10/16/2014  19:41:00      -44.616       -4.375       -4.257       17.608       14.928       13.613      310.058      222.851      185.322        0.137        0.036       44.830       10.786        0.058      341.506       16.265      859.030
10/16/2014  19:42:00      -46.178       -5.036      -13.225        9.821       16.333        8.804       96.462      266.760       77.509        0.139        0.022       46.452        4.581        0.010      341.388       16.066      859.020
10/16/2014  19:43:00      -22.768       10.138       -7.846       22.909       27.424       12.967      524.845      752.094      168.141        0.106        0.072       24.924        8.775        0.124      341.514       16.281      859.011
10/16/2014  19:44:00      -47.622        1.106       -3.263       15.304       16.724       11.531      234.212      279.680      132.968        0.146        0.032       47.635        7.169        0.023      341.281       15.884      859.023
10/16/2014  19:45:00      -40.767       -6.793       -8.342       13.603       17.003        8.886      185.049      289.087       78.964        0.117        0.028       41.329        8.208        0.039      341.292       15.903      859.031
10/16/2014  19:46:00      -47.172      -19.672      -11.853        9.535       15.444        8.432       90.920      238.523       71.104        0.158        0.020       51.109        2.078        0.002      341.284       15.890      859.032
10/16/2014  19:47:00      -18.608       26.035        1.214       17.396       22.509       13.289      302.625      506.637      176.599        0.101        0.049       32.001       12.645        0.156      341.595       16.417      859.050
10/16/2014  19:48:00      -37.176       -5.714       -4.605       16.852       17.521       11.995      283.973      306.972      143.883        0.109        0.037       37.613       11.527        0.094      341.380       16.052      859.064
10/16/2014  19:49:00      -24.176        6.430       -1.961       21.997       18.518       14.946      483.871      342.920      223.373        0.084        0.053       25.017        9.989        0.159      341.432       16.140      859.061
10/16/2014  19:50:00      -33.957       -6.066       -3.850       16.029       15.018        8.594      256.943      225.540       73.855        0.088        0.028       34.494        3.768        0.012      341.342       15.988      859.055
10/16/2014  19:51:00      -43.380       51.467      -22.408       29.611       42.420       14.354      876.791     1799.419      206.024        0.396        0.144       67.310       13.225        0.039      341.689       16.576      859.052
10/16/2014  19:52:00      -18.160       29.090        2.357       29.746       24.345       13.054      884.841      592.696      170.405        0.141        0.082       34.294       14.861        0.188      341.597       16.421      859.038
10/16/2014  19:53:00      -11.285       83.538       -0.269       22.409       28.800       16.361      502.166      829.441      267.684        0.435        0.080       84.297       15.049        0.032      341.909       16.950      859.033
10/16/2014  19:54:00      -19.158       91.781       -9.299       26.078       19.167       17.318      680.058      367.390      299.927        0.511        0.067       93.759       13.305        0.020      341.941       17.002      859.038
10/16/2014  19:55:00       -0.587      105.224      -10.125       16.172       20.755       13.451      261.544      430.779      180.923        0.602        0.044      105.225       13.396        0.016      341.962       17.039      859.034
10/16/2014  19:56:00       -3.563      104.989      -11.672       24.281       38.658       17.396      589.551     1494.461      302.627        0.678        0.119      105.049       17.524        0.028      341.963       17.041      859.034
10/16/2014  19:57:00      -11.883      106.179       -9.266       18.447       18.253       18.603      340.308      333.168      346.080        0.626        0.051      106.841       12.951        0.015      341.976       17.064      859.053
10/16/2014  19:58:00       -8.538      138.996      -16.593       24.623       26.575       15.026      606.284      706.228      225.772        1.060        0.077      139.258       11.983        0.007      342.027       17.149      859.064
10/16/2014  19:59:00      -13.717      138.607      -16.266       34.777       38.005       13.782     1209.446     1444.383      189.954        1.125        0.142      139.284       10.373        0.006      342.033       17.159      859.068
10/16/2014  20:00:00        2.994      105.101      -10.191       24.894       31.785       15.904      619.731     1010.289      252.923        0.652        0.094      105.143       16.210        0.024      341.977       17.065      859.081
10/16/2014  20:01:00       -0.537       96.164       -1.274       20.153       26.522       15.869      406.128      703.412      251.822        0.531        0.068       96.166       12.262        0.016      341.983       17.073      859.090
10/16/2014  20:02:00      -13.648       68.633       -7.127       13.810       31.001       11.227      190.703      961.075      126.052        0.311        0.064       69.977       11.919        0.029      341.859       16.867      859.083
10/16/2014  20:03:00        2.719       88.624       -7.712       24.796       25.300       13.362      614.824      640.099      178.546        0.468        0.072       88.665       13.277        0.022      341.916       16.961      859.080
10/16/2014  20:04:00      -10.892       39.208       13.326       17.202       32.099       16.375      295.921     1030.365      268.146        0.171        0.080       40.692       15.762        0.150      341.683       16.566      859.078
10/16/2014  20:05:00       -4.372       69.069       -5.939       20.713       26.740       12.764      429.023      715.002      162.919        0.307        0.065       69.207       14.164        0.042      341.868       16.880      859.068
10/16/2014  20:06:00       -0.134      111.488      -13.723       16.545       16.470       11.437      273.748      271.258      130.804        0.665        0.034      111.488        6.730        0.004      341.867       16.879      859.054
10/16/2014  20:07:00        2.403      101.767      -12.988       17.631       14.806       11.726      310.837      219.221      137.505        0.560        0.033      101.796        7.076        0.005      341.791       16.749      859.038
10/16/2014  20:08:00        5.925      118.364      -14.101       25.376       25.180       12.807      643.922      634.032      164.022        0.784        0.072      118.513        9.625        0.007      341.908       16.949      859.035
10/16/2014  20:09:00       -3.685      147.690      -19.697       26.739       24.736       15.286      714.958      611.858      233.648        1.189        0.078      147.736       13.322        0.008      341.943       17.006      859.026
10/16/2014  20:10:00      -12.974      112.416      -13.181       25.496       30.532       18.357      650.039      932.185      336.961        0.745        0.096      113.162       16.963        0.022      341.895       16.926      859.023
10/16/2014  20:11:00      -30.406       84.175      -15.703       30.720       27.828       14.557      943.701      774.416      211.902        0.509        0.097       89.498        8.917        0.010      341.841       16.834      859.030
10/16/2014  20:12:00      -27.075       84.859      -11.116       35.756       26.033       19.170     1278.524      677.693      367.508        0.519        0.116       89.074       17.567        0.039      341.802       16.767      859.048
10/16/2014  20:13:00      -25.116      101.849      -10.272       33.099       38.844       19.571     1095.545     1508.831      383.035        0.705        0.149      104.900       21.926        0.044      341.810       16.780      859.048
10/16/2014  20:14:00      -26.745       96.422      -11.359       28.033       37.047       21.196      785.861     1372.458      449.257        0.637        0.130      100.062       14.502        0.021      341.808       16.777      859.041
10/16/2014  20:15:00       -7.238      103.884       -9.124       23.266       43.867       20.177      541.292     1924.284      407.125        0.690        0.144      104.135       23.717        0.052      341.779       16.728      859.031
10/16/2014  20:16:00       -7.609      131.005      -15.607       35.165       30.990       19.723     1236.601      960.382      389.016        1.002        0.129      131.226       18.613        0.020      341.835       16.825      859.031
10/16/2014  20:17:00       10.443      127.032      -13.160       24.069       21.902       13.788      579.327      479.684      190.104        0.883        0.062      127.461       12.801        0.010      341.823       16.805      859.045
10/16/2014  20:18:00       18.493      116.616       -2.478       40.395       51.540       30.305     1631.765     2656.340      918.388        0.958        0.260      118.074       29.648        0.063      341.788       16.743      859.053
10/16/2014  20:19:00       14.800       92.490       -0.094       25.740       31.858       24.036      662.548     1014.962      577.741        0.551        0.113       93.667       16.810        0.032      341.736       16.657      859.056
10/16/2014  20:20:00       32.638       88.570       -1.541       31.747       36.561       22.673     1007.903     1336.727      514.047        0.588        0.143       94.392       21.521        0.052      341.682       16.564      859.057
10/16/2014  20:21:00       35.666      137.667      -17.126       37.234       57.173       29.188     1386.334     3268.809      851.944        1.301        0.275      142.212       34.813        0.060      341.768       16.711      859.067
10/16/2014  20:22:00       44.771      138.240      -12.800       46.518       65.009       32.343     2163.896     4226.213     1046.093        1.436        0.372      145.309       36.378        0.063      341.852       16.851      859.073
10/16/2014  20:23:00       27.709      115.823       -4.226       33.788       50.150       36.870     1141.623     2515.044     1359.399        0.961        0.251      119.092       33.604        0.080      341.812       16.785      859.070
10/16/2014  20:24:00       32.927      142.968      -13.054       31.159       52.121       35.278      970.907     2716.596     1244.511        1.331        0.247      146.711       37.026        0.064      341.827       16.809      859.075
10/16/2014  20:25:00       24.136      134.983      -17.132       29.629       35.686       17.872      877.889     1273.526      319.401        1.078        0.124      137.124       15.782        0.013      341.844       16.839      859.071
10/16/2014  20:26:00       34.846      122.716      -15.652       28.564       27.123       21.532      815.889      735.658      463.634        0.927        0.101      127.568       15.840        0.015      341.864       16.872      859.077
10/16/2014  20:27:00       18.826      143.787      -18.228       27.978       28.675       15.762      782.757      822.278      248.433        1.161        0.093      145.014       11.817        0.007      341.865       16.874      859.068
10/16/2014  20:28:00       27.425      185.639      -30.173       27.490       28.766       17.752      755.676      827.509      315.146        1.901        0.095      187.654       16.068        0.007      341.935       16.993      859.052
10/16/2014  20:29:00       14.999      145.095      -16.930       32.749       37.534       18.060     1072.497     1408.838      326.161        1.219        0.140      145.869       17.999        0.015      341.844       16.838      859.038
10/16/2014  20:30:00       13.317      161.626      -23.115       27.550       34.031       15.680      759.013     1158.130      245.863        1.450        0.108      162.174       18.127        0.012      341.899       16.932      859.026
10/16/2014  20:31:00        9.860      157.636      -22.123       35.375       44.614       21.666     1251.377     1990.374      469.416        1.457        0.186      157.944       22.861        0.021      341.824       16.804      859.019
10/16/2014  20:32:00       33.809      134.903      -15.402       32.192       70.379       37.328     1036.318     4953.136     1393.363        1.348        0.369      139.075       42.635        0.094      341.878       16.896      859.027
10/16/2014  20:33:00       49.723       63.413        7.611       44.913       40.897       34.159     2017.147     1672.586     1166.868        0.570        0.243       80.583       29.640        0.135      341.731       16.647      859.035
10/16/2014  20:34:00       31.454      146.067      -18.408       31.492       44.125       23.570      991.715     1947.014      555.523        1.308        0.175      149.415       22.173        0.022      341.775       16.723      859.034
10/16/2014  20:35:00        6.740       91.332        2.274       26.400       34.341       26.874      696.969     1179.323      722.196        0.549        0.130       91.580       21.282        0.054      341.682       16.565      859.038
10/16/2014  20:36:00       14.488      100.449       -1.449       23.704       31.290       22.632      561.858      979.075      512.217        0.618        0.103      101.489       17.803        0.031      341.649       16.509      859.034
10/16/2014  20:37:00        2.067      149.133      -20.144       31.375       32.039       13.291      984.376     1026.466      176.642        1.242        0.109      149.147       12.338        0.007      341.757       16.693      859.039
10/16/2014  20:38:00        0.295      172.070      -27.977       33.913       29.780       12.748     1150.114      886.878      162.519        1.629        0.110      172.070       10.431        0.004      341.800       16.765      859.066
10/16/2014  20:39:00      -18.762      150.402      -23.756       24.144       28.521       14.803      582.928      813.473      219.131        1.258        0.081      151.567       13.501        0.008      341.790       16.748      859.086
10/16/2014  20:40:00       -9.446      152.339      -22.484       21.302       18.865       14.182      453.775      355.885      201.130        1.241        0.051      152.632        8.657        0.003      341.797       16.760      859.096
10/16/2014  20:41:00        3.972      133.848      -20.426       28.529       23.987       13.258      813.902      575.380      175.783        0.996        0.078      133.907       11.235        0.007      341.759       16.695      859.099
10/16/2014  20:42:00        9.664       96.223      -11.305       26.185       35.105       19.417      685.643     1232.348      377.018        0.589        0.115       96.707       18.665        0.037      341.660       16.526      859.091
10/16/2014  20:43:00      -11.994      139.361      -20.283       24.615       31.576       13.980      605.899      997.052      195.442        1.089        0.090      139.877       14.507        0.011      341.731       16.646      859.078
10/16/2014  20:44:00       14.588      107.111      -11.875       30.062       45.708       23.027      903.748     2089.194      530.246        0.767        0.176      108.099       26.765        0.061      341.701       16.597      859.078
10/16/2014  20:45:00        0.856       95.402       -5.907       27.101       48.537       24.539      734.486     2355.805      602.176        0.641        0.185       95.406       28.256        0.088      341.633       16.481      859.069
10/16/2014  20:46:00       26.445      147.136      -18.467       32.714       31.382       21.757     1070.192      984.857      473.359        1.261        0.126      149.493       17.424        0.014      341.826       16.807      859.067
10/16/2014  20:47:00       27.225       62.436        7.383       42.891       45.073       31.480     1839.625     2031.573      991.001        0.478        0.243       68.113       25.482        0.140      341.643       16.500      859.071
10/16/2014  20:48:00       28.038       91.701       -2.914       34.596       37.746       22.005     1196.863     1424.759      484.212        0.615        0.155       95.892       22.671        0.056      341.643       16.498      859.074
10/16/2014  20:49:00        1.536       81.175       -4.457       36.569       33.606       18.504     1337.258     1129.336      342.386        0.471        0.140       81.189       16.368        0.041      341.724       16.636      859.086
10/16/2014  20:50:00       -4.876       62.681        4.021       33.283       28.257       20.000     1107.785      798.461      399.998        0.314        0.115       62.870       21.199        0.114      341.636       16.486      859.097
10/16/2014  20:51:00      -13.086       37.750       -0.776       23.358       30.686       13.195      545.603      941.630      174.104        0.163        0.083       39.953       11.323        0.080      341.624       16.468      859.102
10/16/2014  20:52:00      -10.317        7.463       -3.815       10.164       17.772        9.814      103.315      315.855       96.311        0.035        0.026       12.733        8.574        0.453      341.405       16.096      859.106
10/16/2014  20:53:00       -9.028       25.529        5.484       18.021       20.978       14.110      324.753      440.072      199.083        0.086        0.048       27.078       11.158        0.170      341.437       16.148      859.116
10/16/2014  20:54:00      -14.075       -2.118       -1.213       15.939       16.166        8.714      254.045      261.354       75.937        0.040        0.030       14.234        7.087        0.248      341.170       15.696      859.132
10/16/2014  20:55:00      -22.698       15.052       -4.024       16.491       31.637       11.932      271.961     1000.898      142.372        0.109        0.071       27.235       16.159        0.352      341.209       15.763      859.148
10/16/2014  20:56:00      -36.273        5.675       -4.020       32.138       31.617       11.795     1032.870      999.607      139.112        0.177        0.109       36.714        4.291        0.014      341.151       15.665      859.161
10/16/2014  20:57:00      -10.586       26.951       -0.674       32.892       22.782       10.662     1081.867      519.039      113.685        0.128        0.086       28.955        9.052        0.098      341.373       16.040      859.169
10/16/2014  20:58:00      -23.204        3.191       -1.270       13.364        9.077        9.305      178.607       82.398       86.585        0.045        0.017       23.422        4.856        0.043      341.137       15.641      859.169
10/16/2014  20:59:00      -20.883       17.152       -3.065       22.626       18.506       12.168      511.955      342.474      148.065        0.087        0.050       27.024       11.356        0.177      341.386       16.062      859.164
10/16/2014  21:00:00      -20.839       63.671       -5.795       22.443       45.622       16.283      503.684     2081.378      265.128        0.369        0.143       66.994       18.268        0.074      341.433       16.143      859.153
10/16/2014  21:01:00      -31.122       -7.938       -0.766       22.687       14.215       14.358      514.710      202.080      206.143        0.098        0.046       32.119       13.014        0.164      341.136       15.640      859.146
10/16/2014  21:02:00      -60.502      -20.984       -7.825        9.684        9.688        8.810       93.787       93.862       77.613        0.221        0.013       64.037        5.135        0.006      340.923       15.279      859.138
10/16/2014  21:03:00      -52.637      -24.117       -5.105       13.842       14.136       18.759      191.602      199.834      351.883        0.206        0.037       57.899       11.126        0.037      341.002       15.412      859.143
10/16/2014  21:04:00      -51.603      -15.340      -13.144       14.977       17.377       13.603      224.317      301.973      185.042        0.189        0.036       53.835        6.044        0.013      340.846       15.148      859.144
10/16/2014  21:05:00      -64.606       -4.306      -14.385       12.355       19.675       11.506      152.640      387.123      132.395        0.254        0.034       64.749        7.491        0.013      340.774       15.025      859.145
10/16/2014  21:06:00      -48.706      -10.073      -10.240       13.333       21.080        8.200      177.781      444.384       67.247        0.163        0.034       49.737        8.074        0.026      340.796       15.063      859.149
10/16/2014  21:07:00      -55.366        9.667       -6.371       18.951       23.895        9.172      359.127      570.987       84.130        0.211        0.051       56.204       10.098        0.032      340.896       15.232      859.156
10/16/2014  21:08:00      -69.619       15.299      -12.604       16.653       25.415        9.698      277.311      645.920       94.050        0.313        0.051       71.281       10.672        0.022      340.985       15.383      859.170
10/16/2014  21:09:00      -53.312      -16.296       -7.401       17.464       15.056       14.884      304.993      226.675      221.541        0.196        0.038       55.747        9.571        0.029      340.847       15.151      859.171
10/16/2014  21:10:00      -34.113      -19.212        2.336       21.940       16.656       12.199      481.378      277.431      148.819        0.122        0.045       39.151       11.829        0.091      340.867       15.184      859.168
10/16/2014  21:11:00      -23.167      -20.071        0.726       17.173       19.637       14.561      294.907      385.592      212.025        0.092        0.045       30.653       10.358        0.114      340.869       15.185      859.178
10/16/2014  21:12:00      -43.937       22.681       -3.002       16.459       22.972       13.747      270.910      527.704      188.988        0.172        0.049       49.446        7.625        0.024      340.975       15.367      859.173
10/16/2014  21:13:00      -46.236       -2.873        1.246       13.980       18.175       14.186      195.439      330.339      201.240        0.144        0.036       46.325        8.226        0.032      340.906       15.251      859.171
10/16/2014  21:14:00      -52.740      -12.959       -9.794       14.006       23.724       12.099      196.167      562.824      146.388        0.198        0.045       54.309       12.324        0.051      340.786       15.046      859.181
10/16/2014  21:15:00      -39.741       -0.505       -4.269       18.813       21.810       11.822      353.914      475.684      139.754        0.128        0.048       39.744        6.571        0.027      340.787       15.048      859.192
10/16/2014  21:16:00      -41.245       12.826       -3.636       22.043       28.959       13.704      485.889      838.609      187.804        0.170        0.076       43.193       14.599        0.114      340.958       15.339      859.200
10/16/2014  21:17:00      -66.500       22.962       -9.873       18.288       24.567       13.379      334.455      603.514      178.989        0.308        0.056       70.353        8.815        0.016      340.904       15.246      859.219
10/16/2014  21:18:00      -82.917       47.621      -13.317       28.027       29.416       18.764      785.527      865.308      352.092        0.566        0.100       95.619       15.564        0.026      341.073       15.533      859.226
10/16/2014  21:19:00      -61.094       10.844       -1.716       22.224       37.344       15.116      493.908     1394.548      228.483        0.298        0.106       62.049       14.845        0.057      340.832       15.125      859.219
10/16/2014  21:20:00      -54.552        0.792       -5.641       30.403       24.350       16.386      924.362      592.904      268.513        0.240        0.089       54.557       16.617        0.093      340.904       15.247      859.215
10/16/2014  21:21:00      -91.116       25.528      -12.783       26.215       30.774       16.003      687.251      947.063      256.110        0.550        0.095       94.625        9.220        0.009      340.976       15.367      859.209
10/16/2014  21:22:00      -89.570       24.822      -11.575       30.736       25.102       24.760      944.681      630.106      613.073        0.548        0.109       92.945       21.779        0.055      340.977       15.371      859.191
10/16/2014  21:23:00      -90.528       30.500      -13.112       28.329       27.990       20.427      802.517      783.430      417.243        0.565        0.100       95.528       15.360        0.026      340.987       15.388      859.191
10/16/2014  21:24:00      -69.618        3.341      -15.034       31.793       30.909       21.414     1010.814      955.391      458.579        0.375        0.121       69.698       11.130        0.025      340.990       15.393      859.194
10/16/2014  21:25:00      -57.998        3.690       -4.471       21.257       21.909       16.430      451.870      480.003      269.950        0.230        0.060       58.115       12.654        0.047      340.881       15.205      859.182
10/16/2014  21:26:00      -54.863      -13.455       -3.057       23.274       22.685       14.533      541.658      514.590      211.211        0.223        0.063       56.489       12.271        0.047      340.767       15.014      859.186
10/16/2014  21:27:00      -58.905        2.427       -3.790       20.905       25.891       14.794      437.031      670.366      218.877        0.241        0.066       58.955       11.122        0.036      340.827       15.116      859.176
10/16/2014  21:28:00      -63.972       22.827       -9.772       22.727       26.439       17.077      516.537      699.033      291.625        0.311        0.075       67.922        6.503        0.009      341.046       15.487      859.156
10/16/2014  21:29:00      -58.166       13.388       -8.099       24.791       24.477       15.651      614.617      599.126      244.960        0.254        0.073       59.687       11.820        0.039      340.989       15.389      859.140
10/16/2014  21:30:00      -46.287       -1.316       -8.568       17.251       14.434       11.935      297.608      208.340      142.446        0.143        0.032       46.306        5.683        0.015      340.887       15.218      859.117
10/16/2014  21:31:00      -59.299       11.168      -13.229       30.820       22.081       15.593      949.885      487.571      243.133        0.275        0.084       60.341       14.254        0.056      340.872       15.193      859.100
10/16/2014  21:32:00      -92.234       64.743      -17.598       24.148       27.110       19.346      583.103      734.973      374.263        0.735        0.085      112.689       15.900        0.020      341.088       15.559      859.094
10/16/2014  21:33:00      -70.420       11.929       -9.797       23.929       25.659       16.413      572.584      658.369      269.379        0.335        0.075       71.423       12.462        0.030      340.871       15.190      859.092
10/16/2014  21:34:00      -37.102      -11.982       -0.616       23.870       24.323       16.325      569.791      591.587      266.495        0.147        0.071       38.989       10.288        0.070      340.674       14.858      859.088
10/16/2014  21:35:00      -58.252       16.807      -10.874       23.696       36.046       12.306      561.524     1299.327      151.444        0.290        0.101       60.628       11.934        0.039      340.730       14.954      859.096
10/16/2014  21:36:00      -74.093      -16.263       -7.212       20.594       27.712       14.319      424.109      767.951      205.044        0.360        0.070       75.857        6.525        0.007      340.616       14.760      859.093
10/16/2014  21:37:00      -68.467       -9.208      -12.621       17.443       19.204       12.232      304.269      368.790      149.615        0.288        0.041       69.084       10.771        0.024      340.560       14.665      859.096
10/16/2014  21:38:00      -74.212      -18.984      -11.436       30.975       25.070       17.785      959.443      628.515      316.290        0.395        0.095       76.602        8.832        0.013      340.540       14.630      859.108
10/16/2014  21:39:00      -80.484       -8.635       -3.735       48.637       24.210       16.840     2365.516      586.121      283.584        0.490        0.162       80.946       21.376        0.070      340.463       14.502      859.104
10/16/2014  21:40:00      -97.897        0.687       -9.578       48.604       32.775       22.749     2362.376     1074.169      517.499        0.681        0.198       97.900       22.262        0.052      340.501       14.564      859.103
10/16/2014  21:41:00     -143.703        6.248      -16.237       27.283       23.250       15.307      744.340      540.582      234.290        1.124        0.076      143.839        9.219        0.004      340.579       14.698      859.105
10/16/2014  21:42:00     -151.880       -8.086      -15.811       42.374       25.986       23.590     1795.588      675.279      556.465        1.320        0.151      152.095       25.311        0.028      340.557       14.661      859.090
10/16/2014  21:43:00     -156.466       -7.678      -11.484       30.909       27.203       17.336      955.380      739.984      300.536        1.333        0.100      156.655       16.987        0.012      340.523       14.603      859.082
10/16/2014  21:44:00     -107.209       20.235       -9.668       46.292       29.853       19.983     2142.913      891.203      399.332        0.771        0.172      109.102       15.147        0.019      340.507       14.575      859.091
10/16/2014  21:45:00     -106.818        0.825      -10.895       34.526       34.993       24.925     1192.053     1224.501      621.255        0.728        0.152      106.822       18.409        0.030      340.536       14.623      859.089
10/16/2014  21:46:00      -71.980       11.170       -9.198       48.456       36.885       23.616     2347.942     1360.469      557.720        0.483        0.213       72.842       21.758        0.089      340.502       14.568      859.085
10/16/2014  21:47:00      -66.288        1.831       -6.582       31.876       46.731       20.232     1016.080     2183.790      409.347        0.402        0.180       66.313       18.831        0.081      340.461       14.497      859.098
10/16/2014  21:48:00      -56.885        3.460      -13.457       36.294       31.454       16.128     1317.252      989.324      260.114        0.300        0.128       56.990       12.175        0.046      340.637       14.794      859.111
10/16/2014  21:49:00      -27.619        6.919        1.953       28.577       23.546       15.641      816.638      554.401      244.655        0.121        0.081       28.472       14.568        0.262      340.471       14.515      859.110
10/16/2014  21:50:00      -31.595        6.461       -5.555       18.201       25.472       17.099      331.261      648.838      292.370        0.117        0.064       32.249        9.249        0.082      340.543       14.635      859.103
10/16/2014  21:51:00      -53.957       15.874       -9.278       33.358       35.266       19.659     1112.779     1243.658      386.477        0.300        0.137       56.243       21.617        0.148      340.597       14.726      859.093
10/16/2014  21:52:00      -56.489       24.473       -8.364       22.218       29.780       20.034      493.631      886.873      401.355        0.282        0.089       61.562       14.090        0.052      340.706       14.911      859.060
10/16/2014  21:53:00      -53.693       12.813       -3.145       32.037       25.774       16.421     1026.392      664.303      269.660        0.251        0.098       55.201       17.507        0.101      340.757       14.997      859.031
10/16/2014  21:54:00      -34.989        7.132       -2.281       18.020       23.673       14.716      324.707      560.398      216.560        0.119        0.055       35.708        9.719        0.074      340.709       14.917      859.013
10/16/2014  21:55:00      -29.829       -7.490       -3.134       15.533       20.749       15.325      241.261      430.541      234.858        0.093        0.045       30.755       11.752        0.146      340.769       15.019      858.994
10/16/2014  21:56:00      -40.413      -13.497       -4.191       18.357       15.479       11.178      336.995      239.609      124.955        0.127        0.035       42.607       13.084        0.094      340.695       14.894      858.980
10/16/2014  21:57:00      -32.323       -8.508      -11.028       14.741       16.407       12.263      217.287      269.200      150.374        0.094        0.032       33.424        5.221        0.024      340.584       14.705      858.979
10/16/2014  21:58:00      -47.893      -14.970       -5.004       15.066       17.561        8.760      226.983      308.388       76.739        0.158        0.031       50.178        8.068        0.026      340.514       14.587      858.974
10/16/2014  21:59:00      -70.984      -26.570       -9.194        9.958       14.580        7.916       99.171      212.587       62.657        0.310        0.019       75.794        3.607        0.002      340.442       14.465      858.962
10/16/2014  22:00:00      -87.265      -32.135       -7.523       10.460       12.395        7.556      109.420      153.624       57.089        0.451        0.016       92.994        5.331        0.003      340.458       14.491      858.960
10/16/2014  22:01:00      -86.941      -30.239       -5.711       14.724       11.256       10.435      216.811      126.708      108.898        0.448        0.023       92.049        7.542        0.007      340.416       14.421      858.960
10/16/2014  22:02:00     -107.521      -39.416      -10.927       14.504       13.688       11.665      210.380      187.371      136.078        0.688        0.027      114.518        4.236        0.001      340.403       14.400      858.955
10/16/2014  22:03:00      -89.246      -32.582       -4.684       20.308        9.262        9.100      412.412       85.777       82.805        0.481        0.029       95.007        6.537        0.005      340.371       14.346      858.959
10/16/2014  22:04:00      -45.287      -38.019       -1.606       31.085       19.131       13.033      966.251      365.977      169.872        0.250        0.075       59.130        8.732        0.022      340.387       14.372      858.958
10/16/2014  22:05:00      -57.860      -45.814       -1.079       28.605       20.887       15.023      818.251      436.255      225.682        0.346        0.074       73.801       14.862        0.041      340.374       14.350      858.963
10/16/2014  22:06:00      -37.343      -31.574        2.738       33.844       26.812       18.368     1145.417      718.863      337.395        0.230        0.110       48.902       16.799        0.118      340.295       14.218      858.977
10/16/2014  22:07:00      -43.152      -50.831        8.841       48.680       41.506       23.321     2369.785     1722.757      543.874        0.458        0.232       66.677       26.492        0.158      340.311       14.245      859.006
10/16/2014  22:08:00      -87.466      -74.711       -2.326       39.930       30.322       21.602     1594.376      919.412      466.667        0.811        0.149      115.031       21.405        0.035      340.306       14.235      859.029
10/16/2014  22:09:00      -82.569      -45.641        4.657       48.516       27.111       22.674     2353.841      735.009      514.121        0.626        0.180       94.344       27.162        0.083      340.228       14.104      859.050
10/16/2014  22:10:00     -119.295      -57.915        1.341       33.931       26.146       22.595     1151.283      683.627      510.550        0.997        0.117      132.610       18.020        0.018      340.191       14.042      859.076
10/16/2014  22:11:00      -90.123      -63.222        1.374       34.284       29.512       17.944     1175.376      870.979      321.969        0.724        0.118      110.087        9.466        0.007      340.159       13.988      859.100
10/16/2014  22:12:00      -72.053      -61.716        0.387       35.330       28.571       24.219     1248.194      816.296      586.553        0.583        0.133       94.871       20.209        0.045      340.160       13.989      859.106
10/16/2014  22:13:00      -79.097      -60.988       -1.275       30.269       24.122       19.416      916.223      581.850      376.970        0.593        0.094       99.879        6.308        0.004      340.130       13.939      859.108
10/16/2014  22:14:00      -87.114      -58.777       -4.303       24.692       23.044       19.634      609.714      531.017      385.508        0.629        0.076      105.089       12.522        0.014      340.147       13.967      859.111
10/16/2014  22:15:00      -62.124      -48.395       -0.262       29.366       17.811       15.716      862.336      317.247      247.005        0.381        0.071       78.750        8.413        0.011      340.089       13.868      859.123
10/16/2014  22:16:00      -53.971      -41.803        0.324       26.498       16.790       13.629      702.124      281.887      185.761        0.291        0.058       68.267        9.180        0.018      340.087       13.865      859.118
10/16/2014  22:17:00      -64.580      -34.553        0.075       22.545       17.917       12.273      508.270      321.036      150.625        0.317        0.049       73.243        8.782        0.014      340.076       13.848      859.101
10/16/2014  22:18:00      -36.481      -30.783        3.106       21.108       13.374       14.778      445.555      178.863      218.402        0.157        0.042       47.733        8.395        0.031      340.030       13.769      859.092
10/16/2014  22:19:00      -46.192      -30.787       -4.070       16.384       13.988        9.028      268.437      195.669       81.511        0.182        0.027       55.512        6.088        0.012      340.075       13.847      859.074
10/16/2014  22:20:00      -40.938      -29.693       -6.910       12.554        8.383        7.186      157.596       70.281       51.643        0.144        0.014       50.573        5.407        0.011      340.146       13.966      859.045
10/16/2014  22:21:00      -53.145      -24.227       -6.456        8.910        6.931        5.644       79.381       48.035       31.859        0.181        0.008       58.407        3.752        0.004      340.082       13.857      859.026
10/16/2014  22:22:00      -50.331      -19.894       -6.762        9.642       11.895        6.955       92.975      141.494       48.371        0.163        0.014       54.120        2.940        0.003      340.028       13.765      859.010
10/16/2014  22:23:00      -60.802      -15.586      -10.556        7.452       10.090        6.976       55.538      101.817       48.662        0.213        0.010       62.768        5.140        0.007      340.009       13.735      858.993
10/16/2014  22:24:00      -49.961      -26.812       -7.110        9.226        6.302        6.679       85.119       39.720       44.605        0.172        0.008       56.701        3.743        0.004      339.980       13.684      858.980
10/16/2014  22:25:00      -52.730      -14.704       -6.868        7.590        9.719        5.314       57.607       94.465       28.242        0.161        0.009       54.742        3.835        0.005      339.923       13.590      858.964
10/16/2014  22:26:00      -55.225      -19.817       -9.843        7.552        6.685        7.310       57.032       44.690       53.429        0.185        0.008       58.673        2.355        0.002      339.925       13.592      858.951
10/16/2014  22:27:00      -70.739      -28.507      -11.446        9.610       11.874        5.997       92.347      141.004       35.968        0.311        0.013       76.267        3.541        0.002      339.887       13.529      858.934
10/16/2014  22:28:00      -81.731      -43.461       -7.100       14.301       12.409        8.731      204.504      153.980       76.227        0.453        0.022       92.568        7.642        0.007      339.873       13.503      858.909
10/16/2014  22:29:00      -23.118       -6.563       -1.381       17.911       15.028       14.084      320.788      225.839      198.358        0.066        0.037       24.031        6.616        0.076      339.770       13.332      858.896
10/16/2014  22:30:00      -39.998      -39.290       -2.902       22.165       18.643       16.058      491.307      347.579      257.868        0.212        0.055       56.067        7.905        0.020      339.827       13.428      858.905
10/16/2014  22:31:00      -27.372      -33.497        7.869       40.889       24.870       20.176     1671.917      618.495      407.084        0.231        0.135       43.258       20.041        0.215      339.797       13.378      858.929
10/16/2014  22:32:00      -60.413      -82.117       -1.937       35.003       37.576       20.652     1225.230     1411.981      426.485        0.673        0.153      101.946       10.121        0.010      339.936       13.611      858.953
10/16/2014  22:33:00      -66.956      -49.633       -6.242       31.899       53.391       26.431     1017.574     2850.561      698.571        0.578        0.228       83.346       32.129        0.149      339.926       13.595      858.969
10/16/2014  22:34:00      -74.968      -68.949       -6.034       73.857       33.335       31.283     5454.853     1111.223      978.613        0.898        0.377      101.854       20.771        0.042      339.927       13.595      858.999
10/16/2014  22:35:00      -22.069      -39.484       15.382       63.444       45.023       33.868     4025.190     2027.063     1147.022        0.474        0.360       45.233       35.989        0.633      339.836       13.443      859.016
10/16/2014  22:36:00      -48.083      -40.667        2.379       62.002       55.672       33.581     3844.268     3099.383     1127.693        0.602        0.404       62.974       30.630        0.237      339.657       13.142      859.019
10/16/2014  22:37:00     -128.508      -76.521        2.022       73.608       73.435       44.528     5418.122     5392.663     1982.783        1.758        0.640      149.565       38.707        0.067      339.579       13.009      859.018
10/16/2014  22:38:00     -155.183     -155.840      -12.546       61.320       61.247       38.532     3760.180     3751.166     1484.715        2.876        0.450      219.927       31.364        0.020      339.563       12.980      859.015
10/16/2014  22:39:00     -137.713      -95.743      -12.096       52.213       40.998       31.683     2726.189     1680.842     1003.843        1.684        0.271      167.724       27.857        0.028      339.542       12.946      859.004
10/16/2014  22:40:00     -108.948     -105.029       -0.878       46.187       47.912       33.224     2133.229     2295.576     1103.826        1.422        0.277      151.330       18.925        0.016      339.502       12.877      859.001
10/16/2014  22:41:00     -125.005      -74.873       -2.153       47.516       33.420       20.166     2257.726     1116.897      406.685        1.251        0.189      145.713       21.642        0.022      339.521       12.911      858.996
10/16/2014  22:42:00     -117.049      -75.007      -10.998       20.908       32.022       15.178      437.161     1025.387      230.359        1.057        0.085      139.020        6.089        0.002      339.507       12.887      858.970
10/16/2014  22:43:00     -125.633      -57.765       -5.044       40.574       31.865       21.819     1646.285     1015.400      476.085        1.114        0.157      138.276       22.361        0.026      339.556       12.969      858.947
10/16/2014  22:44:00     -107.581      -65.236       -4.198       32.447       22.712       17.172     1052.800      515.853      294.880        0.885        0.093      125.815       12.516        0.010      339.532       12.931      858.935
10/16/2014  22:45:00      -81.071      -52.265        1.095       38.079       26.769       19.790     1450.036      716.590      391.650        0.593        0.128       96.458       14.977        0.024      339.559       12.976      858.916
10/16/2014  22:46:00      -98.498      -44.312       -2.322       26.681       21.005       14.746      711.871      441.230      217.430        0.652        0.069      108.006        9.615        0.008      339.524       12.914      858.901
10/16/2014  22:47:00      -83.595      -53.546       -2.887       27.295       23.087       19.271      745.024      532.987      371.368        0.576        0.082       99.274       11.216        0.013      339.526       12.918      858.899
10/16/2014  22:48:00      -79.357      -35.734        1.087       31.554       35.307       19.359      995.684     1246.584      374.754        0.510        0.131       87.031       17.447        0.040      339.513       12.896      858.894
10/16/2014  22:49:00     -127.616      -23.605      -10.517       35.952       24.220       20.131     1292.522      586.607      405.242        0.962        0.114      129.781       19.273        0.022      339.487       12.855      858.912
10/16/2014  22:50:00     -121.682      -18.460      -11.648       26.837       26.902       17.031      720.224      723.736      290.053        0.851        0.087      123.074       16.533        0.018      339.498       12.871      858.919
10/16/2014  22:51:00     -121.277      -50.474      -15.640       11.742       23.987       16.072      137.866      575.377      258.297        0.924        0.049      131.361       10.927        0.007      339.522       12.912      858.925
10/16/2014  22:52:00     -117.256      -31.437      -12.119       14.133       18.720       12.576      199.740      350.452      158.153        0.780        0.035      121.397        8.934        0.005      339.592       13.030      858.941
10/16/2014  22:53:00     -109.084      -31.923       -7.969       17.812       24.104       15.117      317.272      581.009      228.512        0.705        0.056      113.659       10.227        0.008      339.592       13.031      858.957
10/16/2014  22:54:00     -119.557      -22.614       -8.521       17.383       18.679       13.691      302.166      348.891      187.437        0.786        0.042      121.677       11.852        0.009      339.551       12.961      858.980
10/16/2014  22:55:00     -104.273      -17.783       -4.178       39.807       21.640       20.623     1584.595      468.277      425.326        0.684        0.124      105.778       20.652        0.038      339.549       12.958      859.012
10/16/2014  22:56:00     -103.215      -18.366       -4.326       27.229       28.636       21.765      741.423      820.038      473.708        0.652        0.102      104.836       15.058        0.021      339.534       12.933      859.035
10/16/2014  22:57:00     -102.100      -45.867       -9.890       19.622       16.019       13.702      385.040      256.599      187.740        0.673        0.041      111.929       12.131        0.012      339.506       12.886      859.062
10/16/2014  22:58:00      -61.224      -44.988        4.148       34.874       33.535       21.466     1216.187     1124.624      460.798        0.430        0.140       75.976       20.237        0.071      339.471       12.826      859.090
10/16/2014  22:59:00      -97.044      -57.135        3.889       48.938       41.742       24.893     2394.917     1742.405      619.665        0.873        0.238      112.615       24.073        0.046      339.556       12.970      859.106
10/16/2014  23:00:00     -109.776      -75.529        6.298       50.357       39.889       28.427     2535.871     1591.161      808.079        1.136        0.247      133.250       30.163        0.051      339.630       13.097      859.123
10/16/2014  23:01:00     -115.573      -75.636        0.211       46.789       36.863       26.765     2189.208     1358.849      716.346        1.167        0.213      138.122       26.935        0.038      339.602       13.047      859.127
10/16/2014  23:02:00      -85.286      -60.230        4.820       39.808       40.243       21.150     1584.671     1619.533      447.317        0.729        0.183      104.410       21.290        0.042      339.592       13.031      859.126
10/16/2014  23:03:00      -95.253      -58.455        0.481       48.112       36.034       18.978     2314.772     1298.465      360.181        0.823        0.199      111.759       21.528        0.037      339.638       13.108      859.130
10/16/2014  23:04:00     -109.791      -46.222       -0.774       45.559       27.170       23.465     2075.627      738.220      550.595        0.878        0.168      119.124       23.166        0.038      339.623       13.084      859.130
10/16/2014  23:05:00     -127.714      -73.860       -3.844       41.704       33.054       24.811     1739.225     1092.545      615.567        1.261        0.172      147.533       16.734        0.013      339.683       13.184      859.119
10/16/2014  23:06:00     -101.305      -44.668       -0.666       24.779       21.781       14.581      613.975      474.408      212.609        0.678        0.065      110.716        9.992        0.008      339.657       13.141      859.114
10/16/2014  23:07:00      -78.429      -20.286        2.141       30.367       24.956       16.078      922.152      622.789      258.495        0.419        0.090       81.010       16.564        0.042      339.610       13.062      859.111
10/16/2014  23:08:00      -75.640      -15.402        2.317       33.607       22.607       16.788     1129.454      511.078      281.848        0.394        0.096       77.192       18.476        0.057      339.535       12.935      859.098
10/16/2014  23:09:00     -118.065      -22.346       -6.228       38.437       16.804       15.446     1477.420      282.376      238.574        0.824        0.100      120.161       19.237        0.026      339.613       13.067      859.096
10/16/2014  23:10:00     -113.957      -32.203       -1.695       39.556       25.290       18.807     1564.700      639.604      353.718        0.829        0.128      118.420       18.543        0.025      339.562       12.981      859.083
10/16/2014  23:11:00     -154.089      -42.727       -9.592       24.529       23.908       17.237      601.682      571.574      297.129        1.357        0.074      159.903       14.954        0.009      339.512       12.895      859.069
10/16/2014  23:12:00     -117.865      -17.110       -4.372       32.002       28.105       17.137     1024.147      789.903      293.661        0.816        0.105      119.101       17.131        0.021      339.478       12.839      859.062
10/16/2014  23:13:00     -122.732      -25.066      -11.652       37.684       29.613       22.249     1420.079      876.929      495.033        0.931        0.140      125.266       18.698        0.022      339.467       12.819      859.059
10/16/2014  23:14:00     -149.105      -31.829      -10.447       42.939       27.197       20.528     1843.799      739.684      421.415        1.318        0.150      152.464       20.121        0.017      339.390       12.690      859.047
10/16/2014  23:15:00     -162.294       -4.770      -19.722       28.732       22.076       15.227      825.538      487.363      231.867        1.415        0.077      162.364       13.114        0.007      339.400       12.706      859.046
10/16/2014  23:16:00     -170.605        9.278      -17.254       23.133       19.189       15.136      535.141      368.199      229.105        1.531        0.057      170.857       11.995        0.005      339.438       12.770      859.044
10/16/2014  23:17:00     -152.491      -16.028      -16.869       21.865       27.987       19.294      478.064      783.284      372.247        1.271        0.082      153.331       13.663        0.008      339.424       12.748      859.032
10/16/2014  23:18:00     -104.237      -11.929      -10.080       51.192       24.571       17.366     2620.577      603.736      301.569        0.732        0.176      104.918       17.841        0.029      339.333       12.594      859.021
10/16/2014  23:19:00     -112.740       -9.058       -7.169       40.430       36.603       22.926     1634.563     1339.775      525.581        0.817        0.175      113.103       23.562        0.043      339.282       12.508      859.010
10/16/2014  23:20:00     -144.332        7.232      -23.406       44.926       32.601       18.140     2018.309     1062.816      329.059        1.242        0.171      144.513       12.977        0.008      339.348       12.618      858.990
10/16/2014  23:21:00     -157.159       32.111      -15.127       37.596       33.912       18.824     1413.430     1150.005      354.338        1.444        0.146      160.406       15.650        0.010      339.362       12.641      858.957
10/16/2014  23:22:00     -147.318       22.655      -18.948       48.150       39.531       23.657     2318.432     1562.701      559.640        1.351        0.222      149.050       25.154        0.028      339.325       12.580      858.926
10/16/2014  23:23:00     -130.974      -38.052      -12.168       46.237       42.947       28.163     2137.900     1844.461      793.137        1.176        0.239      136.389       22.219        0.027      339.354       12.630      858.914
10/16/2014  23:24:00      -89.475       13.383       -9.939       31.666       26.850       23.676     1002.721      720.900      560.543        0.528        0.114       90.470       15.043        0.028      339.430       12.757      858.899
10/16/2014  23:25:00      -61.376      -34.188      -11.288       23.661       25.589       16.350      559.820      654.774      267.322        0.327        0.074       70.256       10.667        0.023      339.350       12.623      858.877
10/16/2014  23:26:00      -51.213      -21.188       -7.138       19.220       19.833       14.780      369.404      393.342      218.463        0.205        0.049       55.423        9.754        0.031      339.441       12.776      858.863
10/16/2014  23:27:00      -25.313      -13.931       -0.200       19.729       14.436        9.708      389.232      208.384       94.246        0.076        0.035       28.893        5.439        0.035      339.432       12.761      858.855
10/16/2014  23:28:00      -32.640       -7.021        7.376       14.628        7.987       10.374      213.985       63.792      107.630        0.078        0.019       33.387        6.642        0.040      339.443       12.781      858.838
10/16/2014  23:29:00      -19.669      -21.071        1.272       14.188       19.029       10.495      201.304      362.096      110.151        0.075        0.034       28.824        7.314        0.064      339.395       12.700      858.838
10/16/2014  23:30:00      -15.089      -28.814        1.454       22.037       12.837        9.383      485.646      164.782       88.047        0.090        0.037       32.525        5.651        0.030      339.260       12.472      858.837
10/16/2014  23:31:00      -87.849      -32.184      -11.603       15.239       17.438       11.874      232.227      304.091      140.992        0.478        0.034       93.559        7.613        0.007      339.281       12.506      858.814
10/16/2014  23:32:00     -123.247      -31.488      -18.509       18.385       16.612       11.755      338.002      275.966      138.181        0.864        0.038      127.206        4.414        0.001      339.218       12.400      858.783
10/16/2014  23:33:00     -106.291      -37.320      -11.489       15.803       13.800       10.494      249.729      190.438      110.114        0.669        0.028      112.653        7.712        0.005      339.180       12.337      858.758
10/16/2014  23:34:00      -85.234      -18.493       -9.436       26.438       22.317       13.975      698.980      498.068      195.289        0.454        0.070       87.217       15.041        0.030      339.143       12.274      858.731
10/16/2014  23:35:00     -114.376      -27.190       -8.924       24.296       19.511       15.954      590.283      380.682      254.535        0.756        0.061      117.563       14.083        0.014      339.227       12.415      858.716
10/16/2014  23:36:00      -75.166      -33.081       -0.254       18.935       15.583       10.369      358.544      242.817      107.523        0.373        0.035       82.124        5.118        0.004      339.212       12.391      858.725
10/16/2014  23:37:00      -48.235      -31.716        0.615       24.710       15.846       11.663      610.569      251.081      136.015        0.217        0.050       57.728        8.697        0.023      339.309       12.553      858.746
10/16/2014  23:38:00      -44.413      -34.868        1.656       19.611       16.389       15.168      384.601      268.590      230.056        0.204        0.044       56.465       12.506        0.049      339.362       12.643      858.758
10/16/2014  23:39:00      -35.380      -49.122        0.824       25.080       20.012       15.717      628.988      400.464      247.022        0.247        0.064       60.537       14.904        0.061      339.442       12.779      858.751
10/16/2014  23:40:00      -11.584      -50.292       -9.081       18.502       13.473       10.069      342.337      181.532      101.393        0.169        0.031       51.609        8.204        0.025      339.495       12.867      858.740
10/16/2014  23:41:00       -1.600      -34.026       -8.518       15.367       15.527       10.161      236.138      241.092      103.243        0.091        0.029       34.064        8.488        0.062      339.437       12.771      858.718
10/16/2014  23:42:00      -48.639      -29.266       -2.708       21.395       16.878       10.659      457.767      284.873      113.620        0.204        0.043       56.765        9.550        0.028      339.432       12.762      858.692
10/16/2014  23:43:00      -83.686      -72.392       -4.559       28.209       38.400       22.117      795.752     1474.566      489.160        0.751        0.138      110.652       15.938        0.021      339.297       12.533      858.682
10/16/2014  23:44:00     -129.322      -87.735       -6.146       42.761       54.857       25.744     1828.474     3009.261      662.743        1.498        0.275      156.274       15.761        0.010      339.111       12.219      858.697
10/16/2014  23:45:00     -116.481      -84.401       -3.548       66.454       60.889       29.539     4416.104     3707.518      872.564        1.485        0.450      143.845       31.544        0.048      339.048       12.112      858.717
10/16/2014  23:46:00     -122.972      -85.915       -0.848       52.514       47.507       31.093     2757.679     2256.905      966.752        1.424        0.299      150.012       30.589        0.042      339.041       12.103      858.724
10/16/2014  23:47:00     -105.369      -63.438        1.688       54.486       37.472       30.021     2968.768     1404.132      901.246        1.020        0.264      122.992       27.153        0.049      338.993       12.021      858.732
10/16/2014  23:48:00     -121.823      -76.195        1.411       35.967       26.368       24.326     1293.622      695.279      591.765        1.161        0.129      143.689       19.115        0.018      338.980       11.998      858.749
10/16/2014  23:49:00     -115.195      -75.366        0.697       39.670       34.658       20.363     1573.730     1201.162      414.658        1.107        0.159      137.659       19.995        0.021      338.977       11.996      858.767
10/16/2014  23:50:00      -68.869      -67.052       -0.467       38.727       34.464       27.753     1499.780     1187.740      770.240        0.635        0.173       96.119       23.610        0.060      338.935       11.923      858.786
10/16/2014  23:51:00      -80.795      -43.958        3.478       43.486       37.384       28.787     1891.071     1397.592      828.685        0.629        0.206       91.979       23.045        0.063      338.922       11.903      858.789
10/16/2014  23:52:00     -106.174      -95.959       -4.217       42.561       43.069       25.053     1811.413     1854.933      627.633        1.240        0.215      143.112       25.541        0.032      338.903       11.871      858.772
10/16/2014  23:53:00      -98.905      -66.757       -0.258       34.699       40.619       19.459     1204.055     1649.904      378.652        0.874        0.162      119.326       20.621        0.030      338.835       11.757      858.752
10/16/2014  23:54:00      -85.017      -89.310      -15.359       41.663       39.538       12.614     1735.837     1563.224      159.109        0.945        0.173      123.306        8.991        0.005      338.800       11.697      858.746
10/16/2014  23:55:00      -85.737      -60.989        5.051       30.969       29.986       22.357      959.074      899.181      499.834        0.673        0.118      105.216       17.606        0.028      338.729       11.578      858.738
10/16/2014  23:56:00     -106.828      -80.041       -6.997       41.497       34.243       19.623     1722.013     1172.592      385.046        1.057        0.164      133.487       10.091        0.006      338.709       11.543      858.724
10/16/2014  23:57:00      -75.506      -64.593        5.774       44.950       29.315       21.400     2020.514      859.385      457.955        0.662        0.167       99.365       16.357        0.027      338.693       11.517      858.721
10/16/2014  23:58:00      -66.200      -49.366        3.632       48.954       35.612       28.425     2396.477     1268.232      807.994        0.565        0.224       82.579       28.806        0.122      338.658       11.460      858.713
10/16/2014  23:59:00      -98.099      -62.460       -2.286       36.422       26.894       19.874     1326.527      723.300      394.966        0.799        0.122      116.295       18.457        0.025      338.679       11.493      858.700
